Yesterday's Data File

12/14/17
Time         Wind Dir   Wind Spd  Wind Gust   Humidity    Temp In       Temp  Raw Barom   Tot Rain Wind Chill Heat Index  Dew Point   Barom SL  Press Alt  DailyRain   HourRain   24HrRain   RainRate
                            mph        mph          %         F         F         in         in         F         F         F         in         ft         in         in         in      in/hr
12:00am            97          3          6         43       74.1       36.1      29.47      40.21       34.0       36.3       15.8      29.58        420       0.00       0.00       0.00      0.000
12:01am           135          6          6         43       74.1       36.1      29.47      40.21       31.1       36.3       15.8      29.58        420       0.00       0.00       0.00      0.000
12:02am           163          2          6         43       74.1       36.1      29.47      40.21       35.5       36.3       15.8      29.58        418       0.00       0.00       0.00      0.000
12:03am           170          3          5         43       74.1       36.2      29.47      40.21       34.1       36.4       15.9      29.58        418       0.00       0.00       0.00      0.000
12:04am           197          3          3         43       74.1       36.2      29.47      40.21       34.1       36.4       15.9      29.58        417       0.00       0.00       0.00      0.000
12:05am           101          3          6         43       74.1       36.2      29.47      40.21       34.1       36.4       15.9      29.58        417       0.00       0.00       0.00      0.000
12:06am           141          1          7         43       74.1       36.3      29.47      40.21       36.3       36.5       16.0      29.58        421       0.00       0.00       0.00      0.000
12:07am           191          4          5         43       74.1       36.3      29.47      40.21       33.0       36.5       16.0      29.58        421       0.00       0.00       0.00      0.000
12:08am           126          1          6         43       74.1       36.3      29.47      40.21       36.3       36.5       16.0      29.58        422       0.00       0.00       0.00      0.000
12:09am           107          3          5         43       74.1       36.3      29.47      40.21       34.2       36.5       16.0      29.58        422       0.00       0.00       0.00      0.000
12:10am           162          2          4         43       74.1       36.3      29.47      40.21       35.7       36.5       16.0      29.58        422       0.00       0.00       0.00      0.000
12:11am           172          2          2         43       74.1       36.3      29.47      40.21       35.7       36.5       16.0      29.58        422       0.00       0.00       0.00      0.000
12:12am           186          6          7         43       74.1       36.3      29.47      40.21       31.4       36.5       16.0      29.58        422       0.00       0.00       0.00      0.000
12:13am           201          3          6         43       74.1       36.3      29.47      40.21       34.2       36.5       16.0      29.57        423       0.00       0.00       0.00      0.000
12:14am           196          2          3         44       74.1       36.4      29.46      40.21       35.8       36.7       16.6      29.57        425       0.00       0.00       0.00      0.000
12:15am           150          4          6         43       74.1       36.4      29.46      40.21       33.2       36.6       16.1      29.57        425       0.00       0.00       0.00      0.000
12:16am           179          1          5         43       74.2       36.4      29.46      40.21       36.4       36.6       16.1      29.57        427       0.00       0.00       0.00      0.000
12:17am           205          3          3         43       74.2       36.4      29.46      40.21       34.3       36.6       16.1      29.57        426       0.00       0.00       0.00      0.000
12:18am           194          1          3         43       74.1       36.4      29.46      40.21       36.4       36.6       16.1      29.57        427       0.00       0.00       0.00      0.000
12:19am           174          6          8         43       74.1       36.4      29.46      40.21       31.5       36.6       16.1      29.57        427       0.00       0.00       0.00      0.000
12:20am           194          1          5         43       74.2       36.4      29.46      40.21       36.4       36.6       16.1      29.57        429       0.00       0.00       0.00      0.000
12:21am           194          2          2         44       74.1       36.4      29.46      40.21       35.8       36.7       16.6      29.57        428       0.00       0.00       0.00      0.000
12:22am           154          2          4         43       74.1       36.4      29.46      40.21       35.8       36.6       16.1      29.57        430       0.00       0.00       0.00      0.000
12:23am           160          2          2         43       74.2       36.4      29.46      40.21       35.8       36.6       16.1      29.57        430       0.00       0.00       0.00      0.000
12:24am           173          2          4         43       74.1       36.4      29.46      40.21       35.8       36.6       16.1      29.57        430       0.00       0.00       0.00      0.000
12:25am           178          3          4         43       74.1       36.4      29.46      40.21       34.3       36.6       16.1      29.57        430       0.00       0.00       0.00      0.000
12:26am           154          4          6         43       74.1       36.4      29.46      40.21       33.2       36.6       16.1      29.57        430       0.00       0.00       0.00      0.000
12:27am           169          1          6         43       74.2       36.4      29.46      40.21       36.4       36.6       16.1      29.57        430       0.00       0.00       0.00      0.000
12:28am           242          4          8         43       74.2       36.4      29.46      40.21       33.2       36.6       16.1      29.56        432       0.00       0.00       0.00      0.000
12:29am           206          3          6         43       74.2       36.4      29.46      40.21       34.3       36.6       16.1      29.56        432       0.00       0.00       0.00      0.000
12:30am            66          4          4         44       74.1       36.4      29.45      40.21       33.2       36.7       16.6      29.56        433       0.00       0.00       0.00      0.000
12:31am           217          3          5         44       74.2       36.4      29.45      40.21       34.3       36.7       16.6      29.56        434       0.00       0.00       0.00      0.000
12:32am           172          2          5         44       74.1       36.4      29.45      40.21       35.8       36.7       16.6      29.56        434       0.00       0.00       0.00      0.000
12:33am           174          2          4         44       74.1       36.4      29.45      40.21       35.8       36.7       16.6      29.56        433       0.00       0.00       0.00      0.000
12:34am           179          4          4         44       74.2       36.4      29.45      40.21       33.2       36.7       16.6      29.56        434       0.00       0.00       0.00      0.000
12:35am            89          4          5         44       74.2       36.4      29.45      40.21       33.2       36.7       16.6      29.56        435       0.00       0.00       0.00      0.000
12:36am           165          2          6         44       74.2       36.4      29.45      40.21       35.8       36.7       16.6      29.56        436       0.00       0.00       0.00      0.000
12:37am           179          2          7         44       74.2       36.4      29.45      40.21       35.8       36.7       16.6      29.56        436       0.00       0.00       0.00      0.000
12:38am           155          3          5         44       74.1       36.4      29.45      40.21       34.3       36.7       16.6      29.56        436       0.00       0.00       0.00      0.000
12:39am           150          3          5         44       74.2       36.4      29.45      40.21       34.3       36.7       16.6      29.56        439       0.00       0.00       0.00      0.000
12:40am           194          4          5         44       74.2       36.4      29.45      40.21       33.2       36.7       16.6      29.56        438       0.00       0.00       0.00      0.000
12:41am           153          1          6         44       74.1       36.4      29.45      40.21       36.4       36.7       16.6      29.56        438       0.00       0.00       0.00      0.000
12:42am           176          1          4         44       74.2       36.4      29.45      40.21       36.4       36.7       16.6      29.56        438       0.00       0.00       0.00      0.000
12:43am           176          0          2         44       74.2       36.4      29.45      40.21       36.4       36.7       16.6      29.56        439       0.00       0.00       0.00      0.000
12:44am           207          3          4         44       74.2       36.4      29.45      40.21       34.3       36.7       16.6      29.56        441       0.00       0.00       0.00      0.000
12:45am           158          3          4         44       74.2       36.4      29.45      40.21       34.3       36.7       16.6      29.56        440       0.00       0.00       0.00      0.000
12:46am           208          4          6         44       74.2       36.4      29.45      40.21       33.2       36.7       16.6      29.56        440       0.00       0.00       0.00      0.000
12:47am           139          7          7         44       74.2       36.4      29.45      40.21       30.8       36.7       16.6      29.56        441       0.00       0.00       0.00      0.000
12:48am           172          5          7         44       74.2       36.4      29.45      40.21       32.2       36.7       16.6      29.56        441       0.00       0.00       0.00      0.000
12:49am           150          2          5         44       74.2       36.4      29.45      40.21       35.8       36.7       16.6      29.56        440       0.00       0.00       0.00      0.000
12:50am           195          6          9         44       74.2       36.5      29.45      40.21       31.6       36.8       16.7      29.56        440       0.00       0.00       0.00      0.000
12:51am           144          2          6         44       74.2       36.5      29.45      40.21       35.9       36.8       16.7      29.55        442       0.00       0.00       0.00      0.000
12:52am           236          5          5         44       74.2       36.5      29.45      40.21       32.4       36.8       16.7      29.55        442       0.00       0.00       0.00      0.000
12:53am           137          2          5         44       74.2       36.5      29.44      40.21       35.9       36.8       16.7      29.55        443       0.00       0.00       0.00      0.000
12:54am           156          5          7         44       74.2       36.5      29.44      40.21       32.4       36.8       16.7      29.55        444       0.00       0.00       0.00      0.000
12:55am           155          5          7         44       74.2       36.5      29.44      40.21       32.4       36.8       16.7      29.55        446       0.00       0.00       0.00      0.000
12:56am           119          5          6         44       74.2       36.5      29.44      40.21       32.4       36.8       16.7      29.55        446       0.00       0.00       0.00      0.000
12:57am           157          3          5         44       74.2       36.5      29.44      40.21       34.4       36.8       16.7      29.55        447       0.00       0.00       0.00      0.000
12:58am           196          2          3         44       74.2       36.5      29.44      40.21       35.9       36.8       16.7      29.55        447       0.00       0.00       0.00      0.000
12:59am           172          2          3         44       74.2       36.5      29.44      40.21       35.9       36.8       16.7      29.55        448       0.00       0.00       0.00      0.000
1:00am            157          4          4         44       74.2       36.5      29.44      40.21       33.3       36.8       16.7      29.55        449       0.00       0.00       0.00      0.000
1:01am            149          2          6         44       74.2       36.5      29.44      40.21       35.9       36.8       16.7      29.55        449       0.00       0.00       0.00      0.000
1:02am            117          3          5         44       74.2       36.5      29.44      40.21       34.4       36.8       16.7      29.55        449       0.00       0.00       0.00      0.000
1:03am            137          4          5         44       74.2       36.5      29.44      40.21       33.3       36.8       16.7      29.55        448       0.00       0.00       0.00      0.000
1:04am            125          3          4         44       74.2       36.5      29.44      40.21       34.4       36.8       16.7      29.55        449       0.00       0.00       0.00      0.000
1:05am            141          3          5         44       74.2       36.5      29.44      40.21       34.4       36.8       16.7      29.55        449       0.00       0.00       0.00      0.000
1:06am            157          3          4         44       74.2       36.6      29.44      40.21       34.5       36.9       16.8      29.55        449       0.00       0.00       0.00      0.000
1:07am            172          5          6         44       74.1       36.5      29.44      40.21       32.4       36.8       16.7      29.54        451       0.00       0.00       0.00      0.000
1:08am             98          3          7         44       74.1       36.6      29.44      40.21       34.5       36.9       16.8      29.54        451       0.00       0.00       0.00      0.000
1:09am            118          5          5         44       74.1       36.6      29.43      40.21       32.5       36.9       16.8      29.54        452       0.00       0.00       0.00      0.000
1:10am            141          5          8         44       74.1       36.6      29.43      40.21       32.5       36.9       16.8      29.54        452       0.00       0.00       0.00      0.000
1:11am            198          6          6         44       74.1       36.5      29.43      40.21       31.6       36.8       16.7      29.54        454       0.00       0.00       0.00      0.000
1:12am            162          3          6         44       74.1       36.5      29.43      40.21       34.4       36.8       16.7      29.54        455       0.00       0.00       0.00      0.000
1:13am            101          3          9         44       74.1       36.6      29.43      40.21       34.5       36.9       16.8      29.54        454       0.00       0.00       0.00      0.000
1:14am            157          7          8         44       74.1       36.6      29.43      40.21       31.0       36.9       16.8      29.54        454       0.00       0.00       0.00      0.000
1:15am            224          8          8         44       74.1       36.5      29.43      40.21       30.3       36.8       16.7      29.54        453       0.00       0.00       0.00      0.000
1:16am            129          3          8         44       74.1       36.6      29.43      40.21       34.5       36.9       16.8      29.54        453       0.00       0.00       0.00      0.000
1:17am            179          4          5         45       74.1       36.5      29.43      40.21       33.3       36.8       17.2      29.54        454       0.00       0.00       0.00      0.000
1:18am            176          0          4         45       74.1       36.5      29.43      40.21       36.5       36.8       17.2      29.54        457       0.00       0.00       0.00      0.000
1:19am            194          4          5         45       74.1       36.5      29.43      40.21       33.3       36.8       17.2      29.54        457       0.00       0.00       0.00      0.000
1:20am            155          4          4         45       74.1       36.5      29.43      40.21       33.3       36.8       17.2      29.54        455       0.00       0.00       0.00      0.000
1:21am            141          8          9         45       74.0       36.5      29.43      40.21       30.3       36.8       17.2      29.54        457       0.00       0.00       0.00      0.000
1:22am            139          4          8         45       74.0       36.5      29.43      40.21       33.3       36.8       17.2      29.54        458       0.00       0.00       0.00      0.000
1:23am            155          2          7         45       74.0       36.5      29.43      40.21       35.9       36.8       17.2      29.54        458       0.00       0.00       0.00      0.000
1:24am            129          9          9         45       74.0       36.5      29.43      40.21       29.8       36.8       17.2      29.54        458       0.00       0.00       0.00      0.000
1:25am            147          5          9         45       74.0       36.5      29.43      40.21       32.4       36.8       17.2      29.54        458       0.00       0.00       0.00      0.000
1:26am            234          5          9         45       74.1       36.5      29.43      40.21       32.4       36.8       17.2      29.53        459       0.00       0.00       0.00      0.000
1:27am            127          4          6         45       74.0       36.5      29.43      40.21       33.3       36.8       17.2      29.53        459       0.00       0.00       0.00      0.000
1:28am            175          6          7         45       74.0       36.5      29.43      40.21       31.6       36.8       17.2      29.53        459       0.00       0.00       0.00      0.000
1:29am            176          3          6         45       74.0       36.5      29.43      40.21       34.4       36.8       17.2      29.53        459       0.00       0.00       0.00      0.000
1:30am            130          1          3         45       74.0       36.5      29.43      40.21       36.5       36.8       17.2      29.53        459       0.00       0.00       0.00      0.000
1:31am            133          5          6         45       74.0       36.5      29.43      40.21       32.4       36.8       17.2      29.54        458       0.00       0.00       0.00      0.000
1:32am            198          7          7         45       74.0       36.5      29.43      40.21       30.9       36.8       17.2      29.54        458       0.00       0.00       0.00      0.000
1:33am             96          3          7         45       74.0       36.5      29.42      40.21       34.4       36.8       17.2      29.53        461       0.00       0.00       0.00      0.000
1:34am            148          3          4         45       74.0       36.5      29.42      40.21       34.4       36.8       17.2      29.53        462       0.00       0.00       0.00      0.000
1:35am            151          3          6         45       74.0       36.5      29.42      40.21       34.4       36.8       17.2      29.53        462       0.00       0.00       0.00      0.000
1:36am            144          2          3         45       74.0       36.5      29.42      40.21       35.9       36.8       17.2      29.53        464       0.00       0.00       0.00      0.000
1:37am            157          5          5         45       74.0       36.5      29.42      40.21       32.4       36.8       17.2      29.53        464       0.00       0.00       0.00      0.000
1:38am            131          2          7         45       74.0       36.5      29.42      40.21       35.9       36.8       17.2      29.53        466       0.00       0.00       0.00      0.000
1:39am            174          6          6         45       74.0       36.5      29.42      40.21       31.6       36.8       17.2      29.53        467       0.00       0.00       0.00      0.000
1:40am            197          1          6         45       73.9       36.5      29.42      40.21       36.5       36.8       17.2      29.53        467       0.00       0.00       0.00      0.000
1:41am            174          3          5         45       74.0       36.5      29.42      40.21       34.4       36.8       17.2      29.53        466       0.00       0.00       0.00      0.000
1:42am            143          3          5         45       73.9       36.5      29.42      40.21       34.4       36.8       17.2      29.53        465       0.00       0.00       0.00      0.000
1:43am            196          4          9         45       74.0       36.4      29.42      40.21       33.2       36.7       17.1      29.53        466       0.00       0.00       0.00      0.000
1:44am            160          3          4         45       73.9       36.5      29.42      40.21       34.4       36.8       17.2      29.53        465       0.00       0.00       0.00      0.000
1:45am             96          3          6         45       73.9       36.5      29.42      40.21       34.4       36.8       17.2      29.53        466       0.00       0.00       0.00      0.000
1:46am            159          1          6         45       73.9       36.5      29.42      40.21       36.5       36.8       17.2      29.53        466       0.00       0.00       0.00      0.000
1:47am            193          4          5         45       73.9       36.5      29.42      40.21       33.3       36.8       17.2      29.53        466       0.00       0.00       0.00      0.000
1:48am            158          2          5         45       73.9       36.5      29.42      40.21       35.9       36.8       17.2      29.53        466       0.00       0.00       0.00      0.000
1:49am            177          3          7         45       73.9       36.4      29.42      40.21       34.3       36.7       17.1      29.53        466       0.00       0.00       0.00      0.000
1:50am            157          5          6         45       73.9       36.5      29.42      40.21       32.4       36.8       17.2      29.53        467       0.00       0.00       0.00      0.000
1:51am            134          3          5         45       73.9       36.5      29.42      40.21       34.4       36.8       17.2      29.53        467       0.00       0.00       0.00      0.000
1:52am            233          6          6         46       73.9       36.4      29.42      40.21       31.5       36.8       17.6      29.53        468       0.00       0.00       0.00      0.000
1:53am            163          3          6         45       73.9       36.5      29.42      40.21       34.4       36.8       17.2      29.53        468       0.00       0.00       0.00      0.000
1:54am            163          1          3         45       73.9       36.5      29.42      40.21       36.5       36.8       17.2      29.53        468       0.00       0.00       0.00      0.000
1:55am            167          2          4         45       73.9       36.4      29.42      40.21       35.8       36.7       17.1      29.53        466       0.00       0.00       0.00      0.000
1:56am            203          2          3         46       73.9       36.4      29.42      40.21       35.8       36.8       17.6      29.53        466       0.00       0.00       0.00      0.000
1:57am            165          1          3         46       73.8       36.4      29.42      40.21       36.4       36.8       17.6      29.53        466       0.00       0.00       0.00      0.000
1:58am            221          2          3         46       73.8       36.4      29.42      40.21       35.8       36.8       17.6      29.53        468       0.00       0.00       0.00      0.000
1:59am            158          1          3         46       73.9       36.4      29.42      40.21       36.4       36.8       17.6      29.52        470       0.00       0.00       0.00      0.000
2:00am             97          3          3         46       73.9       36.4      29.42      40.21       34.3       36.8       17.6      29.52        470       0.00       0.00       0.00      0.000
2:01am            190          1          4         46       73.9       36.4      29.42      40.21       36.4       36.8       17.6      29.52        470       0.00       0.00       0.00      0.000
2:02am            172          1          4         46       73.9       36.4      29.41      40.21       36.4       36.8       17.6      29.52        471       0.00       0.00       0.00      0.000
2:03am            127          3          3         46       73.9       36.4      29.41      40.21       34.3       36.8       17.6      29.52        472       0.00       0.00       0.00      0.000
2:04am            145          3          6         46       73.9       36.3      29.41      40.21       34.2       36.7       17.5      29.52        472       0.00       0.00       0.00      0.000
2:05am            147          3          5         46       73.9       36.3      29.41      40.21       34.2       36.7       17.5      29.52        472       0.00       0.00       0.00      0.000
2:06am            157          3          8         46       73.9       36.3      29.41      40.21       34.2       36.7       17.5      29.52        472       0.00       0.00       0.00      0.000
2:07am            141          5          5         46       73.9       36.3      29.41      40.21       32.1       36.7       17.5      29.52        472       0.00       0.00       0.00      0.000
2:08am            139          3          5         46       73.9       36.3      29.41      40.21       34.2       36.7       17.5      29.52        474       0.00       0.00       0.00      0.000
2:09am            139          2          3         46       73.9       36.2      29.41      40.21       35.6       36.6       17.4      29.52        472       0.00       0.00       0.00      0.000
2:10am             96          3          4         46       73.9       36.2      29.41      40.21       34.1       36.6       17.4      29.52        472       0.00       0.00       0.00      0.000
2:11am            203          2          5         46       73.9       36.2      29.41      40.21       35.6       36.6       17.4      29.52        474       0.00       0.00       0.00      0.000
2:12am            150          1          3         47       73.9       36.2      29.41      40.21       36.2       36.7       17.9      29.52        474       0.00       0.00       0.00      0.000
2:13am            180          1          4         47       73.9       36.2      29.41      40.21       36.2       36.7       17.9      29.52        474       0.00       0.00       0.00      0.000
2:14am            159          3          4         47       73.9       36.2      29.41      40.21       34.1       36.7       17.9      29.52        476       0.00       0.00       0.00      0.000
2:15am            136          2          3         47       73.9       36.1      29.41      40.21       35.5       36.6       17.8      29.52        476       0.00       0.00       0.00      0.000
2:16am            143          3          3         47       73.9       36.1      29.41      40.21       34.0       36.6       17.8      29.52        475       0.00       0.00       0.00      0.000
2:17am            163          3          5         47       73.9       36.1      29.41      40.21       34.0       36.6       17.8      29.52        475       0.00       0.00       0.00      0.000
2:18am            150          3          5         47       73.9       36.1      29.41      40.21       34.0       36.6       17.8      29.52        475       0.00       0.00       0.00      0.000
2:19am            139          2          5         47       73.8       36.1      29.41      40.21       35.5       36.6       17.8      29.52        475       0.00       0.00       0.00      0.000
2:20am            139          4          6         47       73.9       36.0      29.41      40.21       32.7       36.5       17.7      29.52        475       0.00       0.00       0.00      0.000
2:21am            162          2          6         47       73.9       36.0      29.41      40.21       35.4       36.5       17.7      29.52        474       0.00       0.00       0.00      0.000
2:22am            148          2          5         47       73.9       36.0      29.41      40.21       35.4       36.5       17.7      29.52        475       0.00       0.00       0.00      0.000
2:23am            217          3          4         47       73.8       36.0      29.41      40.21       33.8       36.5       17.7      29.52        475       0.00       0.00       0.00      0.000
2:24am            184          2          3         47       73.8       36.0      29.41      40.21       35.4       36.5       17.7      29.52        477       0.00       0.00       0.00      0.000
2:25am            139          3          3         47       73.8       36.0      29.41      40.21       33.8       36.5       17.7      29.52        477       0.00       0.00       0.00      0.000
2:26am            198          3          4         47       73.8       36.0      29.41      40.21       33.8       36.5       17.7      29.51        478       0.00       0.00       0.00      0.000
2:27am            149          2          6         47       73.8       36.0      29.41      40.21       35.4       36.5       17.7      29.51        478       0.00       0.00       0.00      0.000
2:28am            150          4          5         48       73.8       36.0      29.41      40.21       32.7       36.6       18.2      29.52        477       0.00       0.00       0.00      0.000
2:29am            170          7          7         47       73.8       36.0      29.41      40.21       30.3       36.5       17.7      29.52        477       0.00       0.00       0.00      0.000
2:30am             85          4          7         47       73.9       36.0      29.41      40.21       32.7       36.5       17.7      29.52        477       0.00       0.00       0.00      0.000
2:31am            179          3          4         47       73.8       36.0      29.41      40.21       33.8       36.5       17.7      29.52        477       0.00       0.00       0.00      0.000
2:32am            178          1          5         47       73.8       36.0      29.41      40.21       36.0       36.5       17.7      29.51        478       0.00       0.00       0.00      0.000
2:33am            187          2          5         47       73.9       36.0      29.41      40.21       35.4       36.5       17.7      29.51        478       0.00       0.00       0.00      0.000
2:34am            164          2          3         47       73.8       36.0      29.41      40.21       35.4       36.5       17.7      29.52        476       0.00       0.00       0.00      0.000
2:35am            169          3          5         47       73.8       36.0      29.41      40.21       33.8       36.5       17.7      29.52        477       0.00       0.00       0.00      0.000
2:36am            144          4          4         48       73.8       36.0      29.41      40.21       32.7       36.6       18.2      29.52        477       0.00       0.00       0.00      0.000
2:37am             90          3          5         47       73.8       36.0      29.41      40.21       33.8       36.5       17.7      29.52        477       0.00       0.00       0.00      0.000
2:38am            106          2          4         48       73.8       36.0      29.41      40.21       35.4       36.6       18.2      29.51        478       0.00       0.00       0.00      0.000
2:39am            129          2          4         48       73.8       36.0      29.41      40.21       35.4       36.6       18.2      29.51        478       0.00       0.00       0.00      0.000
2:40am            153          3          4         48       73.8       35.9      29.41      40.21       33.7       36.5       18.1      29.51        478       0.00       0.00       0.00      0.000
2:41am            158          5          6         48       73.8       35.9      29.41      40.21       31.7       36.5       18.1      29.52        475       0.00       0.00       0.00      0.000
2:42am            165          2          5         48       73.8       35.9      29.41      40.21       35.3       36.5       18.1      29.52        476       0.00       0.00       0.00      0.000
2:43am            180          1          5         48       73.8       35.9      29.41      40.21       35.9       36.5       18.1      29.52        477       0.00       0.00       0.00      0.000
2:44am            165          2          4         48       73.8       35.9      29.41      40.21       35.3       36.5       18.1      29.52        477       0.00       0.00       0.00      0.000
2:45am            163          2          2         48       73.8       35.9      29.41      40.21       35.3       36.5       18.1      29.52        476       0.00       0.00       0.00      0.000
2:46am            186          4          7         48       73.8       35.9      29.41      40.21       32.6       36.5       18.1      29.52        477       0.00       0.00       0.00      0.000
2:47am            150          3          4         48       73.8       35.9      29.41      40.21       33.7       36.5       18.1      29.52        477       0.00       0.00       0.00      0.000
2:48am            143          2          6         48       73.8       35.9      29.41      40.21       35.3       36.5       18.1      29.52        477       0.00       0.00       0.00      0.000
2:49am            138          4          4         48       73.8       35.9      29.41      40.21       32.6       36.5       18.1      29.52        477       0.00       0.00       0.00      0.000
2:50am            120          2          4         48       73.8       35.9      29.41      40.21       35.3       36.5       18.1      29.52        477       0.00       0.00       0.00      0.000
2:51am            188          2          4         48       73.8       35.9      29.41      40.21       35.3       36.5       18.1      29.52        476       0.00       0.00       0.00      0.000
2:52am            124          4          6         48       73.8       35.9      29.41      40.21       32.6       36.5       18.1      29.52        476       0.00       0.00       0.00      0.000
2:53am            149          3          4         48       73.8       35.9      29.41      40.21       33.7       36.5       18.1      29.52        477       0.00       0.00       0.00      0.000
2:54am            161          3          4         48       73.8       35.9      29.41      40.21       33.7       36.5       18.1      29.52        476       0.00       0.00       0.00      0.000
2:55am            151          4          5         48       73.8       35.9      29.41      40.21       32.6       36.5       18.1      29.52        476       0.00       0.00       0.00      0.000
2:56am            141          3          4         48       73.8       35.9      29.41      40.21       33.7       36.5       18.1      29.52        477       0.00       0.00       0.00      0.000
2:57am            172          4          5         48       73.8       35.9      29.41      40.21       32.6       36.5       18.1      29.51        478       0.00       0.00       0.00      0.000
2:58am            156          5          6         48       73.8       35.9      29.41      40.21       31.7       36.5       18.1      29.51        478       0.00       0.00       0.00      0.000
2:59am            155          2          6         48       73.8       35.9      29.41      40.21       35.3       36.5       18.1      29.51        478       0.00       0.00       0.00      0.000
3:00am            143          2          3         48       73.8       35.9      29.41      40.21       35.3       36.5       18.1      29.52        476       0.00       0.00       0.00      0.000
3:01am            160          4          5         49       73.8       35.9      29.41      40.21       32.6       36.6       18.6      29.51        479       0.00       0.00       0.00      0.000
3:02am            165          2          4         49       73.7       35.9      29.41      40.21       35.3       36.6       18.6      29.51        479       0.00       0.00       0.00      0.000
3:03am            172          3          5         49       73.7       35.9      29.41      40.21       33.7       36.6       18.6      29.51        478       0.00       0.00       0.00      0.000
3:04am            138          3          3         49       73.7       35.9      29.41      40.21       33.7       36.6       18.6      29.51        479       0.00       0.00       0.00      0.000
3:05am            180          2          5         49       73.7       35.9      29.41      40.21       35.3       36.6       18.6      29.51        479       0.00       0.00       0.00      0.000
3:06am            174          3          4         49       73.7       35.9      29.40      40.21       33.7       36.6       18.6      29.51        480       0.00       0.00       0.00      0.000
3:07am            130          2          3         49       73.8       35.9      29.40      40.21       35.3       36.6       18.6      29.51        482       0.00       0.00       0.00      0.000
3:08am            168          3          5         49       73.7       35.9      29.40      40.21       33.7       36.6       18.6      29.51        482       0.00       0.00       0.00      0.000
3:09am             72          2          4         49       73.7       35.9      29.40      40.21       35.3       36.6       18.6      29.51        482       0.00       0.00       0.00      0.000
3:10am            130          3          4         49       73.7       35.9      29.40      40.21       33.7       36.6       18.6      29.51        482       0.00       0.00       0.00      0.000
3:11am            147          3          5         49       73.8       35.9      29.40      40.21       33.7       36.6       18.6      29.51        482       0.00       0.00       0.00      0.000
3:12am            144          1          3         49       73.8       35.9      29.40      40.21       35.9       36.6       18.6      29.51        481       0.00       0.00       0.00      0.000
3:13am            198          3          3         49       73.7       35.9      29.40      40.21       33.7       36.6       18.6      29.51        481       0.00       0.00       0.00      0.000
3:14am            183          3          3         49       73.7       35.9      29.40      40.21       33.7       36.6       18.6      29.51        483       0.00       0.00       0.00      0.000
3:15am            157          2          3         49       73.7       35.9      29.40      40.21       35.3       36.6       18.6      29.51        482       0.00       0.00       0.00      0.000
3:16am            116          2          3         49       73.8       35.9      29.40      40.21       35.3       36.6       18.6      29.51        483       0.00       0.00       0.00      0.000
3:17am            118          2          2         49       73.7       35.9      29.40      40.21       35.3       36.6       18.6      29.51        482       0.00       0.00       0.00      0.000
3:18am            177          1          4         49       73.7       35.9      29.40      40.21       35.9       36.6       18.6      29.51        483       0.00       0.00       0.00      0.000
3:19am            176          3          3         49       73.8       35.9      29.40      40.21       33.7       36.6       18.6      29.51        483       0.00       0.00       0.00      0.000
3:20am            142          2          4         49       73.8       35.9      29.40      40.21       35.3       36.6       18.6      29.51        484       0.00       0.00       0.00      0.000
3:21am            117          3          4         49       73.8       35.9      29.40      40.21       33.7       36.6       18.6      29.51        483       0.00       0.00       0.00      0.000
3:22am            169          2          5         49       73.8       35.9      29.40      40.21       35.3       36.6       18.6      29.51        483       0.00       0.00       0.00      0.000
3:23am            158          2          3         49       73.8       36.0      29.40      40.21       35.4       36.7       18.7      29.51        482       0.00       0.00       0.00      0.000
3:24am            149          2          4         49       73.8       35.9      29.40      40.21       35.3       36.6       18.6      29.51        482       0.00       0.00       0.00      0.000
3:25am            148          4          4         49       73.8       36.0      29.40      40.21       32.7       36.7       18.7      29.51        483       0.00       0.00       0.00      0.000
3:26am            141          4          4         49       73.8       36.0      29.40      40.21       32.7       36.7       18.7      29.51        483       0.00       0.00       0.00      0.000
3:27am            139          2          4         49       73.8       36.0      29.40      40.21       35.4       36.7       18.7      29.51        485       0.00       0.00       0.00      0.000
3:28am            153          4          4         49       73.8       36.0      29.40      40.21       32.7       36.7       18.7      29.51        484       0.00       0.00       0.00      0.000
3:29am            155          2          4         49       73.8       36.0      29.40      40.21       35.4       36.7       18.7      29.51        484       0.00       0.00       0.00      0.000
3:30am            153          2          4         49       73.8       36.0      29.40      40.21       35.4       36.7       18.7      29.51        484       0.00       0.00       0.00      0.000
3:31am            191          2          3         49       73.8       36.0      29.40      40.21       35.4       36.7       18.7      29.51        486       0.00       0.00       0.00      0.000
3:32am            156          3          3         49       73.8       36.0      29.40      40.21       33.8       36.7       18.7      29.51        486       0.00       0.00       0.00      0.000
3:33am            174          3          3         50       73.8       36.0      29.40      40.21       33.8       36.8       19.2      29.51        485       0.00       0.00       0.00      0.000
3:34am            178          2          4         50       73.8       36.0      29.40      40.21       35.4       36.8       19.2      29.51        485       0.00       0.00       0.00      0.000
3:35am            160          2          4         50       73.8       36.1      29.40      40.21       35.5       36.9       19.3      29.51        485       0.00       0.00       0.00      0.000
3:36am            139          2          3         50       73.8       36.0      29.40      40.21       35.4       36.8       19.2      29.51        486       0.00       0.00       0.00      0.000
3:37am            139          2          3         50       73.9       36.1      29.40      40.21       35.5       36.9       19.3      29.51        486       0.00       0.00       0.00      0.000
3:38am            138          4          4         50       73.8       36.1      29.40      40.21       32.8       36.9       19.3      29.51        486       0.00       0.00       0.00      0.000
3:39am            129          2          4         50       73.8       36.1      29.40      40.21       35.5       36.9       19.3      29.51        486       0.00       0.00       0.00      0.000
3:40am            156          2          3         50       73.8       36.1      29.40      40.21       35.5       36.9       19.3      29.50        487       0.00       0.00       0.00      0.000
3:41am            150          3          3         50       73.8       36.1      29.40      40.21       34.0       36.9       19.3      29.50        487       0.00       0.00       0.00      0.000
3:42am            150          0          3         50       73.8       36.1      29.40      40.21       36.1       36.9       19.3      29.50        487       0.00       0.00       0.00      0.000
3:43am            171          3          4         50       73.8       36.1      29.40      40.21       34.0       36.9       19.3      29.51        486       0.00       0.00       0.00      0.000
3:44am            162          2          4         50       73.8       36.1      29.40      40.21       35.5       36.9       19.3      29.50        487       0.00       0.00       0.00      0.000
3:45am            160          3          3         50       73.8       36.1      29.40      40.21       34.0       36.9       19.3      29.50        487       0.00       0.00       0.00      0.000
3:46am            148          2          4         50       73.8       36.1      29.40      40.21       35.5       36.9       19.3      29.50        487       0.00       0.00       0.00      0.000
3:47am            156          1          3         50       73.8       36.1      29.40      40.21       36.1       36.9       19.3      29.51        486       0.00       0.00       0.00      0.000
3:48am            153          3          3         50       73.8       36.2      29.40      40.21       34.1       37.0       19.4      29.51        486       0.00       0.00       0.00      0.000
3:49am            149          3          3         50       73.8       36.1      29.40      40.21       34.0       36.9       19.3      29.50        488       0.00       0.00       0.00      0.000
3:50am            165          3          4         50       73.8       36.2      29.39      40.21       34.1       37.0       19.4      29.50        489       0.00       0.00       0.00      0.000
3:51am            165          2          3         50       73.8       36.2      29.39      40.21       35.6       37.0       19.4      29.50        489       0.00       0.00       0.00      0.000
3:52am            165          2          2         50       73.8       36.2      29.39      40.21       35.6       37.0       19.4      29.50        489       0.00       0.00       0.00      0.000
3:53am            165          1          2         50       73.8       36.2      29.39      40.21       36.2       37.0       19.4      29.50        489       0.00       0.00       0.00      0.000
3:54am            161          3          3         50       73.8       36.2      29.39      40.21       34.1       37.0       19.4      29.50        489       0.00       0.00       0.00      0.000
3:55am            144          3          4         50       73.8       36.2      29.39      40.21       34.1       37.0       19.4      29.50        490       0.00       0.00       0.00      0.000
3:56am            162          5          5         50       73.8       36.2      29.39      40.21       32.0       37.0       19.4      29.50        490       0.00       0.00       0.00      0.000
3:57am            166          3          6         50       73.8       36.2      29.39      40.21       34.1       37.0       19.4      29.50        492       0.00       0.00       0.00      0.000
3:58am            177          2          3         50       73.8       36.2      29.40      40.21       35.6       37.0       19.4      29.50        488       0.00       0.00       0.00      0.000
3:59am            179          1          4         50       73.8       36.2      29.40      40.21       36.2       37.0       19.4      29.50        488       0.00       0.00       0.00      0.000
4:00am            179          1          2         50       73.8       36.2      29.40      40.21       36.2       37.0       19.4      29.50        488       0.00       0.00       0.00      0.000
4:01am            179          1          1         50       73.8       36.2      29.40      40.21       36.2       37.0       19.4      29.50        487       0.00       0.00       0.00      0.000
4:02am            179          1          2         50       73.8       36.2      29.40      40.21       36.2       37.0       19.4      29.50        487       0.00       0.00       0.00      0.000
4:03am            179          1          2         50       73.8       36.2      29.40      40.21       36.2       37.0       19.4      29.50        487       0.00       0.00       0.00      0.000
4:04am            193          2          4         50       73.8       36.2      29.40      40.21       35.6       37.0       19.4      29.50        487       0.00       0.00       0.00      0.000
4:05am            204          3          3         50       73.8       36.2      29.40      40.21       34.1       37.0       19.4      29.50        488       0.00       0.00       0.00      0.000
4:06am            204          2          3         50       73.8       36.2      29.40      40.21       35.6       37.0       19.4      29.50        488       0.00       0.00       0.00      0.000
4:07am            134          4          5         50       73.8       36.2      29.39      40.21       32.9       37.0       19.4      29.50        490       0.00       0.00       0.00      0.000
4:08am            138          2          4         50       73.8       36.2      29.39      40.21       35.6       37.0       19.4      29.50        491       0.00       0.00       0.00      0.000
4:09am            208          4          4         50       73.8       36.2      29.39      40.21       32.9       37.0       19.4      29.50        491       0.00       0.00       0.00      0.000
4:10am            144          2          5         50       73.8       36.3      29.39      40.21       35.7       37.1       19.5      29.50        491       0.00       0.00       0.00      0.000
4:11am            179          2          4         51       73.8       36.3      29.39      40.21       35.7       37.2       19.9      29.50        489       0.00       0.00       0.00      0.000
4:12am            158          3          4         51       73.8       36.3      29.39      40.21       34.2       37.2       19.9      29.50        492       0.00       0.00       0.00      0.000
4:13am            169          2          3         51       73.8       36.3      29.39      40.21       35.7       37.2       19.9      29.50        493       0.00       0.00       0.00      0.000
4:14am            169          2          3         50       73.8       36.3      29.39      40.21       35.7       37.1       19.5      29.50        491       0.00       0.00       0.00      0.000
4:15am            201          4          5         51       73.7       36.3      29.39      40.21       33.0       37.2       19.9      29.50        490       0.00       0.00       0.00      0.000
4:16am            200          2          4         50       73.8       36.3      29.39      40.21       35.7       37.1       19.5      29.50        490       0.00       0.00       0.00      0.000
4:17am            200          1          3         50       73.8       36.4      29.39      40.21       36.4       37.2       19.5      29.50        490       0.00       0.00       0.00      0.000
4:18am            200          1          1         51       73.8       36.4      29.39      40.21       36.4       37.3       20.0      29.50        490       0.00       0.00       0.00      0.000
4:19am            200          1          2         51       73.8       36.4      29.39      40.21       36.4       37.3       20.0      29.50        491       0.00       0.00       0.00      0.000
4:20am            162          4          4         51       73.7       36.4      29.39      40.21       33.2       37.3       20.0      29.50        491       0.00       0.00       0.00      0.000
4:21am            167          1          4         51       73.8       36.4      29.39      40.21       36.4       37.3       20.0      29.50        492       0.00       0.00       0.00      0.000
4:22am            136          2          3         51       73.8       36.4      29.39      40.21       35.8       37.3       20.0      29.50        493       0.00       0.00       0.00      0.000
4:23am            136          2          2         51       73.8       36.4      29.39      40.21       35.8       37.3       20.0      29.50        493       0.00       0.00       0.00      0.000
4:24am            136          1          2         51       73.8       36.4      29.39      40.21       36.4       37.3       20.0      29.50        492       0.00       0.00       0.00      0.000
4:25am            137          3          3         51       73.8       36.4      29.39      40.21       34.3       37.3       20.0      29.50        492       0.00       0.00       0.00      0.000
4:26am            137          2          3         51       73.7       36.4      29.39      40.21       35.8       37.3       20.0      29.50        492       0.00       0.00       0.00      0.000
4:27am            137          1          2         51       73.7       36.4      29.39      40.21       36.4       37.3       20.0      29.50        489       0.00       0.00       0.00      0.000
4:28am            195          2          3         51       73.7       36.4      29.40      40.21       35.8       37.3       20.0      29.51        486       0.00       0.00       0.00      0.000
4:29am            155          2          3         51       73.8       36.4      29.40      40.21       35.8       37.3       20.0      29.50        488       0.00       0.00       0.00      0.000
4:30am            162          1          3         51       73.8       36.4      29.40      40.21       36.4       37.3       20.0      29.50        487       0.00       0.00       0.00      0.000
4:31am            162          0          2         51       73.8       36.4      29.40      40.21       36.4       37.3       20.0      29.50        487       0.00       0.00       0.00      0.000
4:32am            162          2          3         51       73.8       36.4      29.40      40.21       35.8       37.3       20.0      29.50        487       0.00       0.00       0.00      0.000
4:33am            162          0          2         51       73.8       36.4      29.40      40.21       36.4       37.3       20.0      29.51        486       0.00       0.00       0.00      0.000
4:34am            162          2          2         51       73.8       36.4      29.40      40.21       35.8       37.3       20.0      29.50        487       0.00       0.00       0.00      0.000
4:35am            162          1          2         51       73.8       36.4      29.40      40.21       36.4       37.3       20.0      29.51        486       0.00       0.00       0.00      0.000
4:36am            162          0          1         51       73.8       36.4      29.40      40.21       36.4       37.3       20.0      29.51        486       0.00       0.00       0.00      0.000
4:37am            162          0          1         51       73.8       36.3      29.40      40.21       36.3       37.2       19.9      29.50        487       0.00       0.00       0.00      0.000
4:38am            162          0          0         51       73.7       36.3      29.40      40.21       36.3       37.2       19.9      29.51        486       0.00       0.00       0.00      0.000
4:39am            162          0          0         51       73.8       36.3      29.40      40.21       36.3       37.2       19.9      29.50        487       0.00       0.00       0.00      0.000
4:40am            162          0          0         51       73.8       36.3      29.40      40.21       36.3       37.2       19.9      29.50        487       0.00       0.00       0.00      0.000
4:41am            162          0          1         51       73.7       36.3      29.40      40.21       36.3       37.2       19.9      29.50        488       0.00       0.00       0.00      0.000
4:42am            162          0          1         51       73.8       36.2      29.39      40.21       36.2       37.1       19.8      29.50        489       0.00       0.00       0.00      0.000
4:43am            162          1          1         51       73.8       36.2      29.40      40.21       36.2       37.1       19.8      29.50        488       0.00       0.00       0.00      0.000
4:44am            162          0          2         51       73.7       36.2      29.40      40.21       36.2       37.1       19.8      29.50        488       0.00       0.00       0.00      0.000
4:45am            162          2          2         52       73.7       36.1      29.40      40.21       35.5       37.1       20.2      29.50        487       0.00       0.00       0.00      0.000
4:46am            162          0          2         51       73.8       36.1      29.40      40.21       36.1       37.0       19.7      29.51        486       0.00       0.00       0.00      0.000
4:47am            162          0          1         52       73.8       36.1      29.40      40.21       36.1       37.1       20.2      29.51        486       0.00       0.00       0.00      0.000
4:48am            162          0          1         52       73.7       36.1      29.40      40.21       36.1       37.1       20.2      29.51        486       0.00       0.00       0.00      0.000
4:49am            162          1          1         52       73.7       36.0      29.40      40.21       36.0       37.0       20.1      29.51        486       0.00       0.00       0.00      0.000
4:50am            162          1          1         52       73.7       36.0      29.40      40.21       36.0       37.0       20.1      29.51        486       0.00       0.00       0.00      0.000
4:51am            162          1          1         52       73.7       35.9      29.40      40.21       35.9       36.9       20.0      29.51        486       0.00       0.00       0.00      0.000
4:52am            162          0          1         52       73.7       35.9      29.40      40.21       35.9       36.9       20.0      29.51        483       0.00       0.00       0.00      0.000
4:53am            162          0          1         53       73.7       35.9      29.40      40.21       35.9       37.0       20.5      29.51        481       0.00       0.00       0.00      0.000
4:54am            162          0          1         53       73.7       35.9      29.41      40.21       35.9       37.0       20.5      29.51        478       0.00       0.00       0.00      0.000
4:55am            162          0          1         53       73.7       35.8      29.41      40.21       35.8       36.9       20.4      29.52        477       0.00       0.00       0.00      0.000
4:56am            162          0          0         53       73.7       35.8      29.41      40.21       35.8       36.9       20.4      29.51        478       0.00       0.00       0.00      0.000
4:57am            162          0          1         53       73.7       35.8      29.41      40.21       35.8       36.9       20.4      29.52        477       0.00       0.00       0.00      0.000
4:58am            162          0          1         53       73.7       35.8      29.41      40.21       35.8       36.9       20.4      29.51        478       0.00       0.00       0.00      0.000
4:59am            162          1          1         53       73.7       35.7      29.41      40.21       35.7       36.8       20.3      29.51        479       0.00       0.00       0.00      0.000
5:00am            162          1          2         53       73.7       35.7      29.41      40.21       35.7       36.8       20.3      29.51        479       0.00       0.00       0.00      0.000
5:01am            162          1          1         53       73.7       35.7      29.41      40.21       35.7       36.8       20.3      29.51        479       0.00       0.00       0.00      0.000
5:02am            162          1          2         53       73.7       35.7      29.41      40.21       35.7       36.8       20.3      29.52        477       0.00       0.00       0.00      0.000
5:03am            162          1          2         54       73.7       35.7      29.41      40.21       35.7       36.9       20.7      29.51        478       0.00       0.00       0.00      0.000
5:04am            162          1          2         54       73.7       35.7      29.41      40.21       35.7       36.9       20.7      29.51        479       0.00       0.00       0.00      0.000
5:05am            162          2          2         54       73.7       35.7      29.41      40.21       35.0       36.9       20.7      29.51        478       0.00       0.00       0.00      0.000
5:06am            162          1          2         54       73.7       35.6      29.40      40.21       35.6       36.8       20.6      29.51        482       0.00       0.00       0.00      0.000
5:07am            162          1          2         54       73.7       35.6      29.40      40.21       35.6       36.8       20.6      29.51        483       0.00       0.00       0.00      0.000
5:08am            162          2          3         54       73.7       35.6      29.40      40.21       34.9       36.8       20.6      29.51        484       0.00       0.00       0.00      0.000
5:09am            162          1          2         54       73.7       35.7      29.40      40.21       35.7       36.9       20.7      29.51        484       0.00       0.00       0.00      0.000
5:10am            162          0          1         54       73.7       35.7      29.41      40.21       35.7       36.9       20.7      29.51        479       0.00       0.00       0.00      0.000
5:11am            162          1          1         54       73.7       35.7      29.41      40.21       35.7       36.9       20.7      29.51        479       0.00       0.00       0.00      0.000
5:12am            162          1          1         54       73.7       35.7      29.41      40.21       35.7       36.9       20.7      29.51        479       0.00       0.00       0.00      0.000
5:13am            162          2          2         54       73.7       35.7      29.41      40.21       35.0       36.9       20.7      29.52        477       0.00       0.00       0.00      0.000
5:14am            162          2          2         54       73.7       35.7      29.41      40.21       35.0       36.9       20.7      29.52        475       0.00       0.00       0.00      0.000
5:15am            162          1          2         55       73.7       35.7      29.41      40.21       35.7       37.0       21.1      29.52        473       0.00       0.00       0.00      0.000
5:16am            162          1          1         55       73.7       35.7      29.41      40.21       35.7       37.0       21.1      29.52        472       0.00       0.00       0.00      0.000
5:17am            162          1          2         55       73.7       35.8      29.41      40.21       35.8       37.1       21.2      29.52        472       0.00       0.00       0.00      0.000
5:18am            224          4          4         55       73.7       35.8      29.42      40.21       32.5       37.1       21.2      29.53        468       0.00       0.00       0.00      0.000
5:19am            286          2          5         55       73.7       35.8      29.42      40.21       35.1       37.1       21.2      29.53        467       0.00       0.00       0.00      0.000
5:20am            247          2          4         55       73.7       35.9      29.42      40.21       35.3       37.2       21.3      29.53        465       0.00       0.00       0.00      0.000
5:21am            252          2          2         55       73.7       35.9      29.42      40.21       35.3       37.2       21.3      29.53        462       0.00       0.00       0.00      0.000
5:22am            252          2          2         55       73.7       35.9      29.43      40.21       35.3       37.2       21.3      29.53        459       0.00       0.00       0.00      0.000
5:23am            330          3          3         55       73.7       35.9      29.43      40.21       33.7       37.2       21.3      29.54        458       0.00       0.00       0.00      0.000
5:24am            261          2          5         55       73.7       36.0      29.43      40.21       35.4       37.3       21.4      29.54        458       0.00       0.00       0.00      0.000
5:25am            261          2          2         55       73.7       36.0      29.43      40.21       35.4       37.3       21.4      29.54        456       0.00       0.00       0.00      0.000
5:26am            256          3          8         55       73.7       36.1      29.43      40.21       34.0       37.4       21.5      29.53        460       0.00       0.00       0.00      0.000
5:27am            175          2          5         55       73.7       36.2      29.42      40.21       35.6       37.5       21.6      29.53        462       0.00       0.00       0.00      0.000
5:28am            179          2          6         55       73.7       36.2      29.42      40.21       35.6       37.5       21.6      29.53        465       0.00       0.00       0.00      0.000
5:29am            210          2          5         54       73.8       36.3      29.42      40.21       35.7       37.5       21.3      29.53        466       0.00       0.00       0.00      0.000
5:30am            237          7         10         54       73.8       36.4      29.43      40.21       30.8       37.6       21.4      29.53        460       0.00       0.00       0.00      0.000
5:31am            241          5          7         54       73.8       36.5      29.43      40.21       32.4       37.7       21.4      29.54        457       0.00       0.00       0.00      0.000
5:32am            296          5          5         54       73.8       36.6      29.43      40.21       32.5       37.8       21.5      29.54        457       0.00       0.00       0.00      0.000
5:33am            251          1          5         53       73.7       36.7      29.43      40.21       36.7       37.8       21.2      29.54        455       0.00       0.00       0.00      0.000
5:34am            251          0          1         53       73.7       36.7      29.43      40.21       36.7       37.8       21.2      29.54        455       0.00       0.00       0.00      0.000
5:35am            269          4          5         53       73.7       36.8      29.43      40.21       33.6       37.9       21.3      29.54        457       0.00       0.00       0.00      0.000
5:36am            218          4          5         52       73.7       36.9      29.43      40.21       33.7       37.9       20.9      29.53        459       0.00       0.00       0.00      0.000
5:37am            202          1          4         52       73.7       36.9      29.42      40.21       36.9       37.9       20.9      29.53        461       0.00       0.00       0.00      0.000
5:38am            313          2          2         52       73.7       36.9      29.42      40.21       36.4       37.9       20.9      29.53        461       0.00       0.00       0.00      0.000
5:39am            191          2          5         52       73.8       37.0      29.42      40.21       36.5       38.0       21.0      29.53        468       0.00       0.00       0.00      0.000
5:40am            184          3          7         52       73.8       37.0      29.42      40.21       35.0       38.0       21.0      29.53        466       0.00       0.00       0.00      0.000
5:41am            137          1          4         52       73.8       37.1      29.42      40.21       37.1       38.1       21.1      29.53        461       0.00       0.00       0.00      0.000
5:42am            181          1          3         51       73.8       37.1      29.42      40.21       37.1       38.0       20.7      29.53        461       0.00       0.00       0.00      0.000
5:43am            168          3          4         51       73.8       37.1      29.43      40.21       35.1       38.0       20.7      29.54        457       0.00       0.00       0.00      0.000
5:44am            179          3          5         52       73.8       37.1      29.43      40.21       35.1       38.1       21.1      29.54        457       0.00       0.00       0.00      0.000
5:45am            179          3          5         52       73.8       37.2      29.43      40.21       35.2       38.2       21.2      29.54        457       0.00       0.00       0.00      0.000
5:46am            227          4          5         51       73.8       37.2      29.43      40.21       34.1       38.1       20.8      29.54        453       0.00       0.00       0.00      0.000
5:47am            284          2          4         51       73.8       37.2      29.44      40.21       36.7       38.1       20.8      29.55        446       0.00       0.00       0.00      0.000
5:48am            235          3          3         51       73.8       37.3      29.44      40.21       35.3       38.2       20.8      29.55        444       0.00       0.00       0.00      0.000
5:49am            235          2          3         51       73.8       37.3      29.44      40.21       36.8       38.2       20.8      29.55        447       0.00       0.00       0.00      0.000
5:50am            216          1          4         51       73.8       37.3      29.44      40.21       37.3       38.2       20.8      29.55        447       0.00       0.00       0.00      0.000
5:51am            188          2          2         51       73.8       37.3      29.43      40.21       36.8       38.2       20.8      29.54        453       0.00       0.00       0.00      0.000
5:52am            175          2          5         51       73.8       37.3      29.43      40.21       36.8       38.2       20.8      29.54        454       0.00       0.00       0.00      0.000
5:53am            172          7          7         51       73.8       37.3      29.43      40.21       31.9       38.2       20.8      29.54        454       0.00       0.00       0.00      0.000
5:54am            218          3          7         51       73.8       37.3      29.43      40.21       35.3       38.2       20.8      29.54        452       0.00       0.00       0.00      0.000
5:55am            285          3          4         51       73.8       37.3      29.45      40.21       35.3       38.2       20.8      29.55        442       0.00       0.00       0.00      0.000
5:56am            298          2          5         51       73.8       37.4      29.45      40.21       36.9       38.3       20.9      29.56        438       0.00       0.00       0.00      0.000
5:57am            285          2          3         51       73.8       37.4      29.45      40.21       36.9       38.3       20.9      29.56        438       0.00       0.00       0.00      0.000
5:58am            284          2          3         51       73.8       37.4      29.45      40.21       36.9       38.3       20.9      29.55        442       0.00       0.00       0.00      0.000
5:59am            238          2          4         51       73.8       37.4      29.45      40.21       36.9       38.3       20.9      29.55        442       0.00       0.00       0.00      0.000
6:00am            210          2          5         51       73.8       37.4      29.44      40.21       36.9       38.3       20.9      29.55        443       0.00       0.00       0.00      0.000
6:01am            219          4          6         51       73.8       37.4      29.45      40.21       34.3       38.3       20.9      29.55        442       0.00       0.00       0.00      0.000
6:02am            193          3          5         51       73.8       37.4      29.44      40.21       35.4       38.3       20.9      29.55        443       0.00       0.00       0.00      0.000
6:03am            234          4          4         51       73.8       37.4      29.44      40.21       34.3       38.3       20.9      29.55        443       0.00       0.00       0.00      0.000
6:04am            252          2          5         51       73.8       37.4      29.45      40.21       36.9       38.3       20.9      29.56        441       0.00       0.00       0.00      0.000
6:05am            244          2          4         50       73.8       37.4      29.45      40.21       36.9       38.2       20.5      29.56        441       0.00       0.00       0.00      0.000
6:06am            277          4          8         50       73.8       37.4      29.46      40.21       34.3       38.2       20.5      29.57        431       0.00       0.00       0.00      0.000
6:07am            275          2          5         50       73.8       37.4      29.45      40.21       36.9       38.2       20.5      29.56        433       0.00       0.00       0.00      0.000
6:08am            275          1          3         50       73.8       37.5      29.45      40.21       37.5       38.3       20.6      29.56        441       0.00       0.00       0.00      0.000
6:09am            174          2          4         50       73.8       37.5      29.44      40.21       37.0       38.3       20.6      29.55        446       0.00       0.00       0.00      0.000
6:10am            226          2          6         50       73.9       37.4      29.44      40.21       36.9       38.2       20.5      29.55        444       0.00       0.00       0.00      0.000
6:11am            268          3          4         50       73.9       37.5      29.44      40.21       35.5       38.3       20.6      29.55        444       0.00       0.00       0.00      0.000
6:12am            274          3          5         50       73.9       37.4      29.46      40.21       35.4       38.2       20.5      29.56        432       0.00       0.00       0.00      0.000
6:13am            263          2          5         50       73.9       37.4      29.46      40.21       36.9       38.2       20.5      29.57        430       0.00       0.00       0.00      0.000
6:14am            300          3          4         50       73.9       37.4      29.46      40.21       35.4       38.2       20.5      29.56        432       0.00       0.00       0.00      0.000
6:15am            211          4          4         50       73.9       37.5      29.45      40.21       34.4       38.3       20.6      29.56        435       0.00       0.00       0.00      0.000
6:16am            187          3          4         50       73.9       37.4      29.45      40.21       35.4       38.2       20.5      29.56        435       0.00       0.00       0.00      0.000
6:17am            182          1          4         50       73.9       37.4      29.45      40.21       37.4       38.2       20.5      29.56        434       0.00       0.00       0.00      0.000
6:18am            246          3          5         50       73.9       37.4      29.46      40.21       35.4       38.2       20.5      29.57        429       0.00       0.00       0.00      0.000
6:19am            231          3          4         50       73.9       37.4      29.46      40.21       35.4       38.2       20.5      29.57        430       0.00       0.00       0.00      0.000
6:20am            337          2          5         50       73.9       37.4      29.46      40.21       36.9       38.2       20.5      29.57        430       0.00       0.00       0.00      0.000
6:21am            337          1          3         50       73.9       37.4      29.46      40.21       37.4       38.2       20.5      29.57        427       0.00       0.00       0.00      0.000
6:22am            262          2          3         50       74.0       37.4      29.46      40.21       36.9       38.2       20.5      29.57        424       0.00       0.00       0.00      0.000
6:23am            262          2          2         50       74.0       37.4      29.47      40.21       36.9       38.2       20.5      29.58        422       0.00       0.00       0.00      0.000
6:24am            262          3          3         50       73.9       37.4      29.47      40.21       35.4       38.2       20.5      29.58        421       0.00       0.00       0.00      0.000
6:25am            262          1          3         50       74.0       37.4      29.46      40.21       37.4       38.2       20.5      29.57        425       0.00       0.00       0.00      0.000
6:26am            258          2          2         50       74.0       37.3      29.46      40.21       36.8       38.1       20.4      29.57        425       0.00       0.00       0.00      0.000
6:27am            233          1          4         50       74.0       37.3      29.47      40.21       37.3       38.1       20.4      29.58        420       0.00       0.00       0.00      0.000
6:28am            233          2          2         51       74.0       37.3      29.47      40.21       36.8       38.2       20.8      29.58        418       0.00       0.00       0.00      0.000
6:29am            235          2          2         51       74.0       37.3      29.47      40.21       36.8       38.2       20.8      29.58        417       0.00       0.00       0.00      0.000
6:30am            221          3          4         51       74.0       37.2      29.47      40.21       35.2       38.1       20.8      29.58        416       0.00       0.00       0.00      0.000
6:31am            236          4          5         50       74.1       37.2      29.47      40.21       34.1       38.0       20.3      29.58        418       0.00       0.00       0.00      0.000
6:32am            206          0          4         51       74.0       37.1      29.47      40.21       37.1       38.0       20.7      29.58        420       0.00       0.00       0.00      0.000
6:33am            206          1          1         51       74.1       37.1      29.47      40.21       37.1       38.0       20.7      29.58        416       0.00       0.00       0.00      0.000
6:34am            206          3          3         51       74.1       37.1      29.47      40.21       35.1       38.0       20.7      29.58        418       0.00       0.00       0.00      0.000
6:35am            205          0          3         51       74.1       37.1      29.47      40.21       37.1       38.0       20.7      29.58        418       0.00       0.00       0.00      0.000
6:36am            205          2          2         51       74.1       37.1      29.47      40.21       36.6       38.0       20.7      29.58        415       0.00       0.00       0.00      0.000
6:37am            205          1          3         51       74.1       37.0      29.48      40.21       37.0       37.9       20.6      29.59        410       0.00       0.00       0.00      0.000
6:38am            205          1          2         51       74.1       37.0      29.48      40.21       37.0       37.9       20.6      29.59        410       0.00       0.00       0.00      0.000
6:39am            205          1          2         51       74.2       37.0      29.48      40.21       37.0       37.9       20.6      29.59        410       0.00       0.00       0.00      0.000
6:40am            205          4          4         51       74.1       37.0      29.48      40.21       33.9       37.9       20.6      29.59        412       0.00       0.00       0.00      0.000
6:41am            212          2          5         51       74.2       37.0      29.48      40.21       36.5       37.9       20.6      29.59        411       0.00       0.00       0.00      0.000
6:42am            213          3          3         51       74.1       37.0      29.48      40.21       35.0       37.9       20.6      29.58        413       0.00       0.00       0.00      0.000
6:43am            210          1          3         51       74.1       36.9      29.48      40.21       36.9       37.8       20.5      29.59        409       0.00       0.00       0.00      0.000
6:44am            219          3          3         51       74.2       37.0      29.48      40.21       35.0       37.9       20.6      29.59        405       0.00       0.00       0.00      0.000
6:45am            259          3          3         51       74.2       36.9      29.48      40.21       34.9       37.8       20.5      29.59        405       0.00       0.00       0.00      0.000
6:46am            245          2          3         51       74.2       36.9      29.49      40.21       36.4       37.8       20.5      29.60        402       0.00       0.00       0.00      0.000
6:47am            238          0          5         51       74.2       36.9      29.49      40.21       36.9       37.8       20.5      29.59        403       0.00       0.00       0.00      0.000
6:48am            197          3          3         51       74.2       36.9      29.49      40.21       34.9       37.8       20.5      29.60        402       0.00       0.00       0.00      0.000
6:49am            206          3          4         51       74.2       36.9      29.49      40.21       34.9       37.8       20.5      29.60        402       0.00       0.00       0.00      0.000
6:50am            236          3          6         51       74.2       36.9      29.49      40.21       34.9       37.8       20.5      29.60        402       0.00       0.00       0.00      0.000
6:51am            237          2          3         52       74.2       36.9      29.49      40.21       36.4       37.9       20.9      29.60        401       0.00       0.00       0.00      0.000
6:52am            237          1          3         52       74.2       36.9      29.49      40.21       36.9       37.9       20.9      29.60        401       0.00       0.00       0.00      0.000
6:53am            237          1          2         52       74.2       36.9      29.49      40.21       36.9       37.9       20.9      29.60        400       0.00       0.00       0.00      0.000
6:54am            237          1          2         51       74.2       36.9      29.49      40.21       36.9       37.8       20.5      29.60        399       0.00       0.00       0.00      0.000
6:55am            237          1          1         51       74.2       36.9      29.49      40.21       36.9       37.8       20.5      29.60        397       0.00       0.00       0.00      0.000
6:56am            237          1          2         51       74.3       36.9      29.49      40.21       36.9       37.8       20.5      29.60        398       0.00       0.00       0.00      0.000
6:57am            237          0          2         51       74.3       36.8      29.49      40.21       36.8       37.7       20.4      29.60        397       0.00       0.00       0.00      0.000
6:58am            237          1          2         51       74.3       36.8      29.50      40.21       36.8       37.7       20.4      29.60        394       0.00       0.00       0.00      0.000
6:59am            237          1          2         51       74.3       36.8      29.50      40.21       36.8       37.7       20.4      29.60        394       0.00       0.00       0.00      0.000
7:00am            237          1          1         51       74.3       36.8      29.50      40.21       36.8       37.7       20.4      29.61        391       0.00       0.00       0.00      0.000
7:01am            255          2          3         51       74.3       36.8      29.50      40.21       36.2       37.7       20.4      29.61        390       0.00       0.00       0.00      0.000
7:02am            255          2          3         51       74.4       36.8      29.50      40.21       36.2       37.7       20.4      29.61        389       0.00       0.00       0.00      0.000
7:03am            255          1          2         51       74.4       36.8      29.50      40.21       36.8       37.7       20.4      29.61        389       0.00       0.00       0.00      0.000
7:04am            296          1          3         51       74.4       36.7      29.50      40.21       36.7       37.6       20.3      29.61        388       0.00       0.00       0.00      0.000
7:05am            296          1          2         51       74.4       36.7      29.50      40.21       36.7       37.6       20.3      29.61        388       0.00       0.00       0.00      0.000
7:06am            296          1          2         51       74.4       36.7      29.50      40.21       36.7       37.6       20.3      29.61        388       0.00       0.00       0.00      0.000
7:07am            296          0          2         51       74.4       36.7      29.50      40.21       36.7       37.6       20.3      29.61        388       0.00       0.00       0.00      0.000
7:08am            296          1          1         51       74.4       36.7      29.50      40.21       36.7       37.6       20.3      29.61        388       0.00       0.00       0.00      0.000
7:09am            296          0          1         51       74.4       36.6      29.50      40.21       36.6       37.5       20.2      29.61        388       0.00       0.00       0.00      0.000
7:10am            296          1          1         51       74.4       36.6      29.51      40.21       36.6       37.5       20.2      29.61        386       0.00       0.00       0.00      0.000
7:11am            296          1          2         51       74.4       36.6      29.51      40.21       36.6       37.5       20.2      29.62        384       0.00       0.00       0.00      0.000
7:12am            296          1          1         51       74.4       36.6      29.51      40.21       36.6       37.5       20.2      29.62        383       0.00       0.00       0.00      0.000
7:13am            296          1          1         51       74.4       36.6      29.51      40.21       36.6       37.5       20.2      29.62        382       0.00       0.00       0.00      0.000
7:14am            296          0          1         51       74.4       36.5      29.51      40.21       36.5       37.4       20.1      29.62        381       0.00       0.00       0.00      0.000
7:15am            296          0          0         51       74.4       36.6      29.51      40.21       36.6       37.5       20.2      29.62        379       0.00       0.00       0.00      0.000
7:16am            296          0          0         51       74.4       36.5      29.51      40.21       36.5       37.4       20.1      29.62        379       0.00       0.00       0.00      0.000
7:17am            296          0          0         51       74.4       36.5      29.51      40.21       36.5       37.4       20.1      29.62        378       0.00       0.00       0.00      0.000
7:18am            296          0          0         52       74.4       36.5      29.51      40.21       36.5       37.5       20.6      29.62        378       0.00       0.00       0.00      0.000
7:19am            296          0          0         52       74.4       36.5      29.51      40.21       36.5       37.5       20.6      29.62        378       0.00       0.00       0.00      0.000
7:20am            296          0          0         52       74.4       36.5      29.51      40.21       36.5       37.5       20.6      29.62        377       0.00       0.00       0.00      0.000
7:21am            296          0          0         52       74.4       36.5      29.52      40.21       36.5       37.5       20.6      29.62        375       0.00       0.00       0.00      0.000
7:22am            296          0          0         52       74.4       36.4      29.52      40.21       36.4       37.4       20.5      29.62        375       0.00       0.00       0.00      0.000
7:23am            296          0          0         52       74.4       36.4      29.52      40.21       36.4       37.4       20.5      29.63        374       0.00       0.00       0.00      0.000
7:24am            296          0          0         52       74.4       36.4      29.52      40.21       36.4       37.4       20.5      29.63        374       0.00       0.00       0.00      0.000
7:25am            296          0          0         52       74.4       36.4      29.52      40.21       36.4       37.4       20.5      29.63        371       0.00       0.00       0.00      0.000
7:26am            296          0          0         52       74.4       36.4      29.52      40.21       36.4       37.4       20.5      29.63        370       0.00       0.00       0.00      0.000
7:27am            296          0          0         52       74.4       36.3      29.52      40.21       36.3       37.3       20.4      29.63        369       0.00       0.00       0.00      0.000
7:28am            296          0          0         52       74.4       36.3      29.52      40.21       36.3       37.3       20.4      29.63        373       0.00       0.00       0.00      0.000
7:29am            296          0          0         52       74.4       36.3      29.52      40.21       36.3       37.3       20.4      29.63        370       0.00       0.00       0.00      0.000
7:30am            296          1          2         52       74.4       36.3      29.53      40.21       36.3       37.3       20.4      29.63        367       0.00       0.00       0.00      0.000
7:31am            296          1          2         52       74.4       36.2      29.52      40.21       36.2       37.2       20.3      29.63        370       0.00       0.00       0.00      0.000
7:32am            296          0          1         52       74.4       36.2      29.53      40.21       36.2       37.2       20.3      29.63        367       0.00       0.00       0.00      0.000
7:33am            296          1          2         52       74.3       36.1      29.53      40.21       36.1       37.1       20.2      29.63        367       0.00       0.00       0.00      0.000
7:34am            296          1          2         52       74.3       36.2      29.52      40.21       36.2       37.2       20.3      29.63        368       0.00       0.00       0.00      0.000
7:35am            296          1          1         52       74.3       36.1      29.53      40.21       36.1       37.1       20.2      29.64        366       0.00       0.00       0.00      0.000
7:36am            296          1          1         52       74.3       36.1      29.53      40.21       36.1       37.1       20.2      29.64        365       0.00       0.00       0.00      0.000
7:37am            296          0          1         53       74.3       36.1      29.53      40.21       36.1       37.2       20.6      29.64        364       0.00       0.00       0.00      0.000
7:38am            296          1          1         53       74.3       36.0      29.53      40.21       36.0       37.1       20.5      29.64        363       0.00       0.00       0.00      0.000
7:39am            255          3          3         53       74.4       36.0      29.53      40.21       33.8       37.1       20.5      29.64        361       0.00       0.00       0.00      0.000
7:40am            255          1          2         53       74.4       36.0      29.53      40.21       36.0       37.1       20.5      29.64        361       0.00       0.00       0.00      0.000
7:41am            255          1          2         53       74.3       36.0      29.53      40.21       36.0       37.1       20.5      29.64        361       0.00       0.00       0.00      0.000
7:42am            255          1          2         53       74.4       35.9      29.53      40.21       35.9       37.0       20.5      29.64        359       0.00       0.00       0.00      0.000
7:43am            255          1          2         53       74.4       35.9      29.54      40.21       35.9       37.0       20.5      29.64        358       0.00       0.00       0.00      0.000
7:44am            255          2          3         53       74.4       35.9      29.54      40.21       35.3       37.0       20.5      29.64        358       0.00       0.00       0.00      0.000
7:45am            277          1          3         53       74.4       35.8      29.54      40.21       35.8       36.9       20.4      29.65        357       0.00       0.00       0.00      0.000
7:46am            277          0          1         53       74.4       35.8      29.54      40.21       35.8       36.9       20.4      29.65        357       0.00       0.00       0.00      0.000
7:47am            277          0          1         53       74.4       35.8      29.54      40.21       35.8       36.9       20.4      29.65        355       0.00       0.00       0.00      0.000
7:48am            277          0          0         54       74.3       35.8      29.54      40.21       35.8       37.0       20.8      29.65        354       0.00       0.00       0.00      0.000
7:49am            277          1          2         54       74.4       35.7      29.54      40.21       35.7       36.9       20.7      29.65        353       0.00       0.00       0.00      0.000
7:50am            277          1          1         54       74.3       35.8      29.54      40.21       35.8       37.0       20.8      29.65        355       0.00       0.00       0.00      0.000
7:51am            264          2          3         54       74.3       35.7      29.54      40.21       35.0       36.9       20.7      29.65        355       0.00       0.00       0.00      0.000
7:52am            264          2          4         54       74.3       35.8      29.54      40.21       35.1       37.0       20.8      29.65        355       0.00       0.00       0.00      0.000
7:53am            264          0          2         54       74.3       35.8      29.54      40.21       35.8       37.0       20.8      29.65        354       0.00       0.00       0.00      0.000
7:54am            264          2          2         54       74.4       35.8      29.54      40.21       35.1       37.0       20.8      29.65        353       0.00       0.00       0.00      0.000
7:55am            248          1          3         55       74.3       35.8      29.54      40.21       35.8       37.1       21.2      29.65        353       0.00       0.00       0.00      0.000
7:56am            248          0          1         55       74.3       35.8      29.54      40.21       35.8       37.1       21.2      29.65        353       0.00       0.00       0.00      0.000
7:57am            248          2          2         55       74.3       35.8      29.54      40.21       35.1       37.1       21.2      29.65        353       0.00       0.00       0.00      0.000
7:58am            248          1          2         55       74.3       35.9      29.54      40.21       35.9       37.2       21.3      29.65        353       0.00       0.00       0.00      0.000
7:59am            210          1          3         55       74.4       35.9      29.54      40.21       35.9       37.2       21.3      29.65        350       0.00       0.00       0.00      0.000
8:00am            210          1          2         55       74.4       35.9      29.54      40.21       35.9       37.2       21.3      29.65        350       0.00       0.00       0.00      0.000
8:01am            210          2          2         55       74.4       35.9      29.54      40.21       35.3       37.2       21.3      29.65        349       0.00       0.00       0.00      0.000
8:02am            210          1          2         55       74.3       36.0      29.54      40.21       36.0       37.3       21.4      29.65        349       0.00       0.00       0.00      0.000
8:03am            210          0          1         55       74.4       36.0      29.55      40.21       36.0       37.3       21.4      29.65        348       0.00       0.00       0.00      0.000
8:04am            210          1          2         55       74.4       36.0      29.55      40.21       36.0       37.3       21.4      29.65        348       0.00       0.00       0.00      0.000
8:05am            212          2          2         55       74.3       36.1      29.55      40.21       35.5       37.4       21.5      29.65        348       0.00       0.00       0.00      0.000
8:06am            212          1          2         55       74.4       36.1      29.55      40.21       36.1       37.4       21.5      29.66        347       0.00       0.00       0.00      0.000
8:07am            212          0          2         55       74.3       36.2      29.55      40.21       36.2       37.5       21.6      29.66        346       0.00       0.00       0.00      0.000
8:08am            212          0          0         55       74.4       36.2      29.55      40.21       36.2       37.5       21.6      29.66        345       0.00       0.00       0.00      0.000
8:09am            212          0          0         55       74.3       36.2      29.55      40.21       36.2       37.5       21.6      29.66        345       0.00       0.00       0.00      0.000
8:10am            235          0          0         55       74.4       36.2      29.55      40.21       36.2       37.5       21.6      29.66        345       0.00       0.00       0.00      0.000
8:11am            250          0          0         55       74.4       36.2      29.55      40.21       36.2       37.5       21.6      29.66        344       0.00       0.00       0.00      0.000
8:12am            261          2          2         55       74.4       36.2      29.55      40.21       35.6       37.5       21.6      29.66        342       0.00       0.00       0.00      0.000
8:13am            261          2          3         55       74.4       36.2      29.55      40.21       35.6       37.5       21.6      29.66        341       0.00       0.00       0.00      0.000
8:14am            261          1          2         55       74.4       36.3      29.56      40.21       36.3       37.6       21.7      29.66        339       0.00       0.00       0.00      0.000
8:15am            262          1          2         55       74.4       36.3      29.55      40.21       36.3       37.6       21.7      29.66        341       0.00       0.00       0.00      0.000
8:16am            270          1          4         55       74.4       36.3      29.56      40.21       36.3       37.6       21.7      29.67        337       0.00       0.00       0.00      0.000
8:17am            270          1          2         55       74.4       36.4      29.56      40.21       36.4       37.7       21.8      29.66        339       0.00       0.00       0.00      0.000
8:18am            270          1          2         55       74.4       36.4      29.56      40.21       36.4       37.7       21.8      29.67        337       0.00       0.00       0.00      0.000
8:19am            268          2          4         56       74.5       36.4      29.56      40.21       35.8       37.8       22.2      29.67        334       0.00       0.00       0.00      0.000
8:20am            283          1          3         56       74.5       36.4      29.56      40.21       36.4       37.8       22.2      29.67        334       0.00       0.00       0.00      0.000
8:21am            283          1          2         56       74.5       36.5      29.56      40.21       36.5       37.9       22.3      29.67        332       0.00       0.00       0.00      0.000
8:22am            252          1          3         56       74.5       36.5      29.56      40.21       36.5       37.9       22.3      29.67        331       0.00       0.00       0.00      0.000
8:23am            246          4          4         56       74.5       36.5      29.56      40.21       33.3       37.9       22.3      29.67        331       0.00       0.00       0.00      0.000
8:24am            229          3          4         56       74.5       36.6      29.57      40.21       34.5       38.0       22.4      29.68        328       0.00       0.00       0.00      0.000
8:25am            249          1          3         57       74.5       36.6      29.57      40.21       36.6       38.1       22.8      29.67        330       0.00       0.00       0.00      0.000
8:26am            238          4          4         57       74.4       36.7      29.57      40.21       33.5       38.2       22.9      29.68        328       0.00       0.00       0.00      0.000
8:27am            274          4          4         57       74.5       36.8      29.57      40.21       33.6       38.3       23.0      29.68        328       0.00       0.00       0.00      0.000
8:28am            266          4          5         57       74.4       36.8      29.57      40.21       33.6       38.3       23.0      29.68        326       0.00       0.00       0.00      0.000
8:29am            268          2          4         56       74.5       36.9      29.57      40.21       36.4       38.3       22.7      29.68        326       0.00       0.00       0.00      0.000
8:30am            343          2          3         56       74.5       36.9      29.57      40.21       36.4       38.3       22.7      29.68        324       0.00       0.00       0.00      0.000
8:31am            276          2          4         56       74.5       37.0      29.57      40.21       36.5       38.4       22.8      29.68        325       0.00       0.00       0.00      0.000
8:32am            288          2          4         56       74.5       37.1      29.57      40.21       36.6       38.5       22.9      29.68        326       0.00       0.00       0.00      0.000
8:33am            290          3          3         56       74.5       37.2      29.57      40.21       35.2       38.6       23.0      29.68        323       0.00       0.00       0.00      0.000
8:34am            220          4          4         56       74.5       37.2      29.57      40.21       34.1       38.6       23.0      29.68        324       0.00       0.00       0.00      0.000
8:35am            260          2          4         57       74.5       37.3      29.57      40.21       36.8       38.8       23.5      29.68        323       0.00       0.00       0.00      0.000
8:36am            280          2          3         57       74.6       37.4      29.57      40.21       36.9       38.9       23.6      29.68        323       0.00       0.00       0.00      0.000
8:37am            238          3          3         57       74.6       37.5      29.58      40.21       35.5       39.0       23.7      29.68        321       0.00       0.00       0.00      0.000
8:38am            252          2          4         56       74.6       37.5      29.58      40.21       37.0       38.9       23.2      29.68        321       0.00       0.00       0.00      0.000
8:39am            252          2          3         56       74.6       37.7      29.58      40.21       37.2       39.1       23.4      29.69        317       0.00       0.00       0.00      0.000
8:40am            221          3          5         57       74.6       37.8      29.58      40.21       35.9       39.3       23.9      29.69        317       0.00       0.00       0.00      0.000
8:40am            247          3          5         57       74.6       38.0      29.58      40.21       36.1       39.5       24.1      29.69        316       0.00       0.00       0.00      0.000
8:42am            269          3          5         57       74.6       38.2      29.58      40.21       36.3       39.7       24.3      29.69        314       0.00       0.00       0.00      0.000
8:43am            267          3          4         57       74.6       38.3      29.58      40.21       36.4       39.8       24.4      29.69        313       0.00       0.00       0.00      0.000
8:44am            308          1          6         57       74.6       38.5      29.58      40.21       38.5       40.0       24.6      29.69        312       0.00       0.00       0.00      0.000
8:45am            240          4          7         56       74.6       38.6      29.59      40.21       35.7       40.0       24.3      29.69        311       0.00       0.00       0.00      0.000
8:46am            233          2          4         56       74.6       38.8      29.58      40.21       38.4       40.2       24.5      29.69        312       0.00       0.00       0.00      0.000
8:47am            327          3          6         55       74.6       38.9      29.59      40.21       37.1       40.2       24.1      29.69        311       0.00       0.00       0.00      0.000
8:48am            315          4          4         55       74.7       39.0      29.59      40.21       36.2       40.3       24.2      29.69        311       0.00       0.00       0.00      0.000
8:49am            295          3          5         55       74.7       39.1      29.59      40.21       37.3       40.4       24.3      29.70        309       0.00       0.00       0.00      0.000
8:50am            260          2          5         55       74.7       39.2      29.59      40.21       38.9       40.5       24.4      29.70        309       0.00       0.00       0.00      0.000
8:51am            284          2          5         55       74.7       39.2      29.59      40.21       38.9       40.5       24.4      29.70        308       0.00       0.00       0.00      0.000
8:52am            246          2          5         54       74.7       39.3      29.59      40.21       39.0       40.5       24.1      29.70        307       0.00       0.00       0.00      0.000
8:53am            300          3          4         54       74.7       39.3      29.59      40.21       37.6       40.5       24.1      29.70        307       0.00       0.00       0.00      0.000
8:54am            252          2          3         54       74.7       39.4      29.59      40.21       39.1       40.6       24.2      29.70        307       0.00       0.00       0.00      0.000
8:55am            249          2          4         54       74.7       39.4      29.59      40.21       39.1       40.6       24.2      29.70        306       0.00       0.00       0.00      0.000
8:56am            247          3          3         54       74.8       39.5      29.59      40.21       37.8       40.7       24.2      29.70        306       0.00       0.00       0.00      0.000
8:57am            323          4          4         54       74.8       39.5      29.59      40.21       36.7       40.7       24.2      29.70        303       0.00       0.00       0.00      0.000
8:58am            325          2          4         54       74.8       39.5      29.59      40.21       39.2       40.7       24.2      29.70        304       0.00       0.00       0.00      0.000
8:59am            322          3          3         54       74.8       39.6      29.59      40.21       37.9       40.8       24.3      29.70        304       0.00       0.00       0.00      0.000
9:00am            283          5          8         54       74.8       39.6      29.59      40.21       36.0       40.8       24.3      29.70        306       0.00       0.00       0.00      0.000
9:01am            279          1          5         54       74.8       39.6      29.59      40.21       39.6       40.8       24.3      29.70        306       0.00       0.00       0.00      0.000
9:02am            276          2          3         54       74.8       39.6      29.59      40.21       39.3       40.8       24.3      29.70        305       0.00       0.00       0.00      0.000
9:03am            252          4          5         54       74.8       39.6      29.59      40.21       36.9       40.8       24.3      29.70        303       0.00       0.00       0.00      0.000
9:04am            305          6          9         53       74.8       39.6      29.59      40.21       35.3       40.7       23.9      29.70        303       0.00       0.00       0.00      0.000
9:05am            330          4          6         53       74.8       39.6      29.60      40.21       36.9       40.7       23.9      29.71        300       0.00       0.00       0.00      0.000
9:06am            319          4          7         54       74.8       39.6      29.60      40.21       36.9       40.8       24.3      29.71        299       0.00       0.00       0.00      0.000
9:07am            304          3          6         54       74.8       39.7      29.60      40.21       38.0       40.9       24.4      29.71        297       0.00       0.00       0.00      0.000
9:08am            285          3          7         54       74.8       39.7      29.60      40.21       38.0       40.9       24.4      29.71        297       0.00       0.00       0.00      0.000
9:09am            345          3          7         54       74.8       39.7      29.60      40.21       38.0       40.9       24.4      29.71        294       0.00       0.00       0.00      0.000
9:10am            333          2          6         54       74.8       39.7      29.60      40.21       39.4       40.9       24.4      29.71        294       0.00       0.00       0.00      0.000
9:11am            338          2          4         54       74.8       39.7      29.61      40.21       39.4       40.9       24.4      29.72        291       0.00       0.00       0.00      0.000
9:12am            251          3          4         53       74.8       39.7      29.61      40.21       38.0       40.8       24.0      29.72        290       0.00       0.00       0.00      0.000
9:13am            268          2          5         54       74.9       39.7      29.61      40.21       39.4       40.9       24.4      29.72        289       0.00       0.00       0.00      0.000
9:14am            250          2          5         53       74.9       39.7      29.61      40.21       39.4       40.8       24.0      29.72        287       0.00       0.00       0.00      0.000
9:15am            318          1          4         53       74.9       39.7      29.61      40.21       39.7       40.8       24.0      29.72        285       0.00       0.00       0.00      0.000
9:16am            281          5          5         53       74.9       39.7      29.61      40.21       36.1       40.8       24.0      29.72        284       0.00       0.00       0.00      0.000
9:17am            250          3          5         54       74.9       39.7      29.61      40.21       38.0       40.9       24.4      29.72        284       0.00       0.00       0.00      0.000
9:18am            274          1          5         54       74.9       39.7      29.62      40.21       39.7       40.9       24.4      29.73        282       0.00       0.00       0.00      0.000
9:19am            281          3          3         54       74.9       39.7      29.62      40.21       38.0       40.9       24.4      29.73        281       0.00       0.00       0.00      0.000
9:20am            281          1          3         54       74.9       39.7      29.62      40.21       39.7       40.9       24.4      29.73        281       0.00       0.00       0.00      0.000
9:21am            281          2          2         55       74.9       39.8      29.62      40.21       39.5       41.1       25.0      29.73        281       0.00       0.00       0.00      0.000
9:22am            276          1          3         55       74.9       39.8      29.62      40.21       39.8       41.1       25.0      29.73        279       0.00       0.00       0.00      0.000
9:23am            276          1          3         55       74.9       40.0      29.62      40.21       40.0       41.3       25.2      29.73        280       0.00       0.00       0.00      0.000
9:24am            276          2          2         56       74.9       40.1      29.62      40.21       39.9       41.5       25.7      29.73        280       0.00       0.00       0.00      0.000
9:25am            281          1          2         55       74.9       40.3      29.62      40.21       40.3       41.6       25.4      29.73        280       0.00       0.00       0.00      0.000
9:26am            302          2          3         55       74.9       40.4      29.62      40.21       40.2       41.7       25.5      29.73        279       0.00       0.00       0.00      0.000
9:27am            307          2          2         55       74.9       40.5      29.62      40.21       40.3       41.8       25.6      29.73        279       0.00       0.00       0.00      0.000
9:28am            306          1          2         55       74.9       40.6      29.62      40.21       40.6       41.9       25.7      29.73        277       0.00       0.00       0.00      0.000
9:29am            308          1          3         56       74.9       40.8      29.62      40.21       40.8       42.2       26.3      29.73        274       0.00       0.00       0.00      0.000
9:30am            257          3          4         56       74.9       41.0      29.62      40.21       39.5       42.4       26.5      29.73        274       0.00       0.00       0.00      0.000
9:31am            329          2          3         56       74.9       41.1      29.62      40.21       41.0       42.5       26.6      29.73        274       0.00       0.00       0.00      0.000
9:32am            329          1          2         55       75.0       41.3      29.63      40.21       41.3       42.6       26.4      29.74        273       0.00       0.00       0.00      0.000
9:33am            328          1          3         56       75.0       41.4      29.63      40.21       41.4       42.8       26.9      29.74        273       0.00       0.00       0.00      0.000
9:34am            226          3          3         55       75.0       41.5      29.63      40.21       40.1       42.8       26.6      29.74        272       0.00       0.00       0.00      0.000
9:35am            250          3          6         55       75.0       41.6      29.63      40.21       40.2       42.9       26.6      29.74        271       0.00       0.00       0.00      0.000
9:36am            255          1          7         55       75.0       41.7      29.63      40.21       41.7       43.0       26.7      29.74        271       0.00       0.00       0.00      0.000
9:37am            269          4          6         55       75.1       41.9      29.63      40.21       39.5       43.2       26.9      29.74        272       0.00       0.00       0.00      0.000
9:38am            285          2          3         55       75.1       42.0      29.63      40.21       42.0       43.3       27.0      29.74        270       0.00       0.00       0.00      0.000
9:39am            314          6          7         55       75.1       42.1      29.63      40.21       38.3       43.4       27.1      29.74        270       0.00       0.00       0.00      0.000
9:40am            308          2          6         55       75.1       42.2      29.63      40.21       42.2       43.5       27.2      29.74        268       0.00       0.00       0.00      0.000
9:41am            321          1          4         54       75.1       42.2      29.63      40.21       42.2       43.4       26.8      29.74        268       0.00       0.00       0.00      0.000
9:42am            246          4          4         55       75.1       42.3      29.63      40.21       40.0       43.6       27.3      29.74        267       0.00       0.00       0.00      0.000
9:43am            184          5         10         55       75.1       42.5      29.63      40.21       39.4       43.8       27.5      29.74        265       0.00       0.00       0.00      0.000
9:44am            250          8          8         55       75.1       42.6      29.64      40.21       37.8       43.9       27.6      29.75        263       0.00       0.00       0.00      0.000
9:45am            256          2          8         56       75.1       42.8      29.64      40.21       42.8       44.2       28.2      29.75        262       0.00       0.00       0.00      0.000
9:46am            252          5          5         56       75.1       43.0      29.64      40.21       40.0       44.4       28.4      29.75        261       0.00       0.00       0.00      0.000
9:47am            257          5          6         55       75.1       43.2      29.64      40.21       40.2       44.5       28.1      29.75        260       0.00       0.00       0.00      0.000
9:48am            226          6          6         55       75.1       43.4      29.64      40.21       39.8       44.7       28.3      29.75        261       0.00       0.00       0.00      0.000
9:49am            241          1          6         55       75.1       43.6      29.64      40.21       43.6       44.9       28.5      29.75        260       0.00       0.00       0.00      0.000
9:49am            227          3          5         54       75.1       43.8      29.64      40.21       42.7       45.0       28.3      29.75        260       0.00       0.00       0.00      0.000
9:51am            287          2          4         54       75.2       44.0      29.64      40.21       44.0       45.2       28.4      29.75        257       0.00       0.00       0.00      0.000
9:52am            313          4          7         54       75.2       44.2      29.64      40.21       42.2       45.4       28.6      29.75        257       0.00       0.00       0.00      0.000
9:53am            345          4          6         53       75.2       44.2      29.64      40.21       42.2       45.3       28.2      29.75        257       0.00       0.00       0.00      0.000
9:54am            276          2          5         53       75.2       44.3      29.65      40.21       44.3       45.4       28.3      29.76        254       0.00       0.00       0.00      0.000
9:55am            325          5          6         52       75.2       44.3      29.65      40.21       41.5       45.3       27.8      29.76        253       0.00       0.00       0.00      0.000
9:56am            359          5          6         52       75.2       44.3      29.65      40.21       41.5       45.3       27.8      29.76        252       0.00       0.00       0.00      0.000
9:57am            317          7          8         52       75.2       44.3      29.65      40.21       40.3       45.3       27.8      29.76        252       0.00       0.00       0.00      0.000
9:58am            278          6          7         51       75.2       44.2      29.65      40.21       40.8       45.1       27.2      29.76        248       0.00       0.00       0.00      0.000
9:59am              7          4          6         51       75.2       44.1      29.65      40.21       42.1       45.0       27.1      29.76        246       0.00       0.00       0.00      0.000
10:00am           325          3          8         51       75.2       44.0      29.66      40.21       42.9       44.9       27.1      29.77        243       0.00       0.00       0.00      0.000
10:01am           327          2          3         51       75.2       43.9      29.66      40.21       43.9       44.8       27.0      29.77        242       0.00       0.00       0.00      0.000
10:02am           275          3          5         52       75.2       43.8      29.66      40.21       42.7       44.8       27.3      29.77        242       0.00       0.00       0.00      0.000
10:03am           285          5          7         52       75.2       43.6      29.66      40.21       40.7       44.6       27.2      29.77        242       0.00       0.00       0.00      0.000
10:04am           310          3          5         52       75.3       43.5      29.66      40.21       42.3       44.5       27.1      29.77        241       0.00       0.00       0.00      0.000
10:05am           356          5          7         52       75.2       43.4      29.66      40.21       40.5       44.4       27.0      29.77        238       0.00       0.00       0.00      0.000
10:06am           319          3          6         52       75.2       43.3      29.66      40.21       42.1       44.3       26.9      29.77        238       0.00       0.00       0.00      0.000
10:07am           297          2          6         52       75.2       43.2      29.66      40.21       43.2       44.2       26.8      29.77        238       0.00       0.00       0.00      0.000
10:08am           288          5          5         52       75.3       43.1      29.67      40.21       40.1       44.1       26.7      29.78        234       0.00       0.00       0.00      0.000
10:09am           342          4          5         53       75.3       43.0      29.67      40.21       40.8       44.1       27.1      29.78        232       0.00       0.00       0.00      0.000
10:10am           311          4          5         53       75.3       42.9      29.67      40.21       40.7       44.0       27.0      29.78        233       0.00       0.00       0.00      0.000
10:11am           359         13         15         53       75.3       42.8      29.67      40.21       36.0       43.9       26.9      29.78        232       0.00       0.00       0.00      0.000
10:12am           330          6         13         52       75.3       42.6      29.67      40.21       38.9       43.6       26.2      29.78        233       0.00       0.00       0.00      0.000
10:13am           297         11         15         52       75.3       42.5      29.67      40.21       36.4       43.5       26.1      29.78        231       0.00       0.00       0.00      0.000
10:14am           301          7         12         52       75.3       42.4      29.67      40.21       38.0       43.4       26.0      29.78        232       0.00       0.00       0.00      0.000
10:15am           311          9         15         52       75.3       42.2      29.67      40.21       36.8       43.2       25.9      29.78        231       0.00       0.00       0.00      0.000
10:16am           323          4         12         52       75.3       42.1      29.67      40.21       39.7       43.1       25.8      29.78        231       0.00       0.00       0.00      0.000
10:17am           295          5          9         52       75.3       42.0      29.67      40.21       38.8       43.0       25.7      29.78        231       0.00       0.00       0.00      0.000
10:18am           295          8         10         53       75.3       41.9      29.67      40.21       36.9       43.0       26.0      29.78        229       0.00       0.00       0.00      0.000
10:19am           299          8         10         53       75.3       41.8      29.68      40.21       36.8       42.9       25.9      29.79        226       0.00       0.00       0.00      0.000
10:20am           228          7         12         53       75.3       41.8      29.67      40.21       37.3       42.9       25.9      29.78        229       0.00       0.00       0.00      0.000
10:21am           312          2         13         54       75.3       41.7      29.67      40.21       41.6       42.9       26.3      29.78        229       0.00       0.00       0.00      0.000
10:22am           350          7          7         54       75.3       41.7      29.68      40.21       37.2       42.9       26.3      29.79        226       0.00       0.00       0.00      0.000
10:23am             1          5          8         55       75.3       41.7      29.68      40.21       38.5       43.0       26.7      29.79        226       0.00       0.00       0.00      0.000
10:24am           270         10         12         55       75.3       41.8      29.68      40.21       35.9       43.1       26.8      29.79        225       0.00       0.00       0.00      0.000
10:25am           285          6         10         55       75.3       41.9      29.67      40.21       38.0       43.2       26.9      29.78        229       0.00       0.00       0.00      0.000
10:26am           321          8          9         55       75.3       41.9      29.68      40.21       36.9       43.2       26.9      29.78        227       0.00       0.00       0.00      0.000
10:27am           252          7         10         55       75.3       42.0      29.68      40.21       37.5       43.3       27.0      29.78        227       0.00       0.00       0.00      0.000
10:28am           307          6         11         55       75.3       41.9      29.68      40.21       38.0       43.2       26.9      29.79        224       0.00       0.00       0.00      0.000
10:29am           309          4          7         55       75.3       41.9      29.68      40.21       39.5       43.2       26.9      29.79        221       0.00       0.00       0.00      0.000
10:30am           316          7         11         55       75.3       41.9      29.68      40.21       37.4       43.2       26.9      29.79        224       0.00       0.00       0.00      0.000
10:31am           271          4         13         54       75.3       41.9      29.68      40.21       39.5       43.1       26.5      29.79        223       0.00       0.00       0.00      0.000
10:32am           336         10         11         55       75.3       42.0      29.68      40.21       36.1       43.3       27.0      29.79        220       0.00       0.00       0.00      0.000
10:33am           245         12         20         55       75.3       42.1      29.68      40.21       35.5       43.4       27.1      29.79        218       0.00       0.00       0.00      0.000
10:34am           284         11         17         53       75.3       42.1      29.69      40.21       35.9       43.2       26.2      29.80        217       0.00       0.00       0.00      0.000
10:35am           266         10         16         53       75.3       42.2      29.68      40.21       36.4       43.3       26.3      29.79        220       0.00       0.00       0.00      0.000
10:36am           285          7         13         53       75.3       42.2      29.68      40.21       37.8       43.3       26.3      29.79        219       0.00       0.00       0.00      0.000
10:37am           302          8         12         54       75.3       42.3      29.68      40.21       37.4       43.5       26.9      29.79        218       0.00       0.00       0.00      0.000
10:38am           331          3          9         54       75.3       42.5      29.68      40.21       41.2       43.7       27.0      29.79        218       0.00       0.00       0.00      0.000
10:39am           302          9         11         54       75.3       42.7      29.69      40.21       37.4       43.9       27.2      29.80        217       0.00       0.00       0.00      0.000
10:40am           307          9         10         54       75.4       42.8      29.69      40.21       37.5       44.0       27.3      29.80        217       0.00       0.00       0.00      0.000
10:41am           308          8         10         53       75.3       42.9      29.69      40.21       38.1       44.0       27.0      29.80        213       0.00       0.00       0.00      0.000
10:42am           295          6         12         53       75.4       43.0      29.69      40.21       39.3       44.1       27.1      29.80        215       0.00       0.00       0.00      0.000
10:43am           297         16         16         52       75.4       43.0      29.69      40.21       35.4       44.0       26.6      29.80        213       0.00       0.00       0.00      0.000
10:44am           220          4         16         52       75.4       42.9      29.69      40.21       40.7       43.9       26.5      29.80        211       0.00       0.00       0.00      0.000
10:45am           317         15         15         51       75.4       42.9      29.69      40.21       35.6       43.8       26.0      29.80        212       0.00       0.00       0.00      0.000
10:46am           349          6         15         50       75.4       42.7      29.69      40.21       39.0       43.5       25.4      29.80        211       0.00       0.00       0.00      0.000
10:47am           298          4         13         50       75.4       42.6      29.69      40.21       40.3       43.4       25.3      29.80        213       0.00       0.00       0.00      0.000
10:48am           342          5          9         50       75.4       42.5      29.69      40.21       39.4       43.3       25.2      29.80        210       0.00       0.00       0.00      0.000
10:49am           267         14         14         50       75.4       42.5      29.70      40.21       35.3       43.3       25.2      29.81        206       0.00       0.00       0.00      0.000
10:50am           306          7         14         51       75.4       42.5      29.70      40.21       38.2       43.4       25.7      29.81        206       0.00       0.00       0.00      0.000
10:51am           297          7         17         51       75.4       42.4      29.70      40.21       38.0       43.3       25.6      29.81        206       0.00       0.00       0.00      0.000
10:52am           249         18         18         50       75.4       42.3      29.70      40.21       34.0       43.1       25.0      29.81        206       0.00       0.00       0.00      0.000
10:53am           290          6         18         50       75.4       42.1      29.70      40.21       38.3       42.9       24.8      29.81        206       0.00       0.00       0.00      0.000
10:54am           352         10         19         50       75.4       41.9      29.70      40.21       36.0       42.7       24.6      29.81        206       0.00       0.00       0.00      0.000
10:55am           274         12         12         51       75.4       41.7      29.70      40.21       35.0       42.6       24.9      29.81        204       0.00       0.00       0.00      0.000
10:56am           270         10         12         51       75.4       41.6      29.70      40.21       35.6       42.5       24.8      29.81        203       0.00       0.00       0.00      0.000
10:57am           283          6         11         51       75.4       41.4      29.70      40.21       37.4       42.3       24.6      29.81        201       0.00       0.00       0.00      0.000
10:58am           230          7         12         51       75.4       41.2      29.70      40.21       36.6       42.1       24.5      29.81        202       0.00       0.00       0.00      0.000
10:59am           278         12         17         51       75.4       41.0      29.70      40.21       34.1       41.9       24.3      29.81        200       0.00       0.00       0.00      0.000
11:00am           303         10         13         51       75.4       40.9      29.71      40.21       34.8       41.8       24.2      29.82        198       0.00       0.00       0.00      0.000
11:01am           360         14         14         50       75.4       40.8      29.71      40.21       33.2       41.6       23.6      29.82        198       0.00       0.00       0.00      0.000
11:02am           272          7         15         50       75.4       40.6      29.71      40.21       35.9       41.4       23.4      29.82        191       0.00       0.00       0.00      0.000
11:03am           297         13         18         50       75.4       40.5      29.72      40.21       33.1       41.3       23.3      29.83        190       0.00       0.00       0.00      0.000
11:04am           238          6         13         50       75.4       40.4      29.72      40.21       36.2       41.2       23.2      29.83        187       0.00       0.00       0.00      0.000
11:05am           340         13         16         51       75.4       40.3      29.72      40.21       32.9       41.2       23.6      29.83        187       0.00       0.00       0.00      0.000
11:06am           283          3         13         51       75.4       40.2      29.72      40.21       38.6       41.1       23.5      29.83        185       0.00       0.00       0.00      0.000
11:07am           341          4          5         51       75.4       40.2      29.72      40.21       37.5       41.1       23.5      29.83        182       0.00       0.00       0.00      0.000
11:08am           311          2         10         51       75.4       40.1      29.72      40.21       39.9       41.0       23.4      29.83        182       0.00       0.00       0.00      0.000
11:09am           243          5          8         51       75.4       40.1      29.73      40.21       36.6       41.0       23.4      29.84        179       0.00       0.00       0.00      0.000
11:10am           319          4          9         51       75.4       40.1      29.73      40.21       37.4       41.0       23.4      29.84        177       0.00       0.00       0.00      0.000
11:11am             7          4          7         51       75.4       40.1      29.73      40.21       37.4       41.0       23.4      29.84        177       0.00       0.00       0.00      0.000
11:12am           344         16         16         50       75.4       40.1      29.73      40.21       31.7       40.9       23.0      29.84        175       0.00       0.00       0.00      0.000
11:13am           281          8         16         50       75.5       40.1      29.73      40.21       34.7       40.9       23.0      29.84        174       0.00       0.00       0.00      0.000
11:14am           259          3          9         50       75.5       40.1      29.73      40.21       38.5       40.9       23.0      29.84        172       0.00       0.00       0.00      0.000
11:15am           325          4          4         49       75.4       40.1      29.73      40.21       37.4       40.8       22.5      29.84        172       0.00       0.00       0.00      0.000
11:16am           309          4          9         49       75.4       40.0      29.74      40.21       37.3       40.7       22.4      29.85        168       0.00       0.00       0.00      0.000
11:17am           316          6          6         49       75.4       40.0      29.74      40.21       35.8       40.7       22.4      29.85        166       0.00       0.00       0.00      0.000
11:18am           313         11         14         48       75.5       40.0      29.74      40.21       33.2       40.6       21.9      29.85        165       0.00       0.00       0.00      0.000
11:19am           283          6         12         47       75.4       40.0      29.74      40.21       35.8       40.5       21.4      29.85        165       0.00       0.00       0.00      0.000
11:20am           332          8         11         47       75.5       40.0      29.75      40.21       34.6       40.5       21.4      29.85        162       0.00       0.00       0.00      0.000
11:21am           352         20         20         47       75.5       39.9      29.74      40.21       30.3       40.4       21.3      29.85        163       0.00       0.00       0.00      0.000
11:22am           295          5         20         47       75.5       39.9      29.74      40.21       36.4       40.4       21.3      29.85        165       0.00       0.00       0.00      0.000
11:23am           268          4         11         47       75.5       39.8      29.74      40.21       37.1       40.3       21.2      29.85        165       0.00       0.00       0.00      0.000
11:24am           328          5          5         47       75.5       39.8      29.74      40.21       36.2       40.3       21.2      29.85        164       0.00       0.00       0.00      0.000
11:25am           331          4          7         47       75.5       39.8      29.74      40.21       37.1       40.3       21.2      29.85        163       0.00       0.00       0.00      0.000
11:26am           323          4         10         46       75.5       39.7      29.75      40.21       37.0       40.1       20.6      29.86        161       0.00       0.00       0.00      0.000
11:27am           259          3         11         46       75.5       39.7      29.75      40.21       38.0       40.1       20.6      29.85        162       0.00       0.00       0.00      0.000
11:28am           309          7          9         46       75.5       39.7      29.75      40.21       34.8       40.1       20.6      29.86        161       0.00       0.00       0.00      0.000
11:29am           296          2          9         47       75.5       39.7      29.75      40.21       39.4       40.2       21.1      29.86        160       0.00       0.00       0.00      0.000
11:30am           335          9         14         47       75.5       39.9      29.75      40.21       34.0       40.4       21.3      29.86        159       0.00       0.00       0.00      0.000
11:31am           343          5          9         46       75.5       39.9      29.75      40.21       36.4       40.3       20.8      29.86        159       0.00       0.00       0.00      0.000
11:32am           259          9          9         46       75.5       39.9      29.75      40.21       34.0       40.3       20.8      29.86        158       0.00       0.00       0.00      0.000
11:33am           264          4          9         45       75.5       40.0      29.75      40.21       37.3       40.3       20.4      29.86        157       0.00       0.00       0.00      0.000
11:34am           292          3          8         45       75.5       40.0      29.75      40.21       38.4       40.3       20.4      29.86        156       0.00       0.00       0.00      0.000
11:35am           257          6          8         45       75.5       40.2      29.75      40.21       36.0       40.5       20.6      29.86        154       0.00       0.00       0.00      0.000
11:36am           283          5          8         45       75.5       40.4      29.75      40.21       36.9       40.7       20.8      29.86        155       0.00       0.00       0.00      0.000
11:37am           249          4         11         45       75.5       40.8      29.75      40.21       38.2       41.1       21.1      29.86        155       0.00       0.00       0.00      0.000
11:38am           300          6         11         45       75.5       41.1      29.76      40.21       37.1       41.4       21.4      29.87        152       0.00       0.00       0.00      0.000
11:39am           300          7         12         44       75.5       41.4      29.76      40.21       36.8       41.7       21.1      29.86        153       0.00       0.00       0.00      0.000
11:40am           284          7         10         43       75.5       41.6      29.76      40.21       37.1       41.8       20.8      29.86        153       0.00       0.00       0.00      0.000
11:40am           274          5         13         42       75.5       41.7      29.76      40.21       38.5       41.8       20.3      29.86        153       0.00       0.00       0.00      0.000
11:42am           269          6         14         42       75.6       41.9      29.75      40.21       38.0       42.0       20.5      29.86        155       0.00       0.00       0.00      0.000
11:43am           303          9         11         42       75.6       41.9      29.75      40.21       36.4       42.0       20.5      29.86        156       0.00       0.00       0.00      0.000
11:44am           190         11         11         42       75.6       41.9      29.75      40.21       35.6       42.0       20.5      29.86        158       0.00       0.00       0.00      0.000
11:45am           314          4         12         42       75.6       42.0      29.75      40.21       39.6       42.1       20.6      29.86        156       0.00       0.00       0.00      0.000
11:46am           240         11         14         43       75.6       42.1      29.75      40.21       35.9       42.3       21.2      29.86        157       0.00       0.00       0.00      0.000
11:47am           268          3         11         43       75.6       42.2      29.75      40.21       40.9       42.4       21.3      29.86        157       0.00       0.00       0.00      0.000
11:48am           294          7         10         43       75.6       42.3      29.75      40.21       37.9       42.5       21.4      29.86        156       0.00       0.00       0.00      0.000
11:49am           261          9          9         43       75.6       42.4      29.75      40.21       37.0       42.6       21.5      29.86        159       0.00       0.00       0.00      0.000
11:50am           283          5         10         43       75.6       42.5      29.75      40.21       39.4       42.7       21.6      29.86        159       0.00       0.00       0.00      0.000
11:51am           296          4          8         43       75.6       42.5      29.75      40.21       40.2       42.7       21.6      29.86        161       0.00       0.00       0.00      0.000
11:52am           338          5          7         43       75.6       42.7      29.75      40.21       39.6       42.9       21.8      29.86        161       0.00       0.00       0.00      0.000
11:53am           278          6          8         43       75.6       42.8      29.75      40.21       39.1       43.0       21.9      29.86        159       0.00       0.00       0.00      0.000
11:54am           240          6          8         43       75.6       42.9      29.75      40.21       39.2       43.1       22.0      29.86        160       0.00       0.00       0.00      0.000
11:55am           233          9          9         43       75.6       43.0      29.75      40.21       37.8       43.2       22.1      29.86        158       0.00       0.00       0.00      0.000
11:56am           305          7         10         43       75.6       43.0      29.75      40.21       38.8       43.2       22.1      29.86        157       0.00       0.00       0.00      0.000
11:57am           265          5         10         43       75.6       43.1      29.75      40.21       40.1       43.3       22.1      29.86        158       0.00       0.00       0.00      0.000
11:58am           294          5         11         43       75.6       43.1      29.75      40.21       40.1       43.3       22.1      29.86        158       0.00       0.00       0.00      0.000
11:59am           268          8         17         42       75.6       42.9      29.75      40.21       38.1       43.0       21.4      29.86        158       0.00       0.00       0.00      0.000
12:00pm           270          4          9         42       75.6       42.8      29.75      40.21       40.6       42.9       21.3      29.86        156       0.00       0.00       0.00      0.000
12:01pm           358          5          7         42       75.6       42.6      29.75      40.21       39.5       42.7       21.1      29.86        154       0.00       0.00       0.00      0.000
12:02pm           295          4          8         43       75.6       42.4      29.75      40.21       40.1       42.6       21.5      29.86        154       0.00       0.00       0.00      0.000
12:03pm           274          3         11         43       75.6       42.3      29.76      40.21       41.0       42.5       21.4      29.87        150       0.00       0.00       0.00      0.000
12:04pm           249          5         10         43       75.6       42.1      29.76      40.21       38.9       42.3       21.2      29.87        152       0.00       0.00       0.00      0.000
12:05pm           339          4          8         43       75.7       41.9      29.76      40.21       39.5       42.1       21.1      29.87        152       0.00       0.00       0.00      0.000
12:06pm           314          6         12         44       75.6       41.7      29.76      40.21       37.8       42.0       21.4      29.87        150       0.00       0.00       0.00      0.000
12:07pm           352          2          8         44       75.6       41.5      29.76      40.21       41.4       41.8       21.2      29.87        148       0.00       0.00       0.00      0.000
12:08pm           274          5          6         44       75.6       41.3      29.76      40.21       38.0       41.6       21.0      29.87        148       0.00       0.00       0.00      0.000
12:09pm           293          4          6         44       75.7       41.1      29.76      40.21       38.6       41.4       20.9      29.87        144       0.00       0.00       0.00      0.000
12:10pm           331          5          6         45       75.7       41.0      29.77      40.21       37.6       41.3       21.3      29.88        141       0.00       0.00       0.00      0.000
12:11pm           319          3          5         45       75.7       40.9      29.77      40.21       39.4       41.2       21.2      29.88        141       0.00       0.00       0.00      0.000
12:12pm           289          4          5         45       75.7       40.8      29.77      40.21       38.2       41.1       21.1      29.88        140       0.00       0.00       0.00      0.000
12:13pm           297          5          8         45       75.7       40.7      29.77      40.21       37.3       41.0       21.0      29.88        140       0.00       0.00       0.00      0.000
12:14pm           262          1          7         45       75.7       40.6      29.77      40.21       40.6       40.9       20.9      29.88        139       0.00       0.00       0.00      0.000
12:15pm           342          2          6         45       75.7       40.4      29.77      40.21       40.2       40.7       20.8      29.88        140       0.00       0.00       0.00      0.000
12:16pm           333          3          5         45       75.7       40.3      29.77      40.21       38.7       40.6       20.7      29.88        139       0.00       0.00       0.00      0.000
12:17pm           337          3          5         45       75.7       40.2      29.77      40.21       38.6       40.5       20.6      29.88        136       0.00       0.00       0.00      0.000
12:18pm           356          4          8         45       75.7       40.1      29.77      40.21       37.4       40.4       20.5      29.88        137       0.00       0.00       0.00      0.000
12:19pm           272          3          5         46       75.7       40.1      29.78      40.21       38.5       40.5       21.0      29.89        134       0.00       0.00       0.00      0.000
12:20pm           335          5          5         46       75.7       40.0      29.78      40.21       36.5       40.4       20.9      29.89        134       0.00       0.00       0.00      0.000
12:21pm           317          3          9         47       75.8       40.0      29.77      40.21       38.4       40.5       21.4      29.88        135       0.00       0.00       0.00      0.000
12:22pm           284          7         10         46       75.7       39.9      29.78      40.21       35.0       40.3       20.8      29.89        133       0.00       0.00       0.00      0.000
12:23pm           287          2         13         46       75.7       39.8      29.78      40.21       39.5       40.2       20.7      29.89        134       0.00       0.00       0.00      0.000
12:24pm           339          6          8         46       75.8       39.7      29.78      40.21       35.4       40.1       20.6      29.89        133       0.00       0.00       0.00      0.000
12:25pm           285          7         13         46       75.7       39.6      29.77      40.21       34.7       40.0       20.5      29.88        135       0.00       0.00       0.00      0.000
12:26pm           304         13         15         46       75.8       39.5      29.78      40.21       31.9       39.9       20.4      29.89        134       0.00       0.00       0.00      0.000
12:27pm           270          7         13         46       75.8       39.5      29.77      40.21       34.5       39.9       20.4      29.88        137       0.00       0.00       0.00      0.000
12:28pm           318          3          8         46       75.8       39.3      29.77      40.21       37.6       39.7       20.3      29.88        136       0.00       0.00       0.00      0.000
12:29pm           299          1          8         46       75.8       39.2      29.77      40.21       39.2       39.6       20.2      29.88        137       0.00       0.00       0.00      0.000
12:30pm           307          5          7         46       75.8       39.2      29.77      40.21       35.5       39.6       20.2      29.88        139       0.00       0.00       0.00      0.000
12:31pm           276          7          8         46       75.8       39.2      29.77      40.21       34.2       39.6       20.2      29.88        141       0.00       0.00       0.00      0.000
12:32pm           283          8         12         47       75.8       39.2      29.77      40.21       33.6       39.7       20.7      29.88        141       0.00       0.00       0.00      0.000
12:33pm           287          5         10         47       75.8       39.3      29.77      40.21       35.7       39.8       20.8      29.88        142       0.00       0.00       0.00      0.000
12:34pm           249          2          7         48       75.8       39.4      29.77      40.21       39.1       40.0       21.4      29.88        142       0.00       0.00       0.00      0.000
12:35pm           323          5         10         48       75.8       39.5      29.77      40.21       35.9       40.1       21.4      29.88        141       0.00       0.00       0.00      0.000
12:36pm           335          7          9         48       75.8       39.7      29.77      40.21       34.8       40.3       21.6      29.88        143       0.00       0.00       0.00      0.000
12:37pm           271          5          8         47       75.8       39.8      29.77      40.21       36.2       40.3       21.2      29.88        142       0.00       0.00       0.00      0.000
12:38pm           270         12         12         47       75.8       39.9      29.77      40.21       32.7       40.4       21.3      29.88        143       0.00       0.00       0.00      0.000
12:39pm           290          3         12         47       75.8       40.0      29.76      40.21       38.4       40.5       21.4      29.87        144       0.00       0.00       0.00      0.000
12:40pm           335          4          6         47       75.8       40.0      29.77      40.21       37.3       40.5       21.4      29.88        143       0.00       0.00       0.00      0.000
12:41pm           352          3          7         47       75.8       40.0      29.77      40.21       38.4       40.5       21.4      29.88        141       0.00       0.00       0.00      0.000
12:42pm           323          8         11         47       75.8       40.0      29.77      40.21       34.6       40.5       21.4      29.88        140       0.00       0.00       0.00      0.000
12:43pm           281          9          9         47       75.9       40.0      29.77      40.21       34.1       40.5       21.4      29.88        138       0.00       0.00       0.00      0.000
12:44pm           336          3          9         47       75.9       40.0      29.77      40.21       38.4       40.5       21.4      29.88        137       0.00       0.00       0.00      0.000
12:45pm           360          6          6         47       75.9       40.0      29.77      40.21       35.8       40.5       21.4      29.88        136       0.00       0.00       0.00      0.000
12:46pm           359          3          7         47       75.9       40.0      29.77      40.21       38.4       40.5       21.4      29.88        136       0.00       0.00       0.00      0.000
12:47pm           297          3          8         48       75.9       40.2      29.77      40.21       38.6       40.8       22.1      29.88        139       0.00       0.00       0.00      0.000
12:48pm           328          5          7         48       75.9       40.5      29.77      40.21       37.1       41.1       22.4      29.88        140       0.00       0.00       0.00      0.000
12:49pm           347          3          6         48       75.9       40.6      29.77      40.21       39.0       41.2       22.5      29.88        139       0.00       0.00       0.00      0.000
12:50pm           239          2          6         48       75.9       40.8      29.77      40.21       40.6       41.4       22.6      29.88        139       0.00       0.00       0.00      0.000
12:51pm           323          3          5         47       75.9       40.9      29.77      40.21       39.4       41.4       22.2      29.88        140       0.00       0.00       0.00      0.000
12:52pm           326          7          8         46       75.9       41.0      29.77      40.21       36.3       41.4       21.8      29.88        139       0.00       0.00       0.00      0.000
12:53pm           337          3          8         46       75.9       40.9      29.77      40.21       39.4       41.3       21.7      29.88        139       0.00       0.00       0.00      0.000
12:54pm           344         11         12         46       75.9       40.9      29.77      40.21       34.4       41.3       21.7      29.88        138       0.00       0.00       0.00      0.000
12:55pm           319          1         11         46       75.9       40.8      29.77      40.21       40.8       41.2       21.6      29.88        138       0.00       0.00       0.00      0.000
12:56pm           254          3          6         45       75.9       40.7      29.77      40.21       39.2       41.0       21.0      29.88        139       0.00       0.00       0.00      0.000
12:57pm           330          6          6         45       75.9       40.7      29.77      40.21       36.6       41.0       21.0      29.88        137       0.00       0.00       0.00      0.000
12:58pm           338          5          6         45       75.9       40.6      29.77      40.21       37.2       40.9       20.9      29.88        139       0.00       0.00       0.00      0.000
12:59pm           286          3          5         45       75.9       40.6      29.77      40.21       39.0       40.9       20.9      29.88        138       0.00       0.00       0.00      0.000
1:00pm            329          4         13         45       75.9       40.5      29.77      40.21       37.9       40.8       20.8      29.88        140       0.00       0.00       0.00      0.000
1:01pm            330          7          7         45       75.9       40.5      29.77      40.21       35.7       40.8       20.8      29.88        140       0.00       0.00       0.00      0.000
1:02pm            298          6         10         45       75.9       40.4      29.77      40.21       36.2       40.7       20.8      29.88        141       0.00       0.00       0.00      0.000
1:03pm            330          8         10         45       75.9       40.3      29.77      40.21       35.0       40.6       20.7      29.88        141       0.00       0.00       0.00      0.000
1:04pm             13          8          9         45       75.9       40.3      29.77      40.21       35.0       40.6       20.7      29.88        141       0.00       0.00       0.00      0.000
1:05pm             21          4          8         45       75.9       40.3      29.77      40.21       37.7       40.6       20.7      29.88        141       0.00       0.00       0.00      0.000
1:06pm            333          4          6         45       75.9       40.3      29.77      40.21       37.7       40.6       20.7      29.88        141       0.00       0.00       0.00      0.000
1:07pm            310          3          8         45       75.9       40.2      29.77      40.21       38.6       40.5       20.6      29.88        141       0.00       0.00       0.00      0.000
1:08pm            359          6         11         45       75.9       40.3      29.77      40.21       36.1       40.6       20.7      29.88        141       0.00       0.00       0.00      0.000
1:09pm             10          2          7         45       75.9       40.3      29.77      40.21       40.1       40.6       20.7      29.88        140       0.00       0.00       0.00      0.000
1:10pm            250          3          7         45       75.9       40.3      29.77      40.21       38.7       40.6       20.7      29.88        138       0.00       0.00       0.00      0.000
1:11pm             41          0          9         45       75.9       40.2      29.77      40.21       40.2       40.5       20.6      29.88        140       0.00       0.00       0.00      0.000
1:12pm            108          2          4         44       75.9       40.2      29.77      40.21       40.0       40.5       20.0      29.88        139       0.00       0.00       0.00      0.000
1:13pm              8          2          7         45       75.9       40.0      29.77      40.21       39.8       40.3       20.4      29.88        139       0.00       0.00       0.00      0.000
1:14pm            338          6         10         45       75.9       39.9      29.77      40.21       35.6       40.2       20.3      29.88        140       0.00       0.00       0.00      0.000
1:15pm            326          4          7         45       75.9       39.8      29.77      40.21       37.1       40.1       20.2      29.88        140       0.00       0.00       0.00      0.000
1:16pm            321          5         11         45       75.9       39.6      29.77      40.21       36.0       39.9       20.0      29.88        139       0.00       0.00       0.00      0.000
1:17pm            282          3          5         45       75.9       39.6      29.77      40.21       37.9       39.9       20.0      29.88        139       0.00       0.00       0.00      0.000
1:18pm            340          1          4         45       75.9       39.5      29.77      40.21       39.5       39.8       19.9      29.88        137       0.00       0.00       0.00      0.000
1:19pm            243          3          4         46       75.9       39.5      29.77      40.21       37.8       39.9       20.4      29.88        136       0.00       0.00       0.00      0.000
1:20pm            250          1          3         46       75.9       39.5      29.78      40.21       39.5       39.9       20.4      29.89        134       0.00       0.00       0.00      0.000
1:21pm            342          3          4         46       75.9       39.5      29.78      40.21       37.8       39.9       20.4      29.89        133       0.00       0.00       0.00      0.000
1:22pm            296          4          7         46       75.9       39.6      29.78      40.21       36.9       40.0       20.5      29.89        134       0.00       0.00       0.00      0.000
1:23pm            280          7          7         46       75.9       39.6      29.77      40.21       34.7       40.0       20.5      29.88        135       0.00       0.00       0.00      0.000
1:24pm            321          5          9         45       75.9       39.6      29.78      40.21       36.0       39.9       20.0      29.89        134       0.00       0.00       0.00      0.000
1:25pm            316          3          7         45       75.9       39.5      29.78      40.21       37.8       39.8       19.9      29.89        134       0.00       0.00       0.00      0.000
1:26pm            323          4          8         45       75.9       39.5      29.78      40.21       36.7       39.8       19.9      29.89        133       0.00       0.00       0.00      0.000
1:27pm            325          5          7         45       76.0       39.6      29.78      40.21       36.0       39.9       20.0      29.89        133       0.00       0.00       0.00      0.000
1:28pm            307          3          6         46       76.0       39.6      29.78      40.21       37.9       40.0       20.5      29.89        133       0.00       0.00       0.00      0.000
1:29pm            281          4          8         45       76.0       39.7      29.78      40.21       37.0       40.0       20.1      29.89        134       0.00       0.00       0.00      0.000
1:30pm            316          7         11         45       75.9       39.7      29.78      40.21       34.8       40.0       20.1      29.89        134       0.00       0.00       0.00      0.000
1:31pm            353          7          8         44       76.0       39.7      29.78      40.21       34.8       40.0       19.6      29.89        134       0.00       0.00       0.00      0.000
1:32pm            281          8          9         44       76.0       39.8      29.77      40.21       34.3       40.1       19.7      29.88        136       0.00       0.00       0.00      0.000
1:33pm            261          5         12         44       76.0       39.8      29.77      40.21       36.2       40.1       19.7      29.88        136       0.00       0.00       0.00      0.000
1:34pm            334          4          5         44       76.0       39.8      29.77      40.21       37.1       40.1       19.7      29.88        136       0.00       0.00       0.00      0.000
1:35pm            354          7          9         44       76.0       39.9      29.77      40.21       35.0       40.2       19.8      29.88        135       0.00       0.00       0.00      0.000
1:36pm            359          2          7         44       76.0       39.9      29.77      40.21       39.7       40.2       19.8      29.88        136       0.00       0.00       0.00      0.000
1:37pm            311          1          3         44       76.0       40.0      29.77      40.21       40.0       40.3       19.9      29.88        135       0.00       0.00       0.00      0.000
1:38pm            337          5          6         45       76.0       40.1      29.77      40.21       36.6       40.4       20.5      29.88        136       0.00       0.00       0.00      0.000
1:39pm            335          3          8         44       76.0       40.1      29.77      40.21       38.5       40.4       20.0      29.88        135       0.00       0.00       0.00      0.000
1:40pm            311          3          6         44       76.0       40.1      29.77      40.21       38.5       40.4       20.0      29.88        135       0.00       0.00       0.00      0.000
1:41pm            346          4          5         44       76.0       40.1      29.77      40.21       37.4       40.4       20.0      29.88        136       0.00       0.00       0.00      0.000
1:42pm            267          6          7         44       76.0       40.1      29.77      40.21       35.9       40.4       20.0      29.88        135       0.00       0.00       0.00      0.000
1:43pm            272          8          8         44       76.0       40.1      29.77      40.21       34.7       40.4       20.0      29.88        135       0.00       0.00       0.00      0.000
1:44pm            240          2          8         45       76.0       40.1      29.77      40.21       39.9       40.4       20.5      29.88        135       0.00       0.00       0.00      0.000
1:45pm            297          3          3         44       75.9       40.1      29.77      40.21       38.5       40.4       20.0      29.88        135       0.00       0.00       0.00      0.000
1:46pm            352          3          6         44       76.0       40.2      29.78      40.21       38.6       40.5       20.0      29.89        134       0.00       0.00       0.00      0.000
1:47pm            328          5          8         43       75.9       40.1      29.78      40.21       36.6       40.3       19.4      29.89        134       0.00       0.00       0.00      0.000
1:48pm            345          3          7         43       75.9       40.1      29.78      40.21       38.5       40.3       19.4      29.89        134       0.00       0.00       0.00      0.000
1:49pm            302         12         12         43       75.9       40.0      29.78      40.21       32.8       40.2       19.3      29.89        134       0.00       0.00       0.00      0.000
1:50pm            321          9         12         43       75.9       39.9      29.78      40.21       34.0       40.1       19.2      29.89        131       0.00       0.00       0.00      0.000
1:51pm            346          3          6         43       75.9       39.8      29.78      40.21       38.1       40.0       19.1      29.89        131       0.00       0.00       0.00      0.000
1:52pm            235          5          9         42       76.0       39.7      29.78      40.21       36.1       39.8       18.5      29.89        129       0.00       0.00       0.00      0.000
1:53pm            265         11         11         42       75.9       39.6      29.78      40.21       32.7       39.7       18.4      29.89        128       0.00       0.00       0.00      0.000
1:54pm            250          2         14         42       75.9       39.5      29.78      40.21       39.2       39.6       18.3      29.89        129       0.00       0.00       0.00      0.000
1:55pm            349          1          6         42       75.9       39.3      29.78      40.21       39.3       39.4       18.1      29.89        130       0.00       0.00       0.00      0.000
1:56pm            276          5          6         42       75.9       39.2      29.78      40.21       35.5       39.3       18.1      29.89        130       0.00       0.00       0.00      0.000
1:57pm            328          3          6         43       76.0       39.1      29.78      40.21       37.3       39.3       18.5      29.89        129       0.00       0.00       0.00      0.000
1:58pm            264          9         10         43       75.9       39.1      29.78      40.21       33.0       39.3       18.5      29.89        129       0.00       0.00       0.00      0.000
1:59pm            343          3          9         43       75.9       39.0      29.78      40.21       37.2       39.2       18.4      29.89        129       0.00       0.00       0.00      0.000
2:00pm            273          4          6         43       76.0       39.0      29.78      40.21       36.2       39.2       18.4      29.89        128       0.00       0.00       0.00      0.000
2:01pm            319          1          5         43       75.9       39.1      29.78      40.21       39.1       39.3       18.5      29.89        128       0.00       0.00       0.00      0.000
2:02pm            263          1          5         44       75.9       39.2      29.78      40.21       39.2       39.5       19.1      29.89        126       0.00       0.00       0.00      0.000
2:03pm            252          2          4         44       75.9       39.3      29.78      40.21       39.0       39.6       19.2      29.89        126       0.00       0.00       0.00      0.000
2:04pm            293          3          7         44       75.9       39.5      29.78      40.21       37.8       39.8       19.4      29.89        127       0.00       0.00       0.00      0.000
2:05pm            247          9          9         43       75.9       39.6      29.78      40.21       33.6       39.8       19.0      29.89        126       0.00       0.00       0.00      0.000
2:06pm            260          4         12         44       75.9       39.7      29.78      40.21       37.0       40.0       19.6      29.89        126       0.00       0.00       0.00      0.000
2:07pm            268          5         14         43       75.9       40.0      29.79      40.21       36.5       40.2       19.3      29.90        125       0.00       0.00       0.00      0.000
2:08pm            342          6          8         43       75.9       40.2      29.79      40.21       36.0       40.4       19.5      29.90        121       0.00       0.00       0.00      0.000
2:09pm            335          4         14         42       75.9       40.4      29.79      40.21       37.8       40.5       19.1      29.90        119       0.00       0.00       0.00      0.000
2:10pm            311          2          7         42       75.9       40.5      29.79      40.21       40.3       40.6       19.2      29.90        119       0.00       0.00       0.00      0.000
2:11pm            335          6          8         41       75.9       40.6      29.79      40.21       36.5       40.6       18.8      29.90        119       0.00       0.00       0.00      0.000
2:12pm            331          5          6         41       76.0       40.6      29.79      40.21       37.2       40.6       18.8      29.90        119       0.00       0.00       0.00      0.000
2:13pm            341          4          7         40       75.9       40.6      29.79      40.21       38.0       40.5       18.2      29.90        118       0.00       0.00       0.00      0.000
2:14pm            334          5          7         41       75.9       40.6      29.79      40.21       37.2       40.6       18.8      29.90        117       0.00       0.00       0.00      0.000
2:15pm            319          2          5         41       75.9       40.6      29.79      40.21       40.4       40.6       18.8      29.90        120       0.00       0.00       0.00      0.000
2:16pm            259          5          7         41       75.9       40.6      29.79      40.21       37.2       40.6       18.8      29.90        119       0.00       0.00       0.00      0.000
2:17pm            327          5          9         41       75.9       40.7      29.79      40.21       37.3       40.7       18.8      29.90        119       0.00       0.00       0.00      0.000
2:18pm            288          7          9         41       76.0       40.7      29.79      40.21       36.0       40.7       18.8      29.90        119       0.00       0.00       0.00      0.000
2:19pm            299          5          8         41       76.0       40.7      29.79      40.21       37.3       40.7       18.8      29.90        119       0.00       0.00       0.00      0.000
2:20pm            317          6          7         41       76.0       40.8      29.79      40.21       36.7       40.8       18.9      29.90        117       0.00       0.00       0.00      0.000
2:21pm            302          4          7         41       76.0       40.8      29.79      40.21       38.2       40.8       18.9      29.90        117       0.00       0.00       0.00      0.000
2:22pm            188          4         13         41       76.0       40.8      29.79      40.21       38.2       40.8       18.9      29.90        119       0.00       0.00       0.00      0.000
2:23pm            245          5          5         41       76.0       40.8      29.79      40.21       37.4       40.8       18.9      29.90        119       0.00       0.00       0.00      0.000
2:24pm            283          3          6         42       76.0       40.8      29.79      40.21       39.3       40.9       19.5      29.90        119       0.00       0.00       0.00      0.000
2:25pm            325          0          4         42       76.0       40.9      29.79      40.21       40.9       41.0       19.6      29.90        120       0.00       0.00       0.00      0.000
2:26pm            319          7          7         41       76.0       40.9      29.79      40.21       36.2       40.9       19.0      29.90        121       0.00       0.00       0.00      0.000
2:27pm            356          4          8         41       76.0       40.9      29.79      40.21       38.4       40.9       19.0      29.90        119       0.00       0.00       0.00      0.000
2:28pm            328          6          8         42       76.0       40.9      29.79      40.21       36.8       41.0       19.6      29.90        116       0.00       0.00       0.00      0.000
2:29pm            289          5          9         41       76.0       40.9      29.79      40.21       37.5       40.9       19.0      29.90        118       0.00       0.00       0.00      0.000
2:30pm            272          3          8         40       76.0       40.8      29.79      40.21       39.3       40.7       18.4      29.90        117       0.00       0.00       0.00      0.000
2:31pm            328          5          6         41       76.0       40.8      29.79      40.21       37.4       40.8       18.9      29.90        117       0.00       0.00       0.00      0.000
2:32pm            330          8          8         40       76.0       40.7      29.79      40.21       35.4       40.6       18.3      29.90        117       0.00       0.00       0.00      0.000
2:33pm            325          2          8         40       76.0       40.6      29.80      40.21       40.4       40.5       18.2      29.91        115       0.00       0.00       0.00      0.000
2:34pm            259          5         10         41       76.0       40.6      29.80      40.21       37.2       40.6       18.8      29.91        114       0.00       0.00       0.00      0.000
2:35pm            309          3          8         41       76.0       40.6      29.80      40.21       39.0       40.6       18.8      29.91        114       0.00       0.00       0.00      0.000
2:36pm            281          7          7         40       76.0       40.5      29.80      40.21       35.7       40.4       18.1      29.91        114       0.00       0.00       0.00      0.000
2:37pm            326          2          7         41       76.0       40.5      29.80      40.21       40.3       40.5       18.7      29.91        114       0.00       0.00       0.00      0.000
2:38pm            322          3          5         41       76.0       40.5      29.80      40.21       38.9       40.5       18.7      29.91        114       0.00       0.00       0.00      0.000
2:39pm            282          2          8         41       76.0       40.5      29.80      40.21       40.3       40.5       18.7      29.91        113       0.00       0.00       0.00      0.000
2:40pm            308          3          5         41       76.0       40.5      29.80      40.21       38.9       40.5       18.7      29.91        115       0.00       0.00       0.00      0.000
2:41pm            348          2          7         41       76.0       40.5      29.80      40.21       40.3       40.5       18.7      29.91        113       0.00       0.00       0.00      0.000
2:42pm            250          4          5         41       76.0       40.6      29.80      40.21       38.0       40.6       18.8      29.91        114       0.00       0.00       0.00      0.000
2:43pm            326          5         10         42       76.0       40.6      29.80      40.21       37.2       40.7       19.3      29.91        113       0.00       0.00       0.00      0.000
2:44pm            286          5          8         42       76.0       40.6      29.80      40.21       37.2       40.7       19.3      29.91        110       0.00       0.00       0.00      0.000
2:45pm            293          4          7         41       76.0       40.6      29.80      40.21       38.0       40.6       18.8      29.91        111       0.00       0.00       0.00      0.000
2:46pm            290          2          6         41       76.0       40.6      29.80      40.21       40.4       40.6       18.8      29.91        110       0.00       0.00       0.00      0.000
2:47pm            293          5          7         41       76.0       40.6      29.80      40.21       37.2       40.6       18.8      29.91        109       0.00       0.00       0.00      0.000
2:48pm            262          5         15         41       75.9       40.6      29.80      40.21       37.2       40.6       18.8      29.91        108       0.00       0.00       0.00      0.000
2:49pm            299          3          8         41       75.9       40.6      29.80      40.21       39.0       40.6       18.8      29.91        108       0.00       0.00       0.00      0.000
2:50pm            245          6          7         41       75.9       40.5      29.80      40.21       36.4       40.5       18.7      29.91        109       0.00       0.00       0.00      0.000
2:51pm            297          4         12         41       75.9       40.5      29.80      40.21       37.9       40.5       18.7      29.91        108       0.00       0.00       0.00      0.000
2:52pm            322          4          6         41       75.9       40.5      29.80      40.21       37.9       40.5       18.7      29.91        107       0.00       0.00       0.00      0.000
2:53pm            293          2         10         41       75.9       40.5      29.81      40.21       40.3       40.5       18.7      29.92        106       0.00       0.00       0.00      0.000
2:54pm            281          3          8         41       75.9       40.5      29.80      40.21       38.9       40.5       18.7      29.91        107       0.00       0.00       0.00      0.000
2:55pm            275          5          8         41       75.9       40.4      29.81      40.21       36.9       40.4       18.6      29.92        106       0.00       0.00       0.00      0.000
2:56pm            285          6          9         41       76.0       40.4      29.80      40.21       36.2       40.4       18.6      29.91        107       0.00       0.00       0.00      0.000
2:57pm            316          5          6         41       76.0       40.3      29.81      40.21       36.8       40.3       18.5      29.92        106       0.00       0.00       0.00      0.000
2:58pm            326          4         10         41       76.0       40.2      29.80      40.21       37.5       40.2       18.4      29.91        107       0.00       0.00       0.00      0.000
2:59pm            253          6         11         41       75.9       40.2      29.80      40.21       36.0       40.2       18.4      29.91        107       0.00       0.00       0.00      0.000
3:00pm            283          6          8         41       76.0       40.2      29.80      40.21       36.0       40.2       18.4      29.91        107       0.00       0.00       0.00      0.000
3:01pm            265          6          8         41       75.9       40.1      29.81      40.21       35.9       40.1       18.3      29.92        105       0.00       0.00       0.00      0.000
3:02pm            283          6          8         41       75.9       40.1      29.81      40.21       35.9       40.1       18.3      29.92        104       0.00       0.00       0.00      0.000
3:03pm            282          6         13         41       75.9       40.0      29.81      40.21       35.8       40.0       18.2      29.92        103       0.00       0.00       0.00      0.000
3:04pm            290          3          7         41       76.0       40.0      29.81      40.21       38.4       40.0       18.2      29.92        103       0.00       0.00       0.00      0.000
3:05pm            280          4          7         41       75.9       40.0      29.81      40.21       37.3       40.0       18.2      29.92         99       0.00       0.00       0.00      0.000
3:06pm            313          7          7         42       76.0       39.9      29.81      40.21       35.0       40.0       18.7      29.92         98       0.00       0.00       0.00      0.000
3:07pm            313          2         13         41       76.0       39.9      29.81      40.21       39.7       39.9       18.1      29.92         98       0.00       0.00       0.00      0.000
3:08pm            285          3          3         42       75.9       39.8      29.82      40.21       38.1       39.9       18.6      29.93         94       0.00       0.00       0.00      0.000
3:09pm            260          7          7         42       75.9       39.8      29.82      40.21       34.9       39.9       18.6      29.93         94       0.00       0.00       0.00      0.000
3:10pm            336          4          7         42       75.9       39.8      29.82      40.21       37.1       39.9       18.6      29.93         95       0.00       0.00       0.00      0.000
3:11pm            324          2          4         42       75.9       39.8      29.82      40.21       39.5       39.9       18.6      29.93         95       0.00       0.00       0.00      0.000
3:12pm            290          4          5         42       75.9       39.8      29.82      40.21       37.1       39.9       18.6      29.93         95       0.00       0.00       0.00      0.000
3:13pm            279          4          4         42       75.9       39.8      29.82      40.21       37.1       39.9       18.6      29.93         95       0.00       0.00       0.00      0.000
3:14pm            278          3          4         42       75.9       39.8      29.82      40.21       38.1       39.9       18.6      29.93         95       0.00       0.00       0.00      0.000
3:15pm            264          3          5         42       75.9       39.8      29.82      40.21       38.1       39.9       18.6      29.93         94       0.00       0.00       0.00      0.000
3:16pm            290          3          8         42       75.9       39.8      29.82      40.21       38.1       39.9       18.6      29.93         94       0.00       0.00       0.00      0.000
3:17pm            332          5          5         42       75.9       39.8      29.82      40.21       36.2       39.9       18.6      29.93         94       0.00       0.00       0.00      0.000
3:18pm            302          7          8         42       75.9       39.8      29.82      40.21       34.9       39.9       18.6      29.93         94       0.00       0.00       0.00      0.000
3:19pm            285          3          8         42       75.9       39.8      29.82      40.21       38.1       39.9       18.6      29.93         94       0.00       0.00       0.00      0.000
3:20pm            289          5          7         42       75.9       39.8      29.82      40.21       36.2       39.9       18.6      29.93         95       0.00       0.00       0.00      0.000
3:21pm            318          4          5         42       75.9       39.8      29.82      40.21       37.1       39.9       18.6      29.93         95       0.00       0.00       0.00      0.000
3:22pm            303          3          7         42       75.9       39.8      29.82      40.21       38.1       39.9       18.6      29.93         96       0.00       0.00       0.00      0.000
3:23pm            316          2          8         42       75.9       39.7      29.82      40.21       39.4       39.8       18.5      29.93         96       0.00       0.00       0.00      0.000
3:24pm            329          5          5         42       75.9       39.7      29.82      40.21       36.1       39.8       18.5      29.93         95       0.00       0.00       0.00      0.000
3:25pm            325          0          5         43       75.9       39.7      29.82      40.21       39.7       39.9       19.1      29.93         94       0.00       0.00       0.00      0.000
3:26pm            326          4          5         43       75.9       39.7      29.82      40.21       37.0       39.9       19.1      29.93         92       0.00       0.00       0.00      0.000
3:27pm            360          4          7         42       75.9       39.7      29.82      40.21       37.0       39.8       18.5      29.93         92       0.00       0.00       0.00      0.000
3:28pm            324          6          7         42       75.9       39.7      29.82      40.21       35.4       39.8       18.5      29.93         91       0.00       0.00       0.00      0.000
3:29pm            289          3          5         43       75.9       39.7      29.82      40.21       38.0       39.9       19.1      29.93         92       0.00       0.00       0.00      0.000
3:30pm            288          4          6         43       75.9       39.6      29.82      40.21       36.9       39.8       19.0      29.93         92       0.00       0.00       0.00      0.000
3:31pm              1          2          5         42       75.9       39.6      29.82      40.21       39.3       39.7       18.4      29.93         91       0.00       0.00       0.00      0.000
3:32pm            327          2          5         43       75.9       39.6      29.83      40.21       39.3       39.8       19.0      29.93         88       0.00       0.00       0.00      0.000
3:33pm            333          4          4         43       75.9       39.6      29.82      40.21       36.9       39.8       19.0      29.93         89       0.00       0.00       0.00      0.000
3:34pm            359          4          4         43       75.9       39.6      29.82      40.21       36.9       39.8       19.0      29.93         89       0.00       0.00       0.00      0.000
3:35pm            351          0          5         42       75.9       39.6      29.82      40.21       39.6       39.7       18.4      29.93         90       0.00       0.00       0.00      0.000
3:36pm            323          4          7         43       75.8       39.5      29.83      40.21       36.7       39.7       18.9      29.94         87       0.00       0.00       0.00      0.000
3:37pm            321          7          7         43       75.9       39.6      29.83      40.21       34.7       39.8       19.0      29.93         88       0.00       0.00       0.00      0.000
3:38pm            334          1          7         43       75.9       39.6      29.83      40.21       39.6       39.8       19.0      29.94         87       0.00       0.00       0.00      0.000
3:39pm            256          2          4         43       75.9       39.6      29.83      40.21       39.3       39.8       19.0      29.94         86       0.00       0.00       0.00      0.000
3:40pm            316          2          3         43       75.9       39.6      29.83      40.21       39.3       39.8       19.0      29.94         86       0.00       0.00       0.00      0.000
3:41pm            321          2          3         43       75.8       39.6      29.83      40.21       39.3       39.8       19.0      29.94         86       0.00       0.00       0.00      0.000
3:42pm            250          4          5         43       75.9       39.6      29.83      40.21       36.9       39.8       19.0      29.94         87       0.00       0.00       0.00      0.000
3:43pm            336          2          6         43       75.9       39.6      29.83      40.21       39.3       39.8       19.0      29.94         85       0.00       0.00       0.00      0.000
3:44pm            329          3          5         43       75.8       39.6      29.83      40.21       37.9       39.8       19.0      29.94         84       0.00       0.00       0.00      0.000
3:45pm            320          3          6         43       75.9       39.6      29.83      40.21       37.9       39.8       19.0      29.94         83       0.00       0.00       0.00      0.000
3:46pm            276          4          5         43       75.9       39.5      29.83      40.21       36.7       39.7       18.9      29.94         83       0.00       0.00       0.00      0.000
3:47pm            302          1          4         43       75.9       39.5      29.83      40.21       39.5       39.7       18.9      29.94         83       0.00       0.00       0.00      0.000
3:48pm            339          2          6         43       75.9       39.5      29.83      40.21       39.2       39.7       18.9      29.94         81       0.00       0.00       0.00      0.000
3:49pm            293          2          5         43       75.9       39.3      29.83      40.21       39.0       39.5       18.7      29.94         81       0.00       0.00       0.00      0.000
3:50pm            295          3          4         43       75.9       39.3      29.83      40.21       37.6       39.5       18.7      29.94         80       0.00       0.00       0.00      0.000
3:51pm            298          2          4         43       75.9       39.2      29.84      40.21       38.9       39.4       18.6      29.94         79       0.00       0.00       0.00      0.000
3:52pm            320          1          4         43       75.9       39.1      29.84      40.21       39.1       39.3       18.5      29.95         77       0.00       0.00       0.00      0.000
3:53pm            309          1          5         43       75.9       39.0      29.84      40.21       39.0       39.2       18.4      29.94         79       0.00       0.00       0.00      0.000
3:54pm            356          4          5         44       75.9       39.0      29.84      40.21       36.2       39.3       19.0      29.95         78       0.00       0.00       0.00      0.000
3:55pm            344          4          4         44       75.9       38.9      29.84      40.21       36.0       39.2       18.9      29.95         74       0.00       0.00       0.00      0.000
3:56pm            307          2          4         44       75.9       38.8      29.84      40.21       38.4       39.1       18.8      29.95         71       0.00       0.00       0.00      0.000
3:57pm            271          3          4         44       75.9       38.7      29.84      40.21       36.9       39.0       18.7      29.95         71       0.00       0.00       0.00      0.000
3:58pm            329          6          6         44       75.9       38.6      29.85      40.21       34.1       38.9       18.6      29.95         69       0.00       0.00       0.00      0.000
3:59pm            282          2          6         44       75.9       38.5      29.84      40.21       38.1       38.8       18.5      29.95         70       0.00       0.00       0.00      0.000
4:00pm            257          7          8         44       75.9       38.4      29.84      40.21       33.2       38.7       18.4      29.95         70       0.00       0.00       0.00      0.000
4:01pm            295          2          7         44       75.9       38.3      29.84      40.21       37.9       38.6       18.3      29.95         70       0.00       0.00       0.00      0.000
4:02pm            297          3          7         45       75.9       38.2      29.85      40.21       36.3       38.5       18.7      29.96         68       0.00       0.00       0.00      0.000
4:03pm            285          2          4         45       75.9       38.2      29.85      40.21       37.8       38.5       18.7      29.95         69       0.00       0.00       0.00      0.000
4:04pm            333          5          5         45       75.9       38.1      29.85      40.21       34.2       38.4       18.7      29.96         68       0.00       0.00       0.00      0.000
4:05pm            322          3          7         45       75.9       38.0      29.85      40.21       36.1       38.3       18.6      29.95         69       0.00       0.00       0.00      0.000
4:06pm            310          4          8         45       75.9       37.9      29.85      40.21       34.9       38.2       18.5      29.95         69       0.00       0.00       0.00      0.000
4:07pm            275          3          9         45       75.9       37.8      29.85      40.21       35.9       38.1       18.4      29.95         69       0.00       0.00       0.00      0.000
4:08pm            285          5          7         45       75.9       37.8      29.84      40.21       33.9       38.1       18.4      29.95         71       0.00       0.00       0.00      0.000
4:09pm            270          3          5         45       75.9       37.8      29.84      40.21       35.9       38.1       18.4      29.95         70       0.00       0.00       0.00      0.000
4:10pm            283          3          7         45       75.9       37.7      29.84      40.21       35.8       38.0       18.3      29.95         72       0.00       0.00       0.00      0.000
4:11pm            281          5          7         45       75.8       37.7      29.84      40.21       33.8       38.0       18.3      29.95         70       0.00       0.00       0.00      0.000
4:12pm            307          1          5         45       75.9       37.6      29.85      40.21       37.6       37.9       18.2      29.95         69       0.00       0.00       0.00      0.000
4:13pm            293          2          2         45       75.9       37.6      29.85      40.21       37.1       37.9       18.2      29.95         69       0.00       0.00       0.00      0.000
4:14pm            265          1          6         45       75.9       37.5      29.85      40.21       37.5       37.8       18.1      29.95         69       0.00       0.00       0.00      0.000
4:15pm            262          5          5         45       75.8       37.5      29.85      40.21       33.5       37.8       18.1      29.95         69       0.00       0.00       0.00      0.000
4:16pm            272          3          6         45       75.9       37.5      29.85      40.21       35.5       37.8       18.1      29.95         69       0.00       0.00       0.00      0.000
4:17pm            272          1          3         45       75.9       37.4      29.85      40.21       37.4       37.7       18.0      29.96         68       0.00       0.00       0.00      0.000
4:18pm            235         11         11         45       75.8       37.4      29.85      40.21       30.0       37.7       18.0      29.96         68       0.00       0.00       0.00      0.000
4:19pm            292          4         11         46       75.8       37.4      29.85      40.21       34.3       37.8       18.5      29.96         68       0.00       0.00       0.00      0.000
4:20pm            252          2          8         46       75.9       37.3      29.85      40.21       36.8       37.7       18.4      29.96         67       0.00       0.00       0.00      0.000
4:21pm            252          0          2         46       75.9       37.3      29.85      40.21       37.3       37.7       18.4      29.96         68       0.00       0.00       0.00      0.000
4:22pm            330          3          4         46       75.9       37.3      29.85      40.21       35.3       37.7       18.4      29.96         67       0.00       0.00       0.00      0.000
4:23pm            300          2          3         46       75.9       37.3      29.85      40.21       36.8       37.7       18.4      29.96         66       0.00       0.00       0.00      0.000
4:24pm            269          4          5         46       75.9       37.3      29.85      40.21       34.2       37.7       18.4      29.96         65       0.00       0.00       0.00      0.000
4:25pm            267          1          4         46       75.9       37.2      29.85      40.21       37.2       37.6       18.3      29.96         63       0.00       0.00       0.00      0.000
4:26pm            320          1          3         46       75.8       37.2      29.85      40.21       37.2       37.6       18.3      29.96         61       0.00       0.00       0.00      0.000
4:27pm            320          1          3         46       75.8       37.2      29.85      40.21       37.2       37.6       18.3      29.96         61       0.00       0.00       0.00      0.000
4:28pm            320          2          3         46       75.8       37.2      29.85      40.21       36.7       37.6       18.3      29.96         61       0.00       0.00       0.00      0.000
4:29pm            323          2          3         46       75.8       37.1      29.85      40.21       36.6       37.5       18.3      29.96         62       0.00       0.00       0.00      0.000
4:30pm            326          1          4         46       75.8       37.1      29.85      40.21       37.1       37.5       18.3      29.96         62       0.00       0.00       0.00      0.000
4:31pm            338          1          4         47       75.8       37.1      29.85      40.21       37.1       37.6       18.8      29.96         61       0.00       0.00       0.00      0.000
4:32pm            336          3          3         47       75.8       37.1      29.85      40.21       35.1       37.6       18.8      29.96         62       0.00       0.00       0.00      0.000
4:33pm            336          2          3         47       75.8       37.1      29.85      40.21       36.6       37.6       18.8      29.96         64       0.00       0.00       0.00      0.000
4:34pm            319          3          5         47       75.8       37.1      29.85      40.21       35.1       37.6       18.8      29.96         63       0.00       0.00       0.00      0.000
4:35pm            301          2          3         47       75.8       37.0      29.85      40.21       36.5       37.5       18.7      29.96         63       0.00       0.00       0.00      0.000
4:36pm            342          2          3         48       75.8       37.0      29.85      40.21       36.5       37.6       19.1      29.96         67       0.00       0.00       0.00      0.000
4:37pm            340          2          6         48       75.8       37.0      29.85      40.21       36.5       37.6       19.1      29.96         68       0.00       0.00       0.00      0.000
4:38pm            295          5          5         48       75.8       37.0      29.85      40.21       32.9       37.6       19.1      29.96         67       0.00       0.00       0.00      0.000
4:39pm            295          3          6         48       75.8       36.9      29.85      40.21       34.9       37.5       19.1      29.96         67       0.00       0.00       0.00      0.000
4:40pm            318          2          3         48       75.8       36.9      29.85      40.21       36.4       37.5       19.1      29.96         65       0.00       0.00       0.00      0.000
4:41pm            318          2          3         48       75.8       36.8      29.85      40.21       36.2       37.4       19.0      29.96         66       0.00       0.00       0.00      0.000
4:42pm            328          2          2         48       75.8       36.8      29.85      40.21       36.2       37.4       19.0      29.96         66       0.00       0.00       0.00      0.000
4:43pm            325          4          6         48       75.8       36.8      29.85      40.21       33.6       37.4       19.0      29.96         65       0.00       0.00       0.00      0.000
4:44pm            311          3          4         48       75.8       36.7      29.85      40.21       34.6       37.3       18.9      29.96         65       0.00       0.00       0.00      0.000
4:45pm            328          2          4         48       75.7       36.7      29.85      40.21       36.1       37.3       18.9      29.96         64       0.00       0.00       0.00      0.000
4:46pm            330          2          2         48       75.7       36.6      29.85      40.21       36.0       37.2       18.8      29.96         62       0.00       0.00       0.00      0.000
4:47pm            299          2          6         48       75.7       36.6      29.85      40.21       36.0       37.2       18.8      29.96         62       0.00       0.00       0.00      0.000
4:48pm            313          3          4         48       75.7       36.6      29.86      40.21       34.5       37.2       18.8      29.97         59       0.00       0.00       0.00      0.000
4:49pm            342          3          4         48       75.7       36.5      29.86      40.21       34.4       37.1       18.7      29.97         60       0.00       0.00       0.00      0.000
4:50pm            333          1          3         48       75.7       36.5      29.86      40.21       36.5       37.1       18.7      29.97         58       0.00       0.00       0.00      0.000
4:51pm            340          2          5         48       75.7       36.5      29.86      40.21       35.9       37.1       18.7      29.97         57       0.00       0.00       0.00      0.000
4:52pm            269          7          7         48       75.7       36.5      29.86      40.21       30.9       37.1       18.7      29.97         57       0.00       0.00       0.00      0.000
4:53pm            300          2          7         48       75.7       36.4      29.86      40.21       35.8       37.0       18.6      29.97         55       0.00       0.00       0.00      0.000
4:54pm            335          1          4         48       75.7       36.4      29.86      40.21       36.4       37.0       18.6      29.97         54       0.00       0.00       0.00      0.000
4:55pm            316          3          4         48       75.7       36.4      29.86      40.21       34.3       37.0       18.6      29.97         56       0.00       0.00       0.00      0.000
4:56pm            290          3          5         48       75.7       36.4      29.86      40.21       34.3       37.0       18.6      29.97         56       0.00       0.00       0.00      0.000
4:57pm            352          5          7         48       75.7       36.3      29.86      40.21       32.1       36.9       18.5      29.97         56       0.00       0.00       0.00      0.000
4:58pm            354          3          5         47       75.7       36.3      29.86      40.21       34.2       36.8       18.0      29.97         56       0.00       0.00       0.00      0.000
4:59pm            292          3          3         48       75.7       36.3      29.86      40.21       34.2       36.9       18.5      29.97         56       0.00       0.00       0.00      0.000
5:00pm            250          3          6         48       75.7       36.2      29.86      40.21       34.1       36.8       18.4      29.97         56       0.00       0.00       0.00      0.000
5:01pm            264          2          3         48       75.7       36.2      29.86      40.21       35.6       36.8       18.4      29.97         56       0.00       0.00       0.00      0.000
5:02pm            277          0          2         48       75.7       36.2      29.86      40.21       36.2       36.8       18.4      29.97         54       0.00       0.00       0.00      0.000
5:03pm            266          1          3         48       75.6       36.1      29.86      40.21       36.1       36.7       18.3      29.97         54       0.00       0.00       0.00      0.000
5:04pm            342          2          3         48       75.6       36.1      29.87      40.21       35.5       36.7       18.3      29.98         50       0.00       0.00       0.00      0.000
5:05pm            342          1          3         48       75.6       36.1      29.86      40.21       36.1       36.7       18.3      29.98         51       0.00       0.00       0.00      0.000
5:06pm            347          3          3         48       75.6       36.0      29.87      40.21       33.8       36.6       18.2      29.98         48       0.00       0.00       0.00      0.000
5:07pm            360          2          5         48       75.6       36.0      29.87      40.21       35.4       36.6       18.2      29.98         47       0.00       0.00       0.00      0.000
5:08pm            323          3          3         48       75.6       36.0      29.87      40.21       33.8       36.6       18.2      29.98         46       0.00       0.00       0.00      0.000
5:09pm            331          3          3         48       75.6       35.9      29.87      40.21       33.7       36.5       18.1      29.98         44       0.00       0.00       0.00      0.000
5:10pm            341          1          7         48       75.6       35.9      29.87      40.21       35.9       36.5       18.1      29.99         42       0.00       0.00       0.00      0.000
5:11pm            295          1          4         48       75.6       35.9      29.87      40.21       35.9       36.5       18.1      29.99         42       0.00       0.00       0.00      0.000
5:12pm              1          3          3         48       75.6       35.9      29.88      40.21       33.7       36.5       18.1      29.99         41       0.00       0.00       0.00      0.000
5:13pm            356          1          5         48       75.6       35.9      29.88      40.21       35.9       36.5       18.1      29.99         39       0.00       0.00       0.00      0.000
5:14pm            356          0          2         48       75.6       35.8      29.88      40.21       35.8       36.4       18.0      29.99         39       0.00       0.00       0.00      0.000
5:15pm            276          0          3         48       75.6       35.8      29.88      40.21       35.8       36.4       18.0      29.99         38       0.00       0.00       0.00      0.000
5:16pm            276          0          1         48       75.6       35.8      29.88      40.21       35.8       36.4       18.0      29.99         34       0.00       0.00       0.00      0.000
5:17pm            278          1          2         48       75.6       35.8      29.88      40.21       35.8       36.4       18.0      30.00         32       0.00       0.00       0.00      0.000
5:18pm            278          0          1         48       75.6       35.8      29.89      40.21       35.8       36.4       18.0      30.00         32       0.00       0.00       0.00      0.000
5:19pm            278          0          1         48       75.6       35.8      29.89      40.21       35.8       36.4       18.0      30.00         31       0.00       0.00       0.00      0.000
5:20pm            278          1          2         48       75.6       35.8      29.89      40.21       35.8       36.4       18.0      30.00         30       0.00       0.00       0.00      0.000
5:21pm            278          2          4         48       75.5       35.8      29.89      40.21       35.1       36.4       18.0      30.00         30       0.00       0.00       0.00      0.000
5:22pm            278          2          3         48       75.5       35.7      29.89      40.21       35.0       36.3       18.0      30.00         31       0.00       0.00       0.00      0.000
5:23pm            278          0          2         48       75.5       35.7      29.89      40.21       35.7       36.3       18.0      30.00         30       0.00       0.00       0.00      0.000
5:24pm            338          4          4         48       75.5       35.7      29.89      40.21       32.4       36.3       18.0      30.00         31       0.00       0.00       0.00      0.000
5:25pm            311          1          4         48       75.5       35.7      29.89      40.21       35.7       36.3       18.0      30.00         31       0.00       0.00       0.00      0.000
5:26pm            325          3          4         48       75.5       35.7      29.89      40.21       33.5       36.3       18.0      30.00         32       0.00       0.00       0.00      0.000
5:27pm            314          2          3         48       75.5       35.6      29.89      40.21       34.9       36.2       17.9      30.00         32       0.00       0.00       0.00      0.000
5:28pm            296          3          3         49       75.5       35.6      29.89      40.21       33.4       36.3       18.3      30.00         32       0.00       0.00       0.00      0.000
5:29pm            321          6          6         50       75.5       35.6      29.88      40.21       30.5       36.4       18.8      30.00         32       0.00       0.00       0.00      0.000
5:30pm            264          7          7         50       75.5       35.5      29.88      40.21       29.7       36.3       18.7      30.00         32       0.00       0.00       0.00      0.000
5:31pm            336          5          9         49       75.4       35.5      29.88      40.21       31.2       36.2       18.2      29.99         34       0.00       0.00       0.00      0.000
5:32pm            351          4         10         49       75.4       35.5      29.88      40.21       32.1       36.2       18.2      29.99         35       0.00       0.00       0.00      0.000
5:33pm            312          6          6         49       75.4       35.5      29.88      40.21       30.4       36.2       18.2      29.99         34       0.00       0.00       0.00      0.000
5:34pm            338          2          6         49       75.4       35.5      29.88      40.21       34.8       36.2       18.2      29.99         35       0.00       0.00       0.00      0.000
5:35pm            343          4          5         49       75.4       35.4      29.88      40.21       32.0       36.1       18.2      29.99         33       0.00       0.00       0.00      0.000
5:36pm            287          3          5         49       75.4       35.4      29.88      40.21       33.2       36.1       18.2      30.00         32       0.00       0.00       0.00      0.000
5:37pm            305          4          9         49       75.4       35.4      29.89      40.21       32.0       36.1       18.2      30.00         32       0.00       0.00       0.00      0.000
5:38pm            282          3          4         49       75.4       35.4      29.89      40.21       33.2       36.1       18.2      30.00         30       0.00       0.00       0.00      0.000
5:39pm            342          3          5         49       75.3       35.4      29.89      40.21       33.2       36.1       18.2      30.00         28       0.00       0.00       0.00      0.000
5:40pm            342          0          3         49       75.3       35.4      29.89      40.21       35.4       36.1       18.2      30.00         27       0.00       0.00       0.00      0.000
5:41pm            351          2          3         49       75.3       35.4      29.89      40.21       34.7       36.1       18.2      30.00         25       0.00       0.00       0.00      0.000
5:42pm            330          1          5         49       75.3       35.4      29.90      40.21       35.4       36.1       18.2      30.01         22       0.00       0.00       0.00      0.000
5:43pm            340          3          4         49       75.3       35.4      29.90      40.21       33.2       36.1       18.2      30.01         21       0.00       0.00       0.00      0.000
5:44pm            326          3          5         49       75.3       35.4      29.90      40.21       33.2       36.1       18.2      30.01         20       0.00       0.00       0.00      0.000
5:45pm            330          1          4         48       75.3       35.3      29.90      40.21       35.3       35.9       17.6      30.01         20       0.00       0.00       0.00      0.000
5:46pm            330          2          2         48       75.3       35.3      29.90      40.21       34.6       35.9       17.6      30.01         19       0.00       0.00       0.00      0.000
5:47pm             40          2          3         48       75.3       35.3      29.90      40.21       34.6       35.9       17.6      30.01         20       0.00       0.00       0.00      0.000
5:48pm              9          1          5         48       75.3       35.4      29.90      40.21       35.4       36.0       17.7      30.01         20       0.00       0.00       0.00      0.000
5:49pm            349          3          8         48       75.3       35.4      29.90      40.21       33.2       36.0       17.7      30.01         20       0.00       0.00       0.00      0.000
5:50pm            242          2          3         48       75.3       35.3      29.90      40.21       34.6       35.9       17.6      30.01         20       0.00       0.00       0.00      0.000
5:51pm            211          1          2         48       75.3       35.3      29.90      40.21       35.3       35.9       17.6      30.01         20       0.00       0.00       0.00      0.000
5:52pm            211          2          2         48       75.2       35.3      29.90      40.21       34.6       35.9       17.6      30.01         18       0.00       0.00       0.00      0.000
5:53pm            359          4          4         48       75.2       35.3      29.90      40.21       31.9       35.9       17.6      30.01         18       0.00       0.00       0.00      0.000
5:54pm            287          2          7         48       75.2       35.3      29.90      40.21       34.6       35.9       17.6      30.01         18       0.00       0.00       0.00      0.000
5:55pm            229          9          9         48       75.2       35.3      29.90      40.21       28.3       35.9       17.6      30.01         18       0.00       0.00       0.00      0.000
5:55pm            288          2          9         48       75.2       35.2      29.90      40.21       34.5       35.8       17.5      30.01         18       0.00       0.00       0.00      0.000
5:57pm            297          2          2         48       75.2       35.2      29.90      40.21       34.5       35.8       17.5      30.01         19       0.00       0.00       0.00      0.000
5:58pm            324          4          5         48       75.2       35.2      29.90      40.21       31.8       35.8       17.5      30.01         19       0.00       0.00       0.00      0.000
5:59pm            338          6          6         48       75.2       35.2      29.90      40.21       30.0       35.8       17.5      30.01         20       0.00       0.00       0.00      0.000
6:00pm            309          3         10         48       75.2       35.2      29.90      40.21       32.9       35.8       17.5      30.01         20       0.00       0.00       0.00      0.000
6:01pm            258          3          4         48       75.2       35.2      29.90      40.21       32.9       35.8       17.5      30.01         20       0.00       0.00       0.00      0.000
6:02pm            313          3          3         48       75.2       35.2      29.90      40.21       32.9       35.8       17.5      30.01         19       0.00       0.00       0.00      0.000
6:03pm            359          5          5         48       75.2       35.2      29.90      40.21       30.8       35.8       17.5      30.01         19       0.00       0.00       0.00      0.000
6:04pm            251          3          6         48       75.1       35.1      29.90      40.21       32.8       35.7       17.4      30.01         20       0.00       0.00       0.00      0.000
6:05pm            262          1          3         48       75.1       35.1      29.90      40.21       35.1       35.7       17.4      30.01         17       0.00       0.00       0.00      0.000
6:06pm            321          5          5         48       75.2       35.1      29.90      40.21       30.7       35.7       17.4      30.01         17       0.00       0.00       0.00      0.000
6:07pm            295          2          6         48       75.1       35.1      29.90      40.21       34.4       35.7       17.4      30.01         15       0.00       0.00       0.00      0.000
6:08pm            338          0          3         48       75.1       35.1      29.91      40.21       35.1       35.7       17.4      30.02         12       0.00       0.00       0.00      0.000
6:09pm            327          2          3         48       75.2       35.0      29.91      40.21       34.3       35.6       17.3      30.02         11       0.00       0.00       0.00      0.000
6:10pm              5          0          5         48       75.2       35.0      29.91      40.21       35.0       35.6       17.3      30.02         11       0.00       0.00       0.00      0.000
6:11pm              4          1          2         48       75.1       35.0      29.91      40.21       35.0       35.6       17.3      30.02         12       0.00       0.00       0.00      0.000
6:12pm              4          1          2         48       75.1       35.0      29.91      40.21       35.0       35.6       17.3      30.02         12       0.00       0.00       0.00      0.000
6:13pm            360          2          2         48       75.1       35.0      29.91      40.21       34.3       35.6       17.3      30.02         11       0.00       0.00       0.00      0.000
6:14pm            279          2          3         48       75.1       35.0      29.91      40.21       34.3       35.6       17.3      30.02          8       0.00       0.00       0.00      0.000
6:15pm            323          3          3         48       75.1       35.0      29.91      40.21       32.7       35.6       17.3      30.02          8       0.00       0.00       0.00      0.000
6:16pm            320          1          4         48       75.1       35.0      29.91      40.21       35.0       35.6       17.3      30.02          8       0.00       0.00       0.00      0.000
6:17pm            309          2          4         48       75.1       34.9      29.91      40.21       34.2       35.5       17.2      30.02          8       0.00       0.00       0.00      0.000
6:18pm            358          4          6         48       75.1       34.9      29.91      40.21       31.4       35.5       17.2      30.02          8       0.00       0.00       0.00      0.000
6:19pm            295          2          6         48       75.1       34.9      29.91      40.21       34.2       35.5       17.2      30.02          9       0.00       0.00       0.00      0.000
6:20pm            292          3          4         48       75.1       34.9      29.91      40.21       32.6       35.5       17.2      30.02          9       0.00       0.00       0.00      0.000
6:21pm            327          4          4         49       75.1       34.9      29.91      40.21       31.4       35.6       17.7      30.02          9       0.00       0.00       0.00      0.000
6:22pm            352          3          7         49       75.1       34.9      29.91      40.21       32.6       35.6       17.7      30.02         10       0.00       0.00       0.00      0.000
6:22pm            356          2          5         48       75.1       34.8      29.91      40.21       34.0       35.4       17.1      30.02         10       0.00       0.00       0.00      0.000
6:24pm            333          3          5         48       75.1       34.8      29.91      40.21       32.5       35.4       17.1      30.02         10       0.00       0.00       0.00      0.000
6:25pm            302          2          6         49       75.1       34.8      29.91      40.21       34.0       35.5       17.6      30.02         10       0.00       0.00       0.00      0.000
6:26pm            314          8          9         49       75.1       34.8      29.91      40.21       28.3       35.5       17.6      30.02          9       0.00       0.00       0.00      0.000
6:27pm            336          3         10         49       75.1       34.8      29.91      40.21       32.5       35.5       17.6      30.02          7       0.00       0.00       0.00      0.000
6:28pm            261          3          5         49       75.1       34.8      29.91      40.21       32.5       35.5       17.6      30.02          7       0.00       0.00       0.00      0.000
6:29pm            277          1          3         49       75.1       34.8      29.92      40.21       34.8       35.5       17.6      30.03          4       0.00       0.00       0.00      0.000
6:30pm            283          1          4         49       75.1       34.8      29.92      40.21       34.8       35.5       17.6      30.03          2       0.00       0.00       0.00      0.000
6:31pm            283          0          1         49       75.1       34.8      29.92      40.21       34.8       35.5       17.6      30.03          2       0.00       0.00       0.00      0.000
6:32pm            283          1          1         49       75.1       34.8      29.92      40.21       34.8       35.5       17.6      30.03         -1       0.00       0.00       0.00      0.000
6:33pm             45          3          3         49       75.1       34.7      29.92      40.21       32.4       35.4       17.5      30.03         -1       0.00       0.00       0.00      0.000
6:34pm            339          3          8         49       75.1       34.7      29.92      40.21       32.4       35.4       17.5      30.03         -2       0.00       0.00       0.00      0.000
6:35pm            349          5          8         49       75.1       34.7      29.92      40.21       30.2       35.4       17.5      30.03         -1       0.00       0.00       0.00      0.000
6:36pm            300          2          5         49       75.1       34.7      29.92      40.21       33.9       35.4       17.5      30.03         -3       0.00       0.00       0.00      0.000
6:37pm            298          2          5         49       75.1       34.7      29.92      40.21       33.9       35.4       17.5      30.03         -3       0.00       0.00       0.00      0.000
6:38pm            354          4          4         49       75.1       34.7      29.92      40.21       31.2       35.4       17.5      30.03         -3       0.00       0.00       0.00      0.000
6:39pm            308          4          6         49       75.1       34.6      29.92      40.21       31.1       35.3       17.4      30.03         -2       0.00       0.00       0.00      0.000
6:40pm            263          2          5         49       75.1       34.6      29.92      40.21       33.8       35.3       17.4      30.03         -1       0.00       0.00       0.00      0.000
6:41pm            268          0          3         49       75.1       34.6      29.92      40.21       34.6       35.3       17.4      30.03         -1       0.00       0.00       0.00      0.000
6:42pm            302          3          3         49       75.1       34.6      29.92      40.21       32.3       35.3       17.4      30.03          1       0.00       0.00       0.00      0.000
6:43pm            351          3          4         49       75.1       34.6      29.92      40.21       32.3       35.3       17.4      30.03          1       0.00       0.00       0.00      0.000
6:44pm            352          1          3         49       75.1       34.5      29.92      40.21       34.5       35.2       17.3      30.03          0       0.00       0.00       0.00      0.000
6:45pm            340          3          6         50       75.1       34.5      29.92      40.21       32.1       35.3       17.8      30.03          1       0.00       0.00       0.00      0.000
6:46pm            341          3          5         50       75.1       34.5      29.92      40.21       32.1       35.3       17.8      30.03         -1       0.00       0.00       0.00      0.000
6:47pm              6          1          4         49       75.1       34.5      29.92      40.21       34.5       35.2       17.3      30.03         -2       0.00       0.00       0.00      0.000
6:48pm            356          5          6         49       75.1       34.5      29.92      40.21       30.0       35.2       17.3      30.03         -2       0.00       0.00       0.00      0.000
6:49pm            343          3          6         50       75.1       34.5      29.92      40.21       32.1       35.3       17.8      30.03         -2       0.00       0.00       0.00      0.000
6:50pm            345          3          4         49       75.1       34.4      29.92      40.21       32.0       35.1       17.2      30.03         -3       0.00       0.00       0.00      0.000
6:51pm            341          1          4         49       75.1       34.4      29.92      40.21       34.4       35.1       17.2      30.03         -4       0.00       0.00       0.00      0.000
6:52pm            313          1          4         49       75.1       34.5      29.92      40.21       34.5       35.2       17.3      30.03         -4       0.00       0.00       0.00      0.000
6:53pm            312          1          2         50       75.1       34.4      29.93      40.21       34.4       35.2       17.7      30.04         -5       0.00       0.00       0.00      0.000
6:54pm            322          4          6         50       75.1       34.4      29.93      40.21       30.8       35.2       17.7      30.04         -6       0.00       0.00       0.00      0.000
6:55pm            339          2          5         50       75.1       34.4      29.93      40.21       33.6       35.2       17.7      30.04         -7       0.00       0.00       0.00      0.000
6:56pm            338          4          5         50       75.1       34.4      29.93      40.21       30.8       35.2       17.7      30.04         -8       0.00       0.00       0.00      0.000
6:57pm            304          4          7         50       75.1       34.4      29.93      40.21       30.8       35.2       17.7      30.04         -9       0.00       0.00       0.00      0.000
6:58pm            360          3          6         50       75.1       34.4      29.93      40.21       32.0       35.2       17.7      30.04         -9       0.00       0.00       0.00      0.000
6:59pm            340          3          3         50       75.1       34.4      29.93      40.21       32.0       35.2       17.7      30.04         -8       0.00       0.00       0.00      0.000
7:00pm            347          4          6         50       75.1       34.4      29.93      40.21       30.8       35.2       17.7      30.04         -9       0.00       0.00       0.00      0.000
7:01pm            359          6          6         49       75.1       34.3      29.93      40.21       29.0       35.0       17.1      30.04         -7       0.00       0.00       0.00      0.000
7:02pm            333          3          6         49       75.1       34.3      29.93      40.21       31.9       35.0       17.1      30.04         -7       0.00       0.00       0.00      0.000
7:03pm            337          3          7         50       75.1       34.4      29.93      40.21       32.0       35.2       17.7      30.04         -7       0.00       0.00       0.00      0.000
7:04pm            300          2          4         50       75.0       34.3      29.93      40.21       33.5       35.1       17.6      30.04         -9       0.00       0.00       0.00      0.000
7:05pm            327          1          3         50       75.1       34.3      29.93      40.21       34.3       35.1       17.6      30.04        -10       0.00       0.00       0.00      0.000
7:06pm            333          4          4         50       75.1       34.3      29.93      40.21       30.7       35.1       17.6      30.04        -10       0.00       0.00       0.00      0.000
7:07pm            358          5          5         50       75.1       34.3      29.93      40.21       29.8       35.1       17.6      30.04        -10       0.00       0.00       0.00      0.000
7:08pm            321          2          5         50       75.0       34.3      29.93      40.21       33.5       35.1       17.6      30.04         -9       0.00       0.00       0.00      0.000
7:09pm              4          3          6         50       75.0       34.3      29.93      40.21       31.9       35.1       17.6      30.04        -10       0.00       0.00       0.00      0.000
7:10pm            321          2          6         50       75.0       34.3      29.93      40.21       33.5       35.1       17.6      30.04        -10       0.00       0.00       0.00      0.000
7:11pm            333          3          4         50       75.0       34.3      29.93      40.21       31.9       35.1       17.6      30.04        -10       0.00       0.00       0.00      0.000
7:12pm            278          2          4         50       75.0       34.3      29.93      40.21       33.5       35.1       17.6      30.04        -11       0.00       0.00       0.00      0.000
7:13pm            335          5          8         50       75.0       34.3      29.93      40.21       29.8       35.1       17.6      30.05        -14       0.00       0.00       0.00      0.000
7:14pm             18          3          6         50       75.0       34.3      29.94      40.21       31.9       35.1       17.6      30.05        -15       0.00       0.00       0.00      0.000
7:15pm            267          3          4         50       75.0       34.3      29.94      40.21       31.9       35.1       17.6      30.05        -15       0.00       0.00       0.00      0.000
7:16pm            330          4          4         50       75.0       34.3      29.94      40.21       30.7       35.1       17.6      30.05        -16       0.00       0.00       0.00      0.000
7:17pm            326          3          4         50       75.0       34.3      29.94      40.21       31.9       35.1       17.6      30.05        -15       0.00       0.00       0.00      0.000
7:18pm            316          2          4         50       75.0       34.3      29.94      40.21       33.5       35.1       17.6      30.05        -15       0.00       0.00       0.00      0.000
7:19pm              1          2          4         50       74.9       34.3      29.94      40.21       33.5       35.1       17.6      30.05        -16       0.00       0.00       0.00      0.000
7:20pm            360          2          3         50       74.9       34.3      29.94      40.21       33.5       35.1       17.6      30.05        -17       0.00       0.00       0.00      0.000
7:21pm            329          4          6         50       74.9       34.3      29.94      40.21       30.7       35.1       17.6      30.05        -16       0.00       0.00       0.00      0.000
7:22pm            324          2          5         50       74.9       34.2      29.94      40.21       33.4       35.0       17.5      30.05        -17       0.00       0.00       0.00      0.000
7:23pm            326          5          6         50       74.9       34.2      29.94      40.21       29.7       35.0       17.5      30.05        -16       0.00       0.00       0.00      0.000
7:24pm            307          3          5         50       74.9       34.2      29.94      40.21       31.8       35.0       17.5      30.05        -16       0.00       0.00       0.00      0.000
7:25pm            330          4          4         50       74.9       34.2      29.94      40.21       30.6       35.0       17.5      30.05        -15       0.00       0.00       0.00      0.000
7:26pm            331          3          7         50       74.9       34.2      29.93      40.21       31.8       35.0       17.5      30.05        -14       0.00       0.00       0.00      0.000
7:27pm            320          4          4         50       74.9       34.2      29.93      40.21       30.6       35.0       17.5      30.05        -14       0.00       0.00       0.00      0.000
7:28pm            307          4          5         50       74.9       34.2      29.94      40.21       30.6       35.0       17.5      30.05        -15       0.00       0.00       0.00      0.000
7:29pm            324          4          6         50       74.9       34.1      29.94      40.21       30.5       34.9       17.4      30.05        -15       0.00       0.00       0.00      0.000
7:30pm            297          1          7         50       74.9       34.1      29.94      40.21       34.1       34.9       17.4      30.05        -16       0.00       0.00       0.00      0.000
7:31pm            297          1          1         50       74.9       34.1      29.94      40.21       34.1       34.9       17.4      30.05        -15       0.00       0.00       0.00      0.000
7:32pm            316          1          3         50       74.8       34.1      29.94      40.21       34.1       34.9       17.4      30.05        -17       0.00       0.00       0.00      0.000
7:33pm            316          0          2         50       74.8       34.1      29.94      40.21       34.1       34.9       17.4      30.05        -17       0.00       0.00       0.00      0.000
7:34pm            323          2          6         50       74.8       34.1      29.94      40.21       33.3       34.9       17.4      30.05        -17       0.00       0.00       0.00      0.000
7:35pm            315          2          3         50       74.8       34.1      29.94      40.21       33.3       34.9       17.4      30.05        -16       0.00       0.00       0.00      0.000
7:36pm             21          2          4         50       74.8       34.1      29.94      40.21       33.3       34.9       17.4      30.05        -17       0.00       0.00       0.00      0.000
7:37pm            328          0          3         50       74.8       34.1      29.94      40.21       34.1       34.9       17.4      30.05        -18       0.00       0.00       0.00      0.000
7:38pm            349          3          3         50       74.8       34.1      29.94      40.21       31.7       34.9       17.4      30.05        -18       0.00       0.00       0.00      0.000
7:39pm            255          4          6         50       74.8       34.0      29.94      40.21       30.4       34.8       17.3      30.05        -19       0.00       0.00       0.00      0.000
7:40pm             11          1          6         50       74.8       34.0      29.94      40.21       34.0       34.8       17.3      30.05        -21       0.00       0.00       0.00      0.000
7:41pm            265          4          4         50       74.8       34.0      29.94      40.21       30.4       34.8       17.3      30.05        -21       0.00       0.00       0.00      0.000
7:42pm            322          4          5         50       74.8       34.0      29.94      40.21       30.4       34.8       17.3      30.06        -23       0.00       0.00       0.00      0.000
7:43pm            319          2          4         50       74.8       34.0      29.94      40.21       33.2       34.8       17.3      30.05        -22       0.00       0.00       0.00      0.000
7:44pm            317          1          2         51       74.8       34.0      29.95      40.21       34.0       34.9       17.8      30.06        -24       0.00       0.00       0.00      0.000
7:45pm            283          0          3         51       74.8       34.0      29.94      40.21       34.0       34.9       17.8      30.06        -23       0.00       0.00       0.00      0.000
7:46pm            283          0          1         51       74.8       34.0      29.94      40.21       34.0       34.9       17.8      30.06        -23       0.00       0.00       0.00      0.000
7:47pm            326          2          2         51       74.8       33.9      29.95      40.21       33.1       34.8       17.7      30.06        -24       0.00       0.00       0.00      0.000
7:48pm            338          1          3         51       74.8       33.9      29.95      40.21       33.9       34.8       17.7      30.06        -24       0.00       0.00       0.00      0.000
7:49pm            354          1          3         51       74.7       33.9      29.95      40.21       33.9       34.8       17.7      30.06        -24       0.00       0.00       0.00      0.000
7:50pm            336          1          3         51       74.7       33.9      29.95      40.21       33.9       34.8       17.7      30.06        -24       0.00       0.00       0.00      0.000
7:51pm            325          1          3         51       74.7       33.9      29.95      40.21       33.9       34.8       17.7      30.06        -25       0.00       0.00       0.00      0.000
7:52pm            346          4          6         51       74.7       33.9      29.95      40.21       30.3       34.8       17.7      30.06        -26       0.00       0.00       0.00      0.000
7:53pm            351          4          4         51       74.7       33.9      29.95      40.21       30.3       34.8       17.7      30.06        -26       0.00       0.00       0.00      0.000
7:54pm            298          3          6         50       74.7       33.9      29.95      40.21       31.5       34.7       17.2      30.06        -27       0.00       0.00       0.00      0.000
7:55pm            303          1          3         50       74.7       33.9      29.95      40.21       33.9       34.7       17.2      30.06        -27       0.00       0.00       0.00      0.000
7:56pm            326          2          3         50       74.7       33.9      29.95      40.21       33.1       34.7       17.2      30.06        -30       0.00       0.00       0.00      0.000
7:57pm            326          1          2         50       74.7       33.9      29.95      40.21       33.9       34.7       17.2      30.06        -30       0.00       0.00       0.00      0.000
7:58pm            330          3          3         50       74.7       33.8      29.95      40.21       31.4       34.6       17.1      30.06        -31       0.00       0.00       0.00      0.000
7:59pm            317          4          4         50       74.7       33.8      29.95      40.21       30.2       34.6       17.1      30.06        -31       0.00       0.00       0.00      0.000
8:00pm            317          2          4         50       74.7       33.8      29.95      40.21       32.9       34.6       17.1      30.07        -32       0.00       0.00       0.00      0.000
8:01pm            335          4          4         51       74.7       33.8      29.95      40.21       30.2       34.7       17.6      30.06        -31       0.00       0.00       0.00      0.000
8:02pm            336          2          5         51       74.7       33.8      29.95      40.21       32.9       34.7       17.6      30.07        -32       0.00       0.00       0.00      0.000
8:03pm            333          3          5         51       74.7       33.8      29.95      40.21       31.4       34.7       17.6      30.06        -31       0.00       0.00       0.00      0.000
8:04pm            309          2          5         51       74.7       33.8      29.95      40.21       32.9       34.7       17.6      30.06        -31       0.00       0.00       0.00      0.000
8:05pm            307          2          2         51       74.7       33.8      29.95      40.21       32.9       34.7       17.6      30.07        -32       0.00       0.00       0.00      0.000
8:06pm            307          1          2         51       74.7       33.8      29.96      40.21       33.8       34.7       17.6      30.07        -35       0.00       0.00       0.00      0.000
8:07pm            218          2          3         51       74.7       33.8      29.96      40.21       32.9       34.7       17.6      30.07        -36       0.00       0.00       0.00      0.000
8:08pm            338          3          3         51       74.7       33.7      29.96      40.21       31.2       34.6       17.5      30.07        -38       0.00       0.00       0.00      0.000
8:09pm            290          1          3         51       74.7       33.7      29.96      40.21       33.7       34.6       17.5      30.07        -38       0.00       0.00       0.00      0.000
8:10pm            290          2          3         51       74.7       33.7      29.96      40.21       32.8       34.6       17.5      30.07        -38       0.00       0.00       0.00      0.000
8:11pm            263          2          4         51       74.7       33.7      29.96      40.21       32.8       34.6       17.5      30.07        -37       0.00       0.00       0.00      0.000
8:12pm             44          2          3         51       74.7       33.7      29.96      40.21       32.8       34.6       17.5      30.07        -36       0.00       0.00       0.00      0.000
8:13pm            345          0          3         51       74.6       33.7      29.96      40.21       33.7       34.6       17.5      30.07        -37       0.00       0.00       0.00      0.000
8:14pm            301          1          4         51       74.6       33.6      29.96      40.21       33.6       34.5       17.4      30.07        -37       0.00       0.00       0.00      0.000
8:15pm            301          2          3         51       74.7       33.6      29.96      40.21       32.7       34.5       17.4      30.07        -37       0.00       0.00       0.00      0.000
8:16pm             56          1          3         51       74.7       33.6      29.96      40.21       33.6       34.5       17.4      30.07        -38       0.00       0.00       0.00      0.000
8:17pm            327          5          5         51       74.6       33.6      29.96      40.21       29.0       34.5       17.4      30.07        -40       0.00       0.00       0.00      0.000
8:18pm             57          3          9         51       74.6       33.6      29.96      40.21       31.1       34.5       17.4      30.07        -38       0.00       0.00       0.00      0.000
8:19pm             15          1          4         51       74.6       33.6      29.96      40.21       33.6       34.5       17.4      30.07        -38       0.00       0.00       0.00      0.000
8:20pm            321          2          3         51       74.6       33.5      29.96      40.21       32.6       34.4       17.3      30.07        -37       0.00       0.00       0.00      0.000
8:21pm            321          1          2         51       74.6       33.5      29.96      40.21       33.5       34.4       17.3      30.07        -38       0.00       0.00       0.00      0.000
8:22pm            321          0          1         51       74.6       33.5      29.96      40.21       33.5       34.4       17.3      30.07        -38       0.00       0.00       0.00      0.000
8:23pm            328          1          1         51       74.6       33.6      29.96      40.21       33.6       34.5       17.4      30.07        -38       0.00       0.00       0.00      0.000
8:24pm            329          2          2         51       74.6       33.5      29.96      40.21       32.6       34.4       17.3      30.07        -40       0.00       0.00       0.00      0.000
8:25pm             58          3          3         51       74.6       33.5      29.96      40.21       31.0       34.4       17.3      30.08        -41       0.00       0.00       0.00      0.000
8:26pm             59          2          3         51       74.6       33.5      29.97      40.21       32.6       34.4       17.3      30.08        -42       0.00       0.00       0.00      0.000
8:27pm             59          0          2         51       74.6       33.5      29.97      40.21       33.5       34.4       17.3      30.08        -42       0.00       0.00       0.00      0.000
8:28pm             59          0          0         51       74.6       33.5      29.97      40.21       33.5       34.4       17.3      30.08        -42       0.00       0.00       0.00      0.000
8:29pm             59          2          2         51       74.6       33.5      29.97      40.21       32.6       34.4       17.3      30.08        -42       0.00       0.00       0.00      0.000
8:30pm             56          2          2         51       74.6       33.5      29.96      40.21       32.6       34.4       17.3      30.08        -41       0.00       0.00       0.00      0.000
8:31pm             32          2          2         51       74.6       33.5      29.96      40.21       32.6       34.4       17.3      30.08        -41       0.00       0.00       0.00      0.000
8:32pm            333          2          5         51       74.6       33.5      29.96      40.21       32.6       34.4       17.3      30.08        -41       0.00       0.00       0.00      0.000
8:33pm            333          1          2         51       74.6       33.5      29.96      40.21       33.5       34.4       17.3      30.08        -41       0.00       0.00       0.00      0.000
8:34pm            333          1          2         51       74.6       33.5      29.97      40.21       33.5       34.4       17.3      30.08        -42       0.00       0.00       0.00      0.000
8:35pm            333          1          2         51       74.6       33.5      29.97      40.21       33.5       34.4       17.3      30.08        -44       0.00       0.00       0.00      0.000
8:36pm            333          1          1         51       74.5       33.5      29.97      40.21       33.5       34.4       17.3      30.08        -42       0.00       0.00       0.00      0.000
8:37pm            333          1          2         51       74.6       33.5      29.97      40.21       33.5       34.4       17.3      30.08        -43       0.00       0.00       0.00      0.000
8:38pm            333          0          2         52       74.5       33.4      29.97      40.21       33.4       34.4       17.7      30.08        -43       0.00       0.00       0.00      0.000
8:39pm            333          0          2         52       74.5       33.4      29.96      40.21       33.4       34.4       17.7      30.08        -41       0.00       0.00       0.00      0.000
8:40pm            333          0          1         52       74.5       33.4      29.96      40.21       33.4       34.4       17.7      30.08        -41       0.00       0.00       0.00      0.000
8:41pm            333          1          3         52       74.5       33.4      29.96      40.21       33.4       34.4       17.7      30.08        -41       0.00       0.00       0.00      0.000
8:42pm            257          2          3         51       74.5       33.4      29.97      40.21       32.5       34.3       17.2      30.08        -42       0.00       0.00       0.00      0.000
8:43pm            257          1          2         51       74.5       33.4      29.97      40.21       33.4       34.3       17.2      30.08        -43       0.00       0.00       0.00      0.000
8:44pm            269          1          1         51       74.5       33.3      29.97      40.21       33.3       34.2       17.1      30.08        -44       0.00       0.00       0.00      0.000
8:45pm            269          0          3         52       74.5       33.3      29.97      40.21       33.3       34.3       17.6      30.08        -44       0.00       0.00       0.00      0.000
8:46pm            269          0          1         51       74.5       33.3      29.97      40.21       33.3       34.2       17.1      30.08        -45       0.00       0.00       0.00      0.000
8:47pm            269          1          3         51       74.5       33.3      29.97      40.21       33.3       34.2       17.1      30.08        -45       0.00       0.00       0.00      0.000
8:48pm            269          0          1         51       74.4       33.3      29.97      40.21       33.3       34.2       17.1      30.08        -44       0.00       0.00       0.00      0.000
8:49pm            271          2          2         51       74.4       33.3      29.97      40.21       32.4       34.2       17.1      30.08        -45       0.00       0.00       0.00      0.000
8:50pm            271          2          2         51       74.5       33.2      29.97      40.21       32.3       34.1       17.0      30.08        -44       0.00       0.00       0.00      0.000
8:51pm            326          2          3         51       74.5       33.2      29.97      40.21       32.3       34.1       17.0      30.08        -45       0.00       0.00       0.00      0.000
8:52pm            333          3          4         51       74.5       33.2      29.97      40.21       30.7       34.1       17.0      30.08        -45       0.00       0.00       0.00      0.000
8:53pm            333          1          3         51       74.4       33.2      29.97      40.21       33.2       34.1       17.0      30.08        -46       0.00       0.00       0.00      0.000
8:54pm            333          2          3         51       74.4       33.2      29.97      40.21       32.3       34.1       17.0      30.08        -48       0.00       0.00       0.00      0.000
8:55pm            333          1          3         51       74.4       33.2      29.97      40.21       33.2       34.1       17.0      30.08        -50       0.00       0.00       0.00      0.000
8:56pm            333          1          2         51       74.4       33.2      29.97      40.21       33.2       34.1       17.0      30.08        -50       0.00       0.00       0.00      0.000
8:57pm            333          1          2         51       74.5       33.2      29.98      40.21       33.2       34.1       17.0      30.09        -53       0.00       0.00       0.00      0.000
8:58pm            314          2          3         51       74.4       33.1      29.98      40.21       32.2       34.0       17.0      30.09        -55       0.00       0.00       0.00      0.000
8:59pm            314          0          2         51       74.4       33.1      29.98      40.21       33.1       34.0       17.0      30.09        -55       0.00       0.00       0.00      0.000
9:00pm            314          0          0         51       74.4       33.1      29.98      40.21       33.1       34.0       17.0      30.09        -56       0.00       0.00       0.00      0.000
9:01pm            314          0          0         51       74.4       33.0      29.98      40.21       33.0       33.9       16.9      30.09        -54       0.00       0.00       0.00      0.000
9:02pm            314          0          0         52       74.4       33.0      29.98      40.21       33.0       34.0       17.3      30.09        -53       0.00       0.00       0.00      0.000
9:03pm            105          0          3         52       74.4       33.0      29.98      40.21       33.0       34.0       17.3      30.09        -53       0.00       0.00       0.00      0.000
9:04pm            105          0          0         52       74.4       33.0      29.98      40.21       33.0       34.0       17.3      30.09        -52       0.00       0.00       0.00      0.000
9:05pm            105          0          1         52       74.4       33.0      29.98      40.21       33.0       34.0       17.3      30.09        -51       0.00       0.00       0.00      0.000
9:06pm            105          1          2         52       74.4       32.9      29.97      40.21       32.9       33.9       17.2      30.08        -50       0.00       0.00       0.00      0.000
9:07pm            105          1          1         52       74.4       32.9      29.97      40.21       32.9       33.9       17.2      30.08        -50       0.00       0.00       0.00      0.000
9:08pm            105          1          1         52       74.4       32.9      29.98      40.21       32.9       33.9       17.2      30.09        -51       0.00       0.00       0.00      0.000
9:09pm             77          2          2         52       74.4       32.9      29.97      40.21       32.0       33.9       17.2      30.08        -50       0.00       0.00       0.00      0.000
9:10pm            314          3          3         52       74.4       32.9      29.97      40.21       30.3       33.9       17.2      30.08        -50       0.00       0.00       0.00      0.000
9:11pm            312          2          3         52       74.4       32.8      29.98      40.21       31.8       33.8       17.1      30.09        -51       0.00       0.00       0.00      0.000
9:12pm            312          0          3         52       74.4       32.8      29.97      40.21       32.8       33.8       17.1      30.08        -50       0.00       0.00       0.00      0.000
9:13pm            312          1          1         52       74.4       32.8      29.98      40.21       32.8       33.8       17.1      30.09        -51       0.00       0.00       0.00      0.000
9:14pm            312          0          1         52       74.4       32.8      29.98      40.21       32.8       33.8       17.1      30.09        -53       0.00       0.00       0.00      0.000
9:15pm            312          0          1         52       74.4       32.8      29.98      40.21       32.8       33.8       17.1      30.09        -54       0.00       0.00       0.00      0.000
9:16pm            312          0          1         53       74.4       32.8      29.98      40.21       32.8       33.9       17.6      30.09        -53       0.00       0.00       0.00      0.000
9:17pm            312          1          1         53       74.4       32.7      29.98      40.21       32.7       33.8       17.5      30.09        -53       0.00       0.00       0.00      0.000
9:18pm             92          1          3         53       74.4       32.7      29.98      40.21       32.7       33.8       17.5      30.09        -52       0.00       0.00       0.00      0.000
9:19pm            101          3          4         53       74.4       32.7      29.98      40.21       30.1       33.8       17.5      30.09        -52       0.00       0.00       0.00      0.000
9:20pm            101          2          3         52       74.4       32.6      29.98      40.21       31.6       33.6       16.9      30.09        -52       0.00       0.00       0.00      0.000
9:21pm            101          1          2         52       74.4       32.6      29.98      40.21       32.6       33.6       16.9      30.09        -53       0.00       0.00       0.00      0.000
9:22pm            282          5          5         52       74.4       32.6      29.98      40.21       27.8       33.6       16.9      30.09        -53       0.00       0.00       0.00      0.000
9:23pm            307          2          5         53       74.4       32.6      29.98      40.21       31.6       33.7       17.4      30.09        -51       0.00       0.00       0.00      0.000
9:24pm            333          2          4         53       74.4       32.6      29.97      40.21       31.6       33.7       17.4      30.08        -50       0.00       0.00       0.00      0.000
9:25pm            293          0          3         53       74.4       32.6      29.97      40.21       32.6       33.7       17.4      30.08        -50       0.00       0.00       0.00      0.000
9:26pm            321          1          2         53       74.4       32.6      29.97      40.21       32.6       33.7       17.4      30.08        -50       0.00       0.00       0.00      0.000
9:27pm            330          2          3         53       74.4       32.6      29.97      40.21       31.6       33.7       17.4      30.08        -45       0.00       0.00       0.00      0.000
9:28pm            333          5          6         53       74.4       32.6      29.97      40.21       27.8       33.7       17.4      30.08        -43       0.00       0.00       0.00      0.000
9:29pm            316          3          5         53       74.4       32.6      29.97      40.21       30.0       33.7       17.4      30.08        -43       0.00       0.00       0.00      0.000
9:30pm            316          2          3         53       74.4       32.6      29.97      40.21       31.6       33.7       17.4      30.08        -44       0.00       0.00       0.00      0.000
9:31pm            304          3          5         53       74.4       32.6      29.97      40.21       30.0       33.7       17.4      30.08        -44       0.00       0.00       0.00      0.000
9:32pm            328          3          5         53       74.4       32.6      29.97      40.21       30.0       33.7       17.4      30.08        -46       0.00       0.00       0.00      0.000
9:33pm            313          3          5         52       74.4       32.6      29.97      40.21       30.0       33.6       16.9      30.08        -46       0.00       0.00       0.00      0.000
9:34pm            323          4          5         52       74.4       32.6      29.97      40.21       28.8       33.6       16.9      30.08        -46       0.00       0.00       0.00      0.000
9:35pm            323          2          4         52       74.4       32.6      29.97      40.21       31.6       33.6       16.9      30.08        -46       0.00       0.00       0.00      0.000
9:36pm            295          2          3         52       74.3       32.6      29.97      40.21       31.6       33.6       16.9      30.08        -45       0.00       0.00       0.00      0.000
9:37pm            328          2          3         52       74.4       32.6      29.97      40.21       31.6       33.6       16.9      30.08        -44       0.00       0.00       0.00      0.000
9:38pm            330          2          4         52       74.3       32.6      29.97      40.21       31.6       33.6       16.9      30.08        -46       0.00       0.00       0.00      0.000
9:39pm            298          3          4         52       74.3       32.6      29.97      40.21       30.0       33.6       16.9      30.08        -47       0.00       0.00       0.00      0.000
9:40pm            323          1          3         52       74.3       32.6      29.97      40.21       32.6       33.6       16.9      30.08        -49       0.00       0.00       0.00      0.000
9:41pm            334          1          3         52       74.3       32.6      29.97      40.21       32.6       33.6       16.9      30.08        -50       0.00       0.00       0.00      0.000
9:42pm            333          2          2         52       74.3       32.6      29.98      40.21       31.6       33.6       16.9      30.09        -51       0.00       0.00       0.00      0.000
9:43pm            286          0          3         52       74.3       32.6      29.98      40.21       32.6       33.6       16.9      30.09        -53       0.00       0.00       0.00      0.000
9:44pm            286          1          3         52       74.3       32.6      29.98      40.21       32.6       33.6       16.9      30.09        -53       0.00       0.00       0.00      0.000
9:45pm            287          1          2         52       74.3       32.6      29.98      40.21       32.6       33.6       16.9      30.09        -55       0.00       0.00       0.00      0.000
9:46pm            294          2          3         52       74.3       32.6      29.98      40.21       31.6       33.6       16.9      30.09        -55       0.00       0.00       0.00      0.000
9:47pm            294          0          2         52       74.3       32.6      29.98      40.21       32.6       33.6       16.9      30.09        -55       0.00       0.00       0.00      0.000
9:48pm            294          0          0         52       74.3       32.6      29.98      40.21       32.6       33.6       16.9      30.09        -54       0.00       0.00       0.00      0.000
9:49pm            294          0          0         52       74.3       32.5      29.98      40.21       32.5       33.5       16.8      30.09        -54       0.00       0.00       0.00      0.000
9:50pm            312          0          0         52       74.3       32.5      29.98      40.21       32.5       33.5       16.8      30.09        -52       0.00       0.00       0.00      0.000
9:51pm            312          0          0         52       74.3       32.5      29.98      40.21       32.5       33.5       16.8      30.09        -54       0.00       0.00       0.00      0.000
9:52pm            319          3          3         52       74.3       32.5      29.98      40.21       29.9       33.5       16.8      30.09        -52       0.00       0.00       0.00      0.000
9:53pm            347          1          3         52       74.3       32.5      29.98      40.21       32.5       33.5       16.8      30.09        -53       0.00       0.00       0.00      0.000
9:54pm            331          2          3         52       74.3       32.5      29.98      40.21       31.5       33.5       16.8      30.09        -55       0.00       0.00       0.00      0.000
9:55pm            241          1          2         52       74.3       32.5      29.98      40.21       32.5       33.5       16.8      30.09        -56       0.00       0.00       0.00      0.000
9:56pm            195          3          3         52       74.3       32.5      29.98      40.21       29.9       33.5       16.8      30.09        -57       0.00       0.00       0.00      0.000
9:57pm            182          2          3         52       74.3       32.5      29.98      40.21       31.5       33.5       16.8      30.09        -57       0.00       0.00       0.00      0.000
9:58pm            166          0          2         52       74.3       32.4      29.98      40.21       32.4       33.4       16.8      30.09        -57       0.00       0.00       0.00      0.000
9:59pm            111          2          3         53       74.3       32.4      29.98      40.21       31.4       33.5       17.2      30.09        -57       0.00       0.00       0.00      0.000
10:00pm           111          0          2         52       74.3       32.4      29.98      40.21       32.4       33.4       16.8      30.09        -56       0.00       0.00       0.00      0.000
10:01pm           138          2          3         52       74.3       32.4      29.98      40.21       31.4       33.4       16.8      30.09        -56       0.00       0.00       0.00      0.000
10:02pm           267          2          3         52       74.3       32.3      29.98      40.21       31.3       33.3       16.7      30.09        -56       0.00       0.00       0.00      0.000
10:03pm           267          1          2         52       74.2       32.3      29.98      40.21       32.3       33.3       16.7      30.09        -57       0.00       0.00       0.00      0.000
10:04pm           307          3          3         52       74.3       32.3      29.98      40.21       29.7       33.3       16.7      30.09        -56       0.00       0.00       0.00      0.000
10:05pm           293          2          3         52       74.2       32.3      29.98      40.21       31.3       33.3       16.7      30.09        -56       0.00       0.00       0.00      0.000
10:06pm           288          3          3         52       74.2       32.3      29.98      40.21       29.7       33.3       16.7      30.09        -55       0.00       0.00       0.00      0.000
10:07pm           314          1          3         52       74.2       32.2      29.98      40.21       32.2       33.2       16.6      30.09        -54       0.00       0.00       0.00      0.000
10:08pm           323          4          6         52       74.2       32.2      29.98      40.21       28.3       33.2       16.6      30.09        -54       0.00       0.00       0.00      0.000
10:09pm           291          4          4         52       74.2       32.2      29.98      40.21       28.3       33.2       16.6      30.09        -54       0.00       0.00       0.00      0.000
10:10pm           336          4          6         52       74.2       32.2      29.98      40.21       28.3       33.2       16.6      30.09        -56       0.00       0.00       0.00      0.000
10:11pm           352          1          4         51       74.2       32.1      29.98      40.21       32.1       33.0       16.0      30.09        -58       0.00       0.00       0.00      0.000
10:12pm           349          1          2         52       74.2       32.1      29.98      40.21       32.1       33.1       16.5      30.09        -58       0.00       0.00       0.00      0.000
10:13pm           347          2          4         52       74.2       32.1      29.98      40.21       31.1       33.1       16.5      30.09        -59       0.00       0.00       0.00      0.000
10:14pm           347          0          2         52       74.2       32.1      29.98      40.21       32.1       33.1       16.5      30.09        -58       0.00       0.00       0.00      0.000
10:15pm           347          0          0         52       74.2       32.0      29.98      40.21       32.0       33.0       16.4      30.09        -60       0.00       0.00       0.00      0.000
10:16pm           341          2          3         51       74.2       32.0      29.99      40.21       31.0       32.9       15.9      30.10        -61       0.00       0.00       0.00      0.000
10:17pm           341          2          2         51       74.2       32.0      29.98      40.21       31.0       32.9       15.9      30.09        -60       0.00       0.00       0.00      0.000
10:18pm           300          3          4         51       74.2       32.0      29.98      40.21       29.3       32.9       15.9      30.09        -60       0.00       0.00       0.00      0.000
10:19pm           314          0          3         51       74.2       32.0      29.98      40.21       32.0       32.9       15.9      30.09        -59       0.00       0.00       0.00      0.000
10:20pm           314          2          2         52       74.2       32.0      29.98      40.21       31.0       33.0       16.4      30.09        -59       0.00       0.00       0.00      0.000
10:21pm           314          3          3         52       74.2       31.9      29.98      40.21       29.2       32.9       16.3      30.09        -59       0.00       0.00       0.00      0.000
10:22pm           314          2          3         52       74.2       31.9      29.99      40.21       30.9       32.9       16.3      30.10        -61       0.00       0.00       0.00      0.000
10:23pm           314          2          3         52       74.2       31.9      29.99      40.21       30.9       32.9       16.3      30.10        -61       0.00       0.00       0.00      0.000
10:24pm           314          1          3         52       74.2       31.9      29.99      40.21       31.9       32.9       16.3      30.10        -62       0.00       0.00       0.00      0.000
10:25pm           346          1          3         52       74.1       31.8      29.99      40.21       31.8       32.8       16.2      30.10        -61       0.00       0.00       0.00      0.000
10:26pm           359          3          5         52       74.1       31.8      29.99      40.21       29.1       32.8       16.2      30.10        -61       0.00       0.00       0.00      0.000
10:27pm           115          2          4         52       74.1       31.8      29.99      40.21       30.7       32.8       16.2      30.10        -62       0.00       0.00       0.00      0.000
10:28pm           302          2          4         51       74.1       31.7      29.99      40.21       30.6       32.6       15.7      30.10        -64       0.00       0.00       0.00      0.000
10:29pm           302          0          3         51       74.1       31.7      29.99      40.21       31.7       32.6       15.7      30.10        -64       0.00       0.00       0.00      0.000
10:30pm           311          1          3         51       74.1       31.7      29.99      40.21       31.7       32.6       15.7      30.10        -64       0.00       0.00       0.00      0.000
10:31pm           313          2          2         51       74.1       31.7      29.99      40.21       30.6       32.6       15.7      30.10        -63       0.00       0.00       0.00      0.000
10:32pm           342          3          5         51       74.1       31.7      29.99      40.21       29.0       32.6       15.7      30.10        -64       0.00       0.00       0.00      0.000
10:33pm           359          2          3         51       74.1       31.6      29.99      40.21       30.5       32.5       15.6      30.10        -65       0.00       0.00       0.00      0.000
10:34pm           311          2          4         51       74.1       31.6      29.99      40.21       30.5       32.5       15.6      30.10        -65       0.00       0.00       0.00      0.000
10:35pm           329          2          4         51       74.1       31.6      29.99      40.21       30.5       32.5       15.6      30.10        -66       0.00       0.00       0.00      0.000
10:36pm           329          1          2         51       74.1       31.6      29.99      40.21       31.6       32.5       15.6      30.10        -67       0.00       0.00       0.00      0.000
10:37pm           329          1          1         51       74.1       31.6      29.99      40.21       31.6       32.5       15.6      30.10        -65       0.00       0.00       0.00      0.000
10:38pm           329          1          1         51       74.1       31.6      29.99      40.21       31.6       32.5       15.6      30.10        -64       0.00       0.00       0.00      0.000
10:39pm           329          1          2         51       74.1       31.6      29.99      40.21       31.6       32.5       15.6      30.10        -63       0.00       0.00       0.00      0.000
10:40pm           329          3          3         51       74.1       31.6      29.99      40.21       28.9       32.5       15.6      30.10        -64       0.00       0.00       0.00      0.000
10:41pm           330          2          5         51       74.1       31.6      29.99      40.21       30.5       32.5       15.6      30.10        -62       0.00       0.00       0.00      0.000
10:42pm           330          2          3         51       74.0       31.5      29.99      40.21       30.4       32.4       15.5      30.10        -61       0.00       0.00       0.00      0.000
10:43pm           284          3          4         51       74.1       31.5      29.99      40.21       28.8       32.4       15.5      30.10        -61       0.00       0.00       0.00      0.000
10:44pm           311          1          3         51       74.0       31.5      29.99      40.21       31.5       32.4       15.5      30.10        -61       0.00       0.00       0.00      0.000
10:45pm           315          3          4         51       74.1       31.5      29.99      40.21       28.8       32.4       15.5      30.10        -61       0.00       0.00       0.00      0.000
10:46pm           305          2          3         51       74.1       31.5      29.99      40.21       30.4       32.4       15.5      30.10        -63       0.00       0.00       0.00      0.000
10:47pm           305          1          3         51       74.1       31.5      29.99      40.21       31.5       32.4       15.5      30.10        -63       0.00       0.00       0.00      0.000
10:48pm           306          2          3         51       74.0       31.4      29.99      40.21       30.3       32.3       15.4      30.10        -63       0.00       0.00       0.00      0.000
10:49pm           271          3          3         51       74.1       31.4      29.99      40.21       28.6       32.3       15.4      30.10        -62       0.00       0.00       0.00      0.000
10:50pm           321          4          4         51       74.1       31.4      29.99      40.21       27.4       32.3       15.4      30.10        -63       0.00       0.00       0.00      0.000
10:51pm           269          2          4         51       74.0       31.4      29.99      40.21       30.3       32.3       15.4      30.10        -62       0.00       0.00       0.00      0.000
10:52pm           333          5          5         51       74.0       31.4      29.99      40.21       26.4       32.3       15.4      30.10        -62       0.00       0.00       0.00      0.000
10:53pm           276          5          5         50       74.1       31.4      29.99      40.21       26.4       32.2       14.9      30.10        -61       0.00       0.00       0.00      0.000
10:54pm           316          5          7         50       74.1       31.4      29.99      40.21       26.4       32.2       14.9      30.10        -61       0.00       0.00       0.00      0.000
10:55pm           339          4          5         50       74.1       31.3      29.99      40.21       27.3       32.1       14.8      30.10        -61       0.00       0.00       0.00      0.000
10:56pm           319          3          7         50       74.1       31.3      29.99      40.21       28.5       32.1       14.8      30.10        -61       0.00       0.00       0.00      0.000
10:57pm           283          3          7         50       74.1       31.3      29.99      40.21       28.5       32.1       14.8      30.10        -63       0.00       0.00       0.00      0.000
10:58pm           285          2          3         50       74.0       31.3      29.99      40.21       30.2       32.1       14.8      30.10        -64       0.00       0.00       0.00      0.000
10:59pm           319          1          3         50       74.0       31.2      29.99      40.21       31.2       32.0       14.7      30.10        -64       0.00       0.00       0.00      0.000
11:00pm           319          1          3         50       74.0       31.3      29.99      40.21       31.3       32.1       14.8      30.10        -63       0.00       0.00       0.00      0.000
11:01pm           326          1          2         50       74.0       31.2      29.99      40.21       31.2       32.0       14.7      30.10        -63       0.00       0.00       0.00      0.000
11:02pm           326          2          2         50       74.0       31.2      29.99      40.21       30.1       32.0       14.7      30.10        -64       0.00       0.00       0.00      0.000
11:03pm           326          2          2         50       74.0       31.2      29.99      40.21       30.1       32.0       14.7      30.10        -64       0.00       0.00       0.00      0.000
11:04pm           321          3          4         50       74.0       31.2      29.99      40.21       28.4       32.0       14.7      30.10        -64       0.00       0.00       0.00      0.000
11:05pm           323          2          4         50       74.0       31.2      29.99      40.21       30.1       32.0       14.7      30.10        -66       0.00       0.00       0.00      0.000
11:06pm           341          6          7         50       74.0       31.1      29.99      40.21       25.2       31.9       14.6      30.10        -66       0.00       0.00       0.00      0.000
11:07pm           325          2          6         50       74.0       31.1      29.99      40.21       30.0       31.9       14.6      30.10        -67       0.00       0.00       0.00      0.000
11:08pm           325          4          7         50       74.0       31.1      29.99      40.21       27.0       31.9       14.6      30.10        -67       0.00       0.00       0.00      0.000
11:09pm           325          2          6         49       74.0       31.0      29.99      40.21       29.9       31.7       14.1      30.10        -69       0.00       0.00       0.00      0.000
11:10pm           314          4          4         49       74.0       31.0      29.99      40.21       26.9       31.7       14.1      30.10        -69       0.00       0.00       0.00      0.000
11:11pm           323          3          4         49       74.0       31.0      30.00      40.21       28.2       31.7       14.1      30.11        -71       0.00       0.00       0.00      0.000
11:12pm           309          3          4         49       74.0       31.0      30.00      40.21       28.2       31.7       14.1      30.11        -70       0.00       0.00       0.00      0.000
11:13pm           337          2          6         49       74.0       31.0      30.00      40.21       29.9       31.7       14.1      30.11        -70       0.00       0.00       0.00      0.000
11:14pm           328          2          6         49       74.0       30.9      30.00      40.21       29.8       31.6       14.0      30.11        -70       0.00       0.00       0.00      0.000
11:15pm           317          3          3         49       74.0       30.9      29.99      40.21       28.1       31.6       14.0      30.10        -69       0.00       0.00       0.00      0.000
11:16pm           338          2          3         49       74.0       30.9      29.99      40.21       29.8       31.6       14.0      30.10        -69       0.00       0.00       0.00      0.000
11:17pm           313          2          4         49       74.0       30.9      30.00      40.21       29.8       31.6       14.0      30.11        -70       0.00       0.00       0.00      0.000
11:18pm           330          1          5         49       74.0       30.9      30.00      40.21       30.9       31.6       14.0      30.11        -72       0.00       0.00       0.00      0.000
11:19pm           330          0          2         49       74.0       30.9      30.00      40.21       30.9       31.6       14.0      30.11        -72       0.00       0.00       0.00      0.000
11:20pm           297          2          3         49       74.0       30.9      30.00      40.21       29.8       31.6       14.0      30.11        -72       0.00       0.00       0.00      0.000
11:21pm           300          0          3         49       74.0       30.9      30.00      40.21       30.9       31.6       14.0      30.11        -72       0.00       0.00       0.00      0.000
11:22pm           300          1          3         49       74.0       30.8      30.00      40.21       30.8       31.5       13.9      30.11        -72       0.00       0.00       0.00      0.000
11:23pm           309          3          3         49       74.0       30.8      30.00      40.21       28.0       31.5       13.9      30.11        -71       0.00       0.00       0.00      0.000
11:24pm           309          2          5         49       74.0       30.8      30.00      40.21       29.7       31.5       13.9      30.11        -70       0.00       0.00       0.00      0.000
11:25pm           302          4          6         49       74.0       30.8      29.99      40.21       26.7       31.5       13.9      30.10        -69       0.00       0.00       0.00      0.000
11:26pm           359          6          6         48       74.0       30.8      29.99      40.21       24.8       31.4       13.4      30.10        -68       0.00       0.00       0.00      0.000
11:27pm           334          4          6         48       73.9       30.8      29.99      40.21       26.7       31.4       13.4      30.10        -67       0.00       0.00       0.00      0.000
11:28pm           329          3          4         48       73.9       30.8      29.99      40.21       28.0       31.4       13.4      30.10        -68       0.00       0.00       0.00      0.000
11:29pm           311          6          8         48       74.0       30.7      29.99      40.21       24.7       31.3       13.3      30.10        -69       0.00       0.00       0.00      0.000
11:30pm           308          4          6         48       74.0       30.7      30.00      40.21       26.6       31.3       13.3      30.11        -70       0.00       0.00       0.00      0.000
11:31pm           299          1          4         48       74.0       30.7      30.00      40.21       30.7       31.3       13.3      30.11        -71       0.00       0.00       0.00      0.000
11:32pm           330          2          4         48       73.9       30.7      30.00      40.21       29.5       31.3       13.3      30.11        -71       0.00       0.00       0.00      0.000
11:33pm           324          3          3         48       73.9       30.7      30.00      40.21       27.8       31.3       13.3      30.11        -72       0.00       0.00       0.00      0.000
11:34pm           291          3          5         48       73.9       30.7      30.00      40.21       27.8       31.3       13.3      30.11        -70       0.00       0.00       0.00      0.000
11:35pm           324          1          3         48       73.9       30.6      30.00      40.21       30.6       31.2       13.3      30.11        -71       0.00       0.00       0.00      0.000
11:36pm           308          3          3         48       73.9       30.6      29.99      40.21       27.7       31.2       13.3      30.10        -69       0.00       0.00       0.00      0.000
11:37pm           350          2          5         47       73.9       30.6      29.99      40.21       29.4       31.1       12.8      30.10        -69       0.00       0.00       0.00      0.000
11:38pm           346          3          3         47       73.9       30.6      29.99      40.21       27.7       31.1       12.8      30.10        -66       0.00       0.00       0.00      0.000
11:39pm           285          5          6         47       73.9       30.6      29.99      40.21       25.4       31.1       12.8      30.10        -65       0.00       0.00       0.00      0.000
11:40pm           325          0          5         47       73.9       30.6      29.99      40.21       30.6       31.1       12.8      30.10        -66       0.00       0.00       0.00      0.000
11:41pm           325          1          2         47       73.9       30.6      29.99      40.21       30.6       31.1       12.8      30.10        -65       0.00       0.00       0.00      0.000
11:42pm           325          1          2         48       73.9       30.6      29.99      40.21       30.6       31.2       13.3      30.10        -66       0.00       0.00       0.00      0.000
11:43pm           304          3          5         48       73.9       30.6      29.99      40.21       27.7       31.2       13.3      30.10        -66       0.00       0.00       0.00      0.000
11:44pm           339          2          4         48       73.9       30.6      29.99      40.21       29.4       31.2       13.3      30.10        -63       0.00       0.00       0.00      0.000
11:45pm           319          1          3         47       73.9       30.5      29.99      40.21       30.5       31.0       12.7      30.10        -63       0.00       0.00       0.00      0.000
11:46pm           319          2          3         47       73.9       30.5      29.99      40.21       29.3       31.0       12.7      30.10        -63       0.00       0.00       0.00      0.000
11:47pm           319          1          3         48       73.9       30.5      29.99      40.21       30.5       31.1       13.2      30.10        -65       0.00       0.00       0.00      0.000
11:48pm           319          2          2         48       73.9       30.5      29.99      40.21       29.3       31.1       13.2      30.10        -64       0.00       0.00       0.00      0.000
11:49pm           319          1          2         48       73.9       30.5      29.99      40.21       30.5       31.1       13.2      30.10        -65       0.00       0.00       0.00      0.000
11:50pm           319          1          2         48       73.9       30.5      29.99      40.21       30.5       31.1       13.2      30.10        -63       0.00       0.00       0.00      0.000
11:51pm           319          1          2         48       73.9       30.5      29.99      40.21       30.5       31.1       13.2      30.10        -62       0.00       0.00       0.00      0.000
11:52pm           233          3          3         48       73.8       30.4      29.98      40.21       27.5       31.0       13.1      30.09        -60       0.00       0.00       0.00      0.000
11:53pm           227          2          3         48       73.8       30.4      29.98      40.21       29.2       31.0       13.1      30.09        -59       0.00       0.00       0.00      0.000
11:54pm           334          4          4         48       73.8       30.4      29.98      40.21       26.2       31.0       13.1      30.09        -59       0.00       0.00       0.00      0.000
11:55pm           288          3          4         48       73.8       30.3      29.98      40.21       27.4       30.9       13.0      30.09        -59       0.00       0.00       0.00      0.000
11:56pm           303          2          5         48       73.8       30.3      29.98      40.21       29.1       30.9       13.0      30.09        -60       0.00       0.00       0.00      0.000
11:57pm           247          2          4         47       73.8       30.3      29.99      40.21       29.1       30.8       12.5      30.10        -61       0.00       0.00       0.00      0.000
11:58pm           295          2          3         47       73.8       30.3      29.99      40.21       29.1       30.8       12.5      30.10        -62       0.00       0.00       0.00      0.000
11:59pm           304          1          2         47       73.8       30.2      29.99      40.21       30.2       30.7       12.4      30.10        -63       0.00       0.00       0.00      0.000

Updated Automatically by Ambient Weather's Virtual Weather Station  V15.00
All rights reserved. Unauthorized duplication or distribution is prohibited
Never base important decisions on this or any weather information obtained from the Internet